[[{"header":{"parameterUnit":"m.s-1","parameterCategory":1,"la1":30.6,"la2":29.2853,"lo1":-89.7004,"lo2":-87.6739,"dy":0.0162,"dx":0.0183,"nx":112,"ny":82,"refTime":"2024-09-05T12:00:00:Z","depth":0,"parameterNumber":2,"parameterNumberName":"U-component_of_WINDS"},"data":[0.0,0.0,0.0,0.0,0.0,0.0,0.0,0.0,0.0,0.0,0.0,0.0,0.0,0.0,0.0,0.0,0.0,0.0,0.0,0.0,0.0,0.0,0.0,0.0,0.0,0.0,0.0,0.0,0.0,0.0,0.0,0.0,0.0,0.0,0.0,0.0,0.0,0.0,0.0,0.0,0.0,0.0,0.0,0.0,0.0,0.0,0.0,0.0,0.0,0.0,0.0,0.0,0.0,0.0,0.0,0.0,0.0,0.0,0.0,0.0,0.0,0.0,0.0,0.0,0.0,0.0,0.0,0.0,0.0,0.0,0.0,0.0,0.0,0.0,0.0,0.0,0.0,0.0,0.0,0.0,0.0,0.0,0.0,0.0,0.0,0.0,0.0,0.0,0.0,0.0,3.6039,4.0472,4.5229,4.7718,4.6853,4.6597,4.3335,3.6039,0.0,0.0,0.0,0.0,0.0,0.0,0.0,0.0,0.0,0.0,0.0,0.0,0.0,0.0,0.0,0.0,0.0,0.0,0.0,0.0,0.0,0.0,0.0,0.0,0.0,0.0,0.0,0.0,0.0,0.0,0.0,0.0,0.0,0.0,0.0,0.0,0.0,0.0,0.0,0.0,0.0,0.0,0.0,0.0,0.0,0.0,0.0,0.0,0.0,0.0,0.0,0.0,0.0,0.0,0.0,0.0,0.0,0.0,0.0,0.0,0.0,0.0,0.0,0.0,0.0,0.0,0.0,0.0,0.0,0.0,0.0,0.0,0.0,0.0,0.0,0.0,0.0,0.0,0.0,0.0,0.0,0.0,0.0,0.0,0.0,0.0,0.0,0.0,0.0,0.0,0.0,0.0,0.0,0.0,0.0,0.0,0.0,0.0,0.0,0.0,0.0,0.0,0.0,0.0,3.6468,4.4045,4.7259,4.8274,4.6936,4.565,4.2266,3.6017,0.0,0.0,0.0,0.0,0.0,0.0,0.0,0.0,0.0,0.0,0.0,0.0,0.0,0.0,0.0,0.0,0.0,0.0,0.0,0.0,0.0,0.0,0.0,0.0,0.0,0.0,0.0,0.0,0.0,0.0,0.0,0.0,0.0,0.0,0.0,0.0,0.0,0.0,0.0,0.0,0.0,0.0,0.0,0.0,0.0,0.0,0.0,0.0,0.0,0.0,0.0,0.0,0.0,0.0,0.0,0.0,0.0,0.0,0.0,0.0,0.0,0.0,0.0,0.0,0.0,0.0,0.0,0.0,0.0,0.0,0.0,0.0,0.0,0.0,0.0,0.0,0.0,0.0,0.0,0.0,0.0,0.0,0.0,0.0,0.0,0.0,0.0,0.0,0.0,0.0,0.0,0.0,0.0,0.0,0.0,0.0,0.0,0.0,0.0,0.0,0.0,0.0,0.0,3.6299,3.9851,4.5669,4.7936,4.8409,4.6936,4.5447,4.2029,3.5971,3.348,0.0,0.0,0.0,0.0,0.0,0.0,0.0,0.0,0.0,0.0,0.0,0.0,0.0,0.0,0.0,0.0,0.0,0.0,0.0,0.0,0.0,0.0,0.0,0.0,0.0,0.0,0.0,0.0,0.0,0.0,0.0,0.0,0.0,0.0,0.0,0.0,0.0,0.0,0.0,0.0,0.0,0.0,0.0,0.0,0.0,0.0,0.0,0.0,0.0,0.0,0.0,0.0,0.0,0.0,0.0,0.0,0.0,0.0,0.0,0.0,0.0,0.0,0.0,0.0,0.0,0.0,0.0,0.0,0.0,0.0,0.0,0.0,0.0,0.0,0.0,0.0,0.0,0.0,0.0,0.0,0.0,0.0,0.0,0.0,0.0,0.0,0.0,0.0,0.0,0.0,0.0,0.0,0.0,0.0,0.0,0.0,0.0,0.0,0.0,0.0,0.0,0.0,4.0426,4.3234,4.6462,4.797,4.8206,4.6921,4.4635,4.1014,3.5678,3.1891,0.0,0.0,0.0,0.0,0.0,0.0,0.0,0.0,0.0,0.0,0.0,0.0,0.0,0.0,0.0,0.0,0.0,0.0,0.0,0.0,0.0,0.0,0.0,0.0,0.0,0.0,0.0,0.0,0.0,0.0,0.0,0.0,0.0,0.0,0.0,0.0,0.0,0.0,0.0,0.0,0.0,0.0,0.0,0.0,0.0,0.0,0.0,0.0,0.0,0.0,0.0,0.0,0.0,0.0,0.0,0.0,0.0,0.0,0.0,0.0,0.0,0.0,0.0,0.0,0.0,0.0,0.0,0.0,0.0,0.0,0.0,0.0,0.0,0.0,0.0,0.0,0.0,0.0,0.0,0.0,0.0,0.0,0.0,0.0,0.0,0.0,0.0,0.0,0.0,0.0,0.0,0.0,0.0,0.0,0.0,0.0,0.0,0.0,0.0,0.0,0.0,0.0,4.0832,4.4973,4.6631,4.7515,4.765,4.6868,4.2266,3.8036,3.4776,2.9194,0.0,0.0,0.0,0.0,0.0,0.0,0.0,0.0,0.0,0.0,0.0,0.0,0.0,0.0,0.0,0.0,0.0,0.0,0.0,0.0,0.0,0.0,0.0,0.0,0.0,0.0,0.0,0.0,0.0,0.0,0.0,0.0,0.0,0.0,0.0,0.0,0.0,0.0,0.0,0.0,0.0,0.0,0.0,0.0,0.0,0.0,0.0,0.0,0.0,0.0,0.0,0.0,0.0,0.0,0.0,0.0,0.0,0.0,0.0,0.0,0.0,0.0,0.0,0.0,0.0,0.0,0.0,0.0,0.0,0.0,0.0,0.0,0.0,0.0,0.0,0.0,0.0,0.0,0.0,0.0,0.0,0.0,0.0,0.0,0.0,0.0,0.0,0.0,0.0,0.0,0.0,0.0,0.0,0.0,0.0,0.0,0.0,0.0,0.0,0.0,0.0,0.0,3.9229,4.2895,4.5805,4.6786,4.6921,4.6177,4.3436,3.9681,3.4821,0.0,0.0,0.0,0.0,0.0,0.0,0.0,0.0,0.0,0.0,0.0,0.0,0.0,0.0,0.0,0.0,0.0,0.0,0.0,0.0,0.0,0.0,0.0,0.0,0.0,0.0,0.0,0.0,0.0,0.0,0.0,0.0,0.0,0.0,0.0,0.0,0.0,0.0,0.0,0.0,0.0,0.0,0.0,0.0,0.0,0.0,0.0,0.0,0.0,0.0,0.0,0.0,0.0,0.0,0.0,0.0,0.0,0.0,0.0,0.0,0.0,0.0,0.0,0.0,0.0,0.0,0.0,0.0,0.0,0.0,0.0,0.0,0.0,0.0,0.0,0.0,0.0,0.0,0.0,0.0,0.0,0.0,0.0,0.0,0.0,0.0,0.0,0.0,0.0,0.0,0.0,0.0,0.0,0.0,0.0,0.0,0.0,0.0,0.0,0.0,0.0,0.0,3.5025,3.8857,4.2307,4.5365,4.6143,4.6143,4.5399,4.3085,3.9398,3.4144,0.0,0.0,0.0,0.0,0.0,0.0,0.0,0.0,0.0,0.0,0.0,0.0,0.0,0.0,0.0,0.0,0.0,0.0,0.0,0.0,0.0,0.0,0.0,0.0,0.0,0.0,0.0,0.0,0.0,0.0,0.0,0.0,0.0,0.0,0.0,0.0,0.0,0.0,0.0,0.0,0.0,0.0,0.0,0.0,0.0,0.0,0.0,0.0,0.0,0.0,0.0,0.0,0.0,0.0,0.0,0.0,0.0,0.0,0.0,0.0,0.0,0.0,0.0,0.0,0.0,0.0,0.0,0.0,0.0,0.0,0.0,0.0,0.0,0.0,0.0,0.0,0.0,0.0,0.0,0.0,0.0,0.0,0.0,0.0,0.0,0.0,0.0,0.0,0.0,0.0,0.0,0.0,0.0,0.0,0.0,0.0,0.0,0.0,0.0,0.0,0.0,0.0,3.5228,4.0176,4.3998,4.552,4.5689,4.5365,4.4649,4.0493,3.6332,0.0,0.0,0.0,0.0,0.0,0.0,0.0,0.0,0.0,0.0,0.0,0.0,0.0,0.0,0.0,0.0,0.0,0.0,0.0,0.0,0.0,0.0,0.0,0.0,0.0,0.0,0.0,0.0,0.0,0.0,0.0,0.0,0.0,0.0,0.0,0.0,0.0,0.0,0.0,0.0,0.0,0.0,0.0,0.0,0.0,0.0,0.0,0.0,0.0,0.0,0.0,0.0,0.0,0.0,0.0,0.0,0.0,0.0,0.0,0.0,0.0,0.0,0.0,0.0,0.0,0.0,0.0,0.0,0.0,0.0,0.0,0.0,0.0,0.0,0.0,0.0,0.0,0.0,0.0,0.0,0.0,0.0,0.0,0.0,0.0,0.0,0.0,0.0,0.0,0.0,0.0,0.0,0.0,0.0,0.0,0.0,0.0,0.0,0.0,0.0,0.0,0.0,0.0,3.5228,3.9715,4.32,4.477,4.4418,4.3998,4.3761,4.161,3.7956,3.2632,0.0,0.0,0.0,0.0,0.0,0.0,0.0,0.0,0.0,0.0,0.0,0.0,0.0,0.0,0.0,0.0,0.0,0.0,0.0,0.0,0.0,0.0,0.0,0.0,0.0,0.0,0.0,0.0,0.0,0.0,0.0,0.0,0.0,0.0,0.0,0.0,0.0,0.0,0.0,0.0,0.0,0.0,0.0,0.0,0.0,0.0,0.0,0.0,0.0,0.0,0.0,0.0,0.0,0.0,0.0,0.0,0.0,0.0,0.0,0.0,0.0,0.0,0.0,0.0,0.0,0.0,0.0,0.0,0.0,0.0,0.0,0.0,0.0,0.0,0.0,0.0,0.0,0.0,0.0,0.0,0.0,0.0,0.0,0.0,0.0,0.0,0.0,0.0,0.0,0.0,0.0,0.0,0.0,0.0,0.0,0.0,0.0,0.0,0.0,0.0,0.0,0.0,3.5228,3.9512,4.2875,4.4432,4.4161,4.3639,4.3017,4.2151,3.9073,3.3129,0.0,0.0,0.0,0.0,0.0,0.0,0.0,0.0,0.0,0.0,0.0,0.0,0.0,0.0,0.0,0.0,0.0,0.0,0.0,0.0,0.0,0.0,0.0,0.0,0.0,0.0,0.0,0.0,0.0,0.0,0.0,0.0,0.0,0.0,0.0,0.0,0.0,0.0,0.0,0.0,0.0,0.0,0.0,0.0,0.0,0.0,0.0,0.0,0.0,0.0,0.0,0.0,0.0,0.0,0.0,0.0,0.0,0.0,0.0,0.0,0.0,0.0,0.0,0.0,0.0,0.0,0.0,0.0,0.0,0.0,0.0,0.0,0.0,0.0,0.0,0.0,0.0,0.0,0.0,0.0,0.0,0.0,0.0,0.0,0.0,0.0,0.0,0.0,0.0,0.0,0.0,0.0,0.0,0.0,0.0,0.0,0.0,0.0,0.0,0.0,0.0,0.0,3.5228,3.9512,4.2875,4.433,4.4499,4.3856,4.2333,4.2198,3.9749,3.3954,0.0,0.0,0.0,0.0,0.0,0.0,0.0,0.0,0.0,0.0,0.0,0.0,0.0,0.0,0.0,0.0,0.0,0.0,0.0,0.0,0.0,0.0,0.0,0.0,0.0,0.0,0.0,0.0,0.0,0.0,0.0,0.0,0.0,0.0,0.0,0.0,0.0,0.0,0.0,0.0,0.0,0.0,0.0,0.0,0.0,0.0,0.0,0.0,0.0,0.0,0.0,0.0,0.0,0.0,0.0,0.0,0.0,0.0,0.0,0.0,3.5558,3.3363,0.0,0.0,0.0,0.0,0.0,0.0,0.0,0.0,0.0,0.0,0.0,0.0,0.0,0.0,0.0,0.0,0.0,0.0,0.0,0.0,0.0,0.0,0.0,0.0,0.0,0.0,0.0,0.0,0.0,0.0,0.0,0.0,0.0,0.0,0.0,0.0,0.0,0.0,0.0,0.0,3.5228,3.9512,4.2658,4.3558,4.366,4.3051,4.1576,4.1441,3.9635,3.5397,3.3051,0.0,0.0,0.0,0.0,0.0,0.0,0.0,0.0,0.0,0.0,0.0,0.0,0.0,0.0,0.0,0.0,0.0,0.0,0.0,0.0,0.0,0.0,0.0,0.0,0.0,0.0,0.0,0.0,0.0,0.0,0.0,0.0,0.0,0.0,0.0,0.0,0.0,0.0,0.0,0.0,0.0,0.0,0.0,0.0,0.0,0.0,0.0,0.0,0.0,0.0,0.0,0.0,0.0,0.0,0.0,0.0,0.0,0.0,0.0,4.1095,3.9064,0.0,0.0,0.0,0.0,0.0,0.0,0.0,0.0,0.0,0.0,0.0,0.0,0.0,0.0,0.0,0.0,0.0,0.0,0.0,0.0,0.0,0.0,0.0,0.0,0.0,0.0,0.0,0.0,0.0,0.0,0.0,0.0,0.0,0.0,0.0,0.0,0.0,0.0,0.0,0.0,3.5757,3.9762,4.274,4.3842,4.3978,4.3369,4.1847,4.1745,4.029,3.693,3.4934,0.0,0.0,0.0,0.0,0.0,0.0,0.0,0.0,0.0,0.0,0.0,0.0,0.0,0.0,0.0,0.0,0.0,0.0,0.0,0.0,0.0,0.0,0.0,0.0,0.0,0.0,0.0,0.0,0.0,0.0,0.0,0.0,0.0,0.0,0.0,0.0,0.0,0.0,0.0,0.0,0.0,0.0,0.0,0.0,0.0,0.0,0.0,0.0,0.0,0.0,0.0,0.0,0.0,4.8301,4.9419,5.073,5.073,5.0939,5.103,4.6859,4.5577,4.6112,4.2174,0.0,0.0,0.0,0.0,0.0,0.0,0.0,0.0,0.0,0.0,0.0,0.0,0.0,0.0,0.0,0.0,0.0,0.0,0.0,0.0,0.0,0.0,3.9411,3.9297,4.1136,4.1386,3.5836,0.0,0.0,0.0,0.0,0.0,0.0,0.0,0.0,0.0,0.0,0.0,3.6682,4.0066,4.2706,4.4228,4.4262,4.3619,4.2232,4.2117,4.1001,3.8464,3.6862,3.4833,0.0,0.0,0.0,0.0,0.0,0.0,0.0,0.0,0.0,0.0,0.0,0.0,0.0,0.0,0.0,0.0,0.0,0.0,0.0,0.0,0.0,0.0,0.0,0.0,0.0,0.0,0.0,0.0,0.0,0.0,0.0,0.0,3.6002,3.7036,0.0,0.0,0.0,0.0,0.0,0.0,0.0,0.0,0.0,0.0,0.0,0.0,0.0,4.6834,4.9068,5.1775,5.323,5.3484,5.5463,5.6546,5.6733,5.6733,5.6445,5.5886,5.5244,0.0,4.844,4.6578,0.0,0.0,0.0,0.0,0.0,0.0,0.0,0.0,0.0,0.0,0.0,0.0,0.0,0.0,0.0,0.0,0.0,0.0,0.0,0.0,0.0,0.0,4.5466,4.4823,4.4978,4.5026,4.4113,3.9297,3.4664,3.2973,3.163,3.0176,0.0,0.0,0.0,0.0,0.0,0.0,3.8239,4.0257,4.1914,4.3389,4.2997,4.2266,4.1407,4.1339,4.0899,3.9876,3.843,3.7144,3.6118,3.3343,0.0,0.0,0.0,0.0,0.0,0.0,0.0,0.0,0.0,0.0,0.0,0.0,0.0,0.0,0.0,0.0,0.0,0.0,0.0,0.0,0.0,0.0,0.0,0.0,0.0,0.0,0.0,0.0,0.0,3.4934,3.8615,3.8518,3.8967,3.8219,0.0,0.0,0.0,0.0,0.0,0.0,0.0,0.0,0.0,4.9209,5.0502,5.1749,5.2924,5.473,5.5613,5.5518,5.648,5.7173,5.7569,5.7569,5.7404,5.7093,5.7215,5.5703,5.3015,5.0366,4.7834,4.5365,0.0,0.0,0.0,0.0,4.2219,4.2997,4.4654,4.5244,4.5041,4.3789,0.0,0.0,0.0,0.0,0.0,0.0,0.0,4.0527,4.1826,4.4465,4.6819,4.6906,4.694,4.6833,4.6416,4.3341,3.9968,3.7631,3.6323,3.4487,3.0871,3.0324,0.0,0.0,0.0,3.6118,3.9779,4.1529,4.2861,4.3944,4.3789,4.3112,4.1914,4.1813,4.1318,4.018,3.9491,3.8814,3.807,3.5972,3.34,0.0,0.0,0.0,0.0,0.0,0.0,0.0,0.0,0.0,0.0,0.0,0.0,0.0,0.0,0.0,0.0,0.0,0.0,0.0,0.0,0.0,0.0,0.0,0.0,0.0,0.0,0.0,0.0,3.8069,4.113,4.0236,4.1726,4.1618,0.0,0.0,0.0,0.0,0.0,0.0,4.7173,4.9008,5.0988,5.3072,5.4527,5.5525,5.5977,5.6849,5.7229,5.7053,5.7053,5.7365,5.7882,5.7882,5.7785,5.758,5.7761,5.729,5.625,5.3477,5.1472,4.9965,4.8105,4.6955,4.636,4.6921,4.7225,4.7699,4.9898,5.0541,5.0168,4.8917,4.7124,4.4838,4.1461,0.0,0.0,0.0,0.0,4.3055,4.5148,4.6349,4.7245,4.8001,4.7896,4.7474,4.6914,4.5783,4.4106,4.1463,4.0255,3.8282,3.3983,3.3208,0.0,3.393,3.5559,3.7951,4.1328,4.2544,4.3504,4.4499,4.4228,4.3552,4.2401,4.2117,4.1487,4.018,4.0113,3.9863,3.9288,3.8036,3.6039,3.3197,0.0,0.0,0.0,0.0,0.0,0.0,0.0,0.0,0.0,0.0,0.0,0.0,0.0,0.0,0.0,0.0,0.0,0.0,0.0,0.0,0.0,0.0,0.0,0.0,0.0,0.0,0.0,0.0,0.0,4.334,4.5603,0.0,0.0,0.0,0.0,4.4924,4.6377,4.8445,5.1359,5.2269,5.3716,5.591,5.6749,5.7547,5.8335,5.9058,5.9436,5.9425,5.9425,5.9457,5.949,5.949,5.9079,5.8346,5.841,5.7654,5.6266,5.5706,5.4583,5.3179,5.23,5.1522,5.0863,5.0897,5.137,5.1995,5.2131,5.1725,5.137,5.2723,5.0694,4.7684,4.7481,4.534,0.0,0.0,4.5767,4.6669,4.8282,4.8208,4.7961,4.8745,4.7864,4.683,4.6797,4.618,4.5175,4.3622,4.2151,4.0651,3.8993,0.0,3.7996,3.8659,3.8871,3.998,4.2902,4.2726,4.2943,4.4432,4.3281,4.2401,4.23,4.1644,4.0933,4.0146,4.0113,4.0079,4.0045,3.9288,3.7787,3.5475,3.251,0.0,0.0,0.0,0.0,0.0,0.0,0.0,0.0,0.0,0.0,0.0,0.0,0.0,0.0,0.0,0.0,0.0,0.0,0.0,0.0,0.0,0.0,0.0,0.0,0.0,0.0,0.0,0.0,4.5453,4.8268,0.0,4.6502,4.7326,4.8449,4.9451,5.1288,5.3028,5.4539,5.5795,5.653,5.6714,5.8053,5.8325,5.7417,5.8259,5.8386,5.7817,5.7817,5.7817,5.7817,5.7817,5.7636,5.7377,5.7498,5.7236,5.6728,5.6275,5.5232,5.3865,5.3109,5.2649,5.2433,5.2433,5.2339,5.216,5.216,5.1717,5.1143,5.1158,5.0616,4.9759,4.8775,4.8067,4.7622,4.766,4.7834,4.8131,4.8692,4.8326,4.7864,4.8144,4.7121,4.6092,4.6092,4.5525,4.483,4.4324,4.3419,4.2267,4.0728,3.9992,3.9677,3.98,3.9909,4.0682,4.258,4.2604,4.28,4.3789,4.3385,4.2839,4.2327,4.2049,4.1386,4.018,3.966,3.9389,3.9389,3.8239,3.675,3.4945,3.2442,2.9364,0.0,0.0,0.0,0.0,0.0,0.0,0.0,0.0,0.0,0.0,0.0,0.0,0.0,0.0,0.0,0.0,0.0,0.0,0.0,0.0,0.0,0.0,0.0,0.0,0.0,4.5085,4.807,4.7497,5.04,5.1689,4.9742,5.1081,5.2445,5.3453,5.5069,5.6318,5.7039,5.8006,5.8263,5.7621,5.8715,5.8617,5.7148,5.7767,5.7643,5.681,5.681,5.681,5.681,5.681,5.681,5.6803,5.6895,5.6776,5.6541,5.6227,5.5282,5.4019,5.3878,5.3828,5.3795,5.3549,5.3181,5.2747,5.2262,5.1653,5.0991,5.0468,5.0656,5.0916,4.9902,4.9772,4.9845,4.9314,4.894,4.8789,4.9072,4.8448,4.7731,4.78,4.6715,4.5608,4.5376,4.4937,4.4591,4.4591,4.4054,4.3253,4.2176,4.1568,4.1162,4.104,4.1135,4.1516,4.2394,4.2505,4.2676,4.3121,4.3362,4.3078,4.205,4.1943,4.142,4.018,3.9186,3.8734,3.8983,3.7562,3.6175,3.4912,3.2689,3.0209,2.7494,0.0,0.0,0.0,0.0,0.0,0.0,0.0,0.0,0.0,0.0,0.0,0.0,0.0,0.0,0.0,0.0,0.0,0.0,0.0,0.0,0.0,0.0,0.0,4.4366,4.7478,4.9706,4.9706,5.2143,5.3348,5.2133,5.3728,5.5426,5.6849,5.749,5.811,5.8787,5.8818,5.8818,5.8818,5.8818,5.8479,5.7832,5.7832,5.7494,5.6847,5.6847,5.6871,5.684,5.684,5.6816,5.681,5.681,5.6385,5.5715,5.5715,5.4945,5.3843,5.4867,5.5231,5.5134,5.4414,5.4136,5.3877,5.2508,5.1577,5.1032,5.1032,5.1032,5.107,5.1032,5.048,4.9888,4.9868,4.9228,4.879,4.963,4.8729,4.7625,4.775,4.667,4.5422,4.4776,4.4622,4.4591,4.4591,4.4086,4.3624,4.3624,4.3082,4.262,4.2588,4.2581,0.0,4.2444,4.241,4.241,4.2441,4.2995,4.2808,4.1371,4.1204,4.084,4.0087,3.87,3.8227,3.8937,3.7528,3.6411,3.5633,3.3467,3.1979,3.1268,0.0,0.0,0.0,0.0,0.0,0.0,0.0,0.0,0.0,0.0,0.0,0.0,0.0,0.0,0.0,0.0,0.0,0.0,0.0,0.0,0.0,4.4953,4.7854,4.8035,5.0674,5.294,5.3885,5.558,5.6738,5.6863,5.7366,5.7845,5.8244,5.8418,5.8602,5.8787,5.8818,5.8818,5.8818,5.8818,5.8726,5.8541,5.8541,5.8448,5.8264,5.8264,5.7986,5.7525,5.7525,5.7247,5.681,5.681,5.6662,5.6447,5.5923,5.5468,5.5084,5.4406,5.3827,5.3412,5.3203,5.2485,5.1538,5.0663,4.9882,4.9289,4.9289,4.973,5.0124,4.949,4.957,4.9769,4.9158,4.879,4.8646,4.8893,4.8296,4.7618,4.7643,4.6596,4.5545,4.5361,4.4929,4.4591,4.4591,4.4437,4.4314,4.4314,4.3759,4.3155,4.2656,4.2195,4.1676,4.1117,4.062,4.0522,4.1008,4.0766,4.0399,3.9968,4.0299,4.0007,3.8741,3.8189,3.7978,3.8193,3.6727,3.5814,3.56,3.3954,3.2983,0.0,0.0,0.0,0.0,0.0,0.0,0.0,0.0,0.0,0.0,0.0,0.0,0.0,0.0,0.0,0.0,0.0,0.0,0.0,0.0,0.0,0.0,4.9092,5.1979,5.285,5.388,5.5161,5.6792,5.774,5.8387,5.8756,5.9064,5.9218,5.9218,5.9495,5.9624,5.9624,5.9624,5.9624,5.9624,5.9624,5.9526,5.9218,5.9218,5.9095,5.8818,5.8818,5.8602,5.8202,5.7925,5.7586,5.7186,5.6909,5.681,5.6755,5.6324,5.5985,5.5561,0.0,0.0,0.0,0.0,5.2021,5.1005,5.0328,4.9651,4.9004,4.8676,4.8954,4.9249,4.8749,4.8954,4.9228,4.8749,4.8583,4.8583,4.8583,4.8307,4.7958,4.7681,4.7004,4.6265,4.573,4.5299,4.4929,4.4652,4.4591,0.0,4.4591,4.4283,4.379,4.3143,4.2448,4.1771,4.1045,4.0122,3.9767,4.0433,4.0164,3.9896,3.9836,4.0093,0.0,0.0,0.0,3.7753,3.7449,3.6569,0.0,0.0,0.0,0.0,0.0,3.5825,0.0,0.0,3.4709,3.4313,0.0,0.0,0.0,0.0,0.0,0.0,0.0,0.0,0.0,0.0,0.0,0.0,0.0,0.0,0.0,0.0,5.3157,5.5776,5.774,5.697,5.6847,5.8695,5.891,5.8941,5.9033,5.9562,5.9901,5.9901,6.0455,6.0794,6.0794,6.0794,0.0,0.0,0.0,6.0517,5.9901,5.9901,5.9593,5.9033,5.9033,5.9003,5.891,5.8294,5.7925,5.7771,5.7155,5.6847,5.681,5.681,5.6354,5.5561,5.4214,5.3691,5.3629,5.2953,5.2298,5.1621,5.1005,0.0,0.0,4.8943,4.8676,4.8583,4.8583,4.8583,4.8583,4.8583,4.8583,4.8583,4.8583,4.8583,4.843,4.7865,4.765,4.7281,4.608,4.573,4.5422,4.4837,4.4652,4.4591,4.4591,4.4591,4.4375,4.3716,4.3033,4.2355,4.1678,4.0368,3.9722,4.032,4.0339,0.0,4.0179,4.0144,4.0038,3.9874,3.8643,3.766,3.7054,3.7202,3.7596,3.8249,3.835,3.9365,4.1339,4.1339,4.1644,4.2198,3.7528,3.6468,0.0,0.0,0.0,0.0,0.0,0.0,0.0,0.0,0.0,0.0,0.0,0.0,0.0,0.0,0.0,5.1985,5.507,5.774,5.9193,5.9187,5.9162,5.9562,5.9593,5.9809,6.0363,6.0517,6.0609,6.0609,6.0732,6.0794,6.0794,6.0794,6.0794,6.0794,6.0794,6.0732,6.0609,6.0609,6.0547,6.0393,6.0393,0.0,5.9593,5.947,5.8818,5.7771,5.7648,5.7278,5.681,5.681,5.6354,5.5561,5.4214,5.3691,5.3629,5.2953,5.2298,5.1682,5.1559,5.0697,4.9672,4.9528,4.9097,4.8583,4.8583,4.8583,0.0,4.8583,4.8583,4.8583,4.8583,4.8583,4.8553,4.843,4.7989,4.7527,4.7281,4.6357,4.5576,4.5453,4.496,4.4591,4.4591,4.4591,4.4375,4.3716,4.3033,4.2355,4.1678,4.0368,3.9537,3.9691,3.9209,3.8889,3.8873,3.9298,3.9064,3.792,3.7975,3.8221,3.8553,3.9715,4.0426,4.0561,4.1136,4.1644,4.2097,4.2097,4.2164,4.23,4.1251,4.1048,0.0,0.0,0.0,0.0,0.0,0.0,0.0,0.0,0.0,0.0,0.0,4.5563,4.7321,0.0,5.3684,5.5454,5.7494,5.9157,6.0147,6.0301,6.0301,6.0301,6.0301,6.0424,6.0763,6.0794,6.0794,6.0794,6.0794,6.0794,6.0794,6.0794,6.0794,6.0794,6.0794,6.0794,6.0794,6.0794,6.0794,6.0794,6.0794,6.0609,6.027,5.9932,5.9408,5.8787,5.8448,5.7925,5.7278,5.6964,5.657,5.6139,5.5099,5.4276,5.366,5.3322,5.2768,5.2144,5.1836,5.1251,5.0574,4.9918,4.9435,4.9097,4.8706,4.8583,4.8583,4.8583,4.8583,4.8583,4.8583,4.8583,4.8583,4.8583,4.8337,4.8019,4.7681,4.6819,4.5988,4.5669,4.5053,4.4591,4.4591,4.4591,4.4498,4.4129,4.3544,4.2848,4.2202,4.0861,3.9999,3.9999,3.9414,3.9138,3.9476,4.0039,4.0089,3.9353,3.9863,4.0324,4.0629,4.1339,4.1745,4.1745,4.2117,4.2489,4.2861,4.2861,4.3064,4.345,4.345,4.3247,0.0,0.0,0.0,0.0,0.0,0.0,0.0,4.1876,4.3445,4.6192,4.8266,5.0389,5.3006,5.4699,5.6399,5.8633,5.9562,6.0178,6.0732,6.0794,6.0763,6.0609,6.0732,6.0794,6.0794,6.0794,6.0794,6.0794,6.0917,6.1009,6.1009,6.1009,6.1009,6.1009,6.0855,6.0794,6.0794,6.0794,6.0794,6.0794,6.0794,6.0794,6.0794,6.024,5.9901,5.9773,5.8972,5.8294,5.774,5.7087,5.681,5.6724,5.6139,5.5161,5.406,5.3783,5.3353,5.2799,5.2144,5.1805,5.1498,5.0266,4.9826,4.9558,4.882,4.8583,4.8583,4.8583,4.8583,4.8583,4.8583,4.8583,4.8583,4.8583,4.8583,4.843,4.7927,4.7157,4.6419,4.5915,4.5145,4.4591,4.4591,4.4591,4.4591,4.4591,4.4024,4.3359,4.2694,4.1507,4.0676,4.0522,4.003,3.9907,4.0443,4.0812,4.1058,4.1114,4.1638,4.197,4.2112,4.2368,4.2523,4.2523,4.2672,4.3031,4.3626,4.3626,4.3978,4.4615,4.4615,4.4262,3.6348,3.7732,3.9677,4.2189,4.2866,4.4806,0.0,5.199,5.1221,5.3899,5.5646,5.6601,5.6385,5.7925,5.9316,5.9624,6.024,6.0701,6.0794,6.0794,6.0578,5.9963,6.0424,6.0794,6.0794,6.0794,6.0794,6.0794,6.1348,6.1686,6.1686,6.1686,6.1686,6.1686,6.1101,6.0794,6.0794,6.0794,6.0794,6.0794,6.0794,6.0794,6.0794,6.0732,6.0363,5.9716,5.8448,5.7863,5.774,5.7087,5.681,5.681,5.6717,5.62,5.5315,5.4122,5.366,5.3476,5.2799,5.2206,5.159,5.082,5.0195,4.9558,4.882,4.8583,4.8583,4.8583,4.8583,4.8583,4.8583,4.8583,4.8583,4.8583,4.8583,4.8583,4.8491,4.7496,4.6573,4.648,4.5484,4.4591,4.4591,4.4591,4.4591,4.4591,4.4024,4.3359,4.2694,4.1955,4.1247,4.0584,4.0413,4.043,4.0474,4.0012,3.993,4.0468,4.0559,4.0856,4.1384,4.2609,4.3288,4.3288,4.3992,4.4364,4.4465,4.4465,4.4499,4.4615,4.4615,4.4533,4.2377,4.3439,4.4387,4.7527,4.9189,5.0944,5.4337,5.4884,5.5215,5.7124,5.8294,5.9003,5.9126,5.9834,6.0363,6.0363,6.0609,6.0794,6.0794,6.0455,5.9963,5.9311,5.9465,5.9778,6.0178,6.0578,6.0794,6.0794,6.144,6.1809,6.1809,6.2152,6.2368,6.2368,6.1748,6.1379,6.1379,6.1009,6.0794,6.0794,6.0794,6.0794,6.0794,6.0794,6.0562,6.0069,5.8896,5.8287,5.807,5.7168,5.681,5.681,5.681,5.6601,5.617,5.4768,5.4029,5.3599,5.2922,5.2513,5.2113,5.1036,5.0513,5.0051,4.8922,4.8583,4.8583,4.8583,4.8583,4.8583,4.8583,4.8583,4.8583,4.8583,4.8583,4.8583,4.8583,4.7865,4.7065,4.6665,4.5834,4.5053,4.4652,4.4591,4.4591,4.4591,4.4344,4.3944,4.3267,4.2602,4.1753,4.0597,4.0505,4.0505,4.0505,4.0606,4.077,4.1018,4.1404,4.1738,4.1995,4.2943,4.3476,4.3476,4.4215,4.4615,4.4615,4.4615,4.4615,4.4615,4.4615,4.4838,4.5473,4.7138,4.8634,5.1537,5.3929,5.5629,5.6029,5.6884,5.7956,5.9126,5.9588,5.9932,6.0424,6.0363,6.0301,6.0486,6.0517,6.0578,6.0763,6.0055,5.9316,5.8879,5.8633,5.8726,5.9218,6.0024,6.0609,6.0794,6.1594,6.2086,6.2086,6.2706,6.3075,6.3075,6.2271,6.1809,6.1809,6.1132,6.0768,6.069,6.069,6.0638,6.056,6.056,6.0455,6.0237,5.9359,5.8745,5.8318,5.7457,5.6994,5.681,5.681,5.681,5.6631,5.5199,5.4399,5.3876,5.3199,5.2829,5.2483,5.1128,5.0697,5.0451,4.9014,4.8583,4.8583,4.8583,4.8583,4.8583,4.8583,4.8583,4.8583,4.8583,4.8583,4.8583,4.8583,4.806,4.7404,4.6726,4.6049,4.5391,4.4714,4.4591,4.4591,4.4591,4.4591,4.4344,4.3685,4.2848,4.1937,4.0922,4.0597,4.0505,4.0505,4.0939,4.121,4.121,4.1836,4.2221,4.2221,4.2877,4.3302,4.3514,4.4016,4.4398,4.4615,4.4615,4.4615,4.4615,4.4615,4.5007,4.364,4.7272,5.1631,5.3246,5.5684,5.8048,5.9372,5.9686,5.9901,6.0609,6.024,5.9834,5.9809,5.9311,5.9095,5.9716,5.9809,6.0055,6.0701,5.9655,5.8818,5.8818,5.8233,5.7832,5.7863,5.9064,6.0086,6.0763,6.2025,6.2768,6.2768,6.3414,6.3783,6.3783,6.2491,6.1809,6.1809,6.1132,6.0664,6.0403,6.0403,6.0302,6.0043,6.0043,6.0043,5.9982,5.9596,5.8996,5.8379,5.7949,5.7371,5.681,5.681,5.681,5.6631,5.5199,5.4706,5.4583,5.3906,5.3229,5.2483,5.1128,5.0697,5.0451,4.9014,4.8583,4.8583,4.8583,4.8583,4.8583,4.8583,4.8583,4.8583,4.8583,4.8583,4.8583,4.8583,4.806,4.7404,4.6726,4.6049,4.5391,4.4714,4.4591,4.4591,4.4591,4.4591,4.4344,4.3685,4.2466,4.1617,4.1586,4.0922,4.0505,4.0505,4.0539,4.0509,4.0509,4.1175,4.1542,4.1542,4.2173,4.2846,4.3481,4.351,4.39,4.4615,4.4615,4.4615,4.4615,4.4615,4.5007,4.8137,5.0976,5.3493,5.5384,5.7325,5.9093,5.9982,5.9988,5.9716,5.9526,5.8602,5.7648,5.7186,5.6915,5.7131,5.8294,5.9218,6.0024,6.0701,6.0794,6.0116,5.8356,5.8726,5.8602,5.7247,5.8356,5.9434,6.0086,6.1379,6.2333,6.2768,6.3903,6.4549,6.4549,6.3435,6.2649,6.2219,6.1332,6.0624,6.0118,6.0118,6.0092,6.0016,6.0016,5.988,5.9633,5.9257,5.8858,5.8399,5.7734,5.7228,5.6854,5.6818,5.6689,5.6506,5.619,5.5499,5.4553,5.3414,5.2891,5.2553,5.1652,5.1067,5.0513,4.962,4.9004,4.8583,4.8583,4.8583,4.8583,4.8583,4.8583,4.8583,4.8583,4.8583,4.8583,4.8583,4.8399,4.8081,4.7404,4.6726,4.6049,4.5391,4.4899,4.4591,4.4591,4.4591,4.4344,4.3685,4.3223,4.2774,4.2325,4.1648,4.1247,4.1247,4.0768,4.0505,4.0505,4.0715,4.0851,4.0851,4.1476,4.2157,4.2831,4.3272,4.3871,4.4615,4.4615,4.4615,4.4601,4.5108,4.5703,5.2006,5.4207,5.5714,5.7814,5.9149,5.9914,5.991,5.949,5.8935,5.8114,5.648,5.509,5.4699,5.4237,5.4583,5.6724,5.8202,5.9562,6.0948,6.1132,6.0609,5.9403,5.9372,5.9126,5.8325,5.8787,5.9341,5.9773,6.1502,6.2583,6.2768,6.4149,6.486,6.4749,6.385,6.304,6.2259,6.1372,6.0543,5.9827,5.972,5.9667,5.9667,5.9667,5.9586,5.9339,5.9183,5.8878,5.8444,5.7821,5.7289,5.6884,5.6617,5.6421,5.6244,5.6139,5.547,5.4436,5.3668,5.3106,5.2606,5.1929,5.1251,5.0574,4.9918,4.9189,4.8583,4.8583,4.8583,4.8583,4.8583,4.8583,4.8583,4.8583,4.8583,4.8583,4.8583,4.8583,4.8399,4.7742,4.725,4.6665,4.5761,4.5053,4.4591,4.4591,4.4591,4.4437,4.4006,4.3747,4.3421,4.3002,4.2355,4.1955,4.1955,4.1291,4.0891,4.0891,4.0645,4.0505,4.0505,4.0905,4.1459,4.2125,4.2567,4.3154,4.3841,4.4107,4.4207,4.4241,4.5231,4.6109,5.4934,5.6696,5.8252,6.0338,6.0816,6.0448,5.9197,5.8372,5.7532,5.6323,5.395,5.2091,5.22,5.1313,5.1621,5.4945,5.6816,5.8787,6.144,6.0794,6.0486,6.1656,6.0178,5.9501,6.0675,6.0275,5.9937,5.9875,6.2218,6.3418,6.2833,6.4094,6.4721,6.4382,6.3743,6.2933,6.1962,6.1207,6.0348,5.9476,5.9207,5.9099,5.9099,5.9099,5.9099,5.9099,5.9369,5.9115,5.8508,5.8127,5.7532,5.6839,5.6222,5.6003,5.5888,5.522,5.4666,5.4324,5.4589,5.3791,5.2583,5.1937,5.1282,5.0574,4.9928,4.922,4.8583,4.8583,4.8583,4.8583,4.8583,4.8583,4.8583,4.8583,4.8583,4.8583,4.8583,4.8583,4.8399,4.7773,4.7619,4.7127,4.5823,4.5053,4.4591,4.4591,4.4591,4.4591,4.4591,4.4036,4.3655,4.3655,4.3033,4.2663,4.2663,4.2048,4.1648,4.1586,4.0953,4.0536,4.0505,4.0505,4.0834,4.1555,4.1509,4.1852,4.257,4.3169,4.3469,4.355,4.5033,4.6099,5.6723,5.8428,5.9594,6.0186,5.9747,5.8972,5.8122,5.6945,5.5182,5.2307,5.0179,4.8142,4.6067,4.718,4.9343,5.2236,5.5992,5.9311,6.1502,6.2856,6.3164,6.1963,6.224,6.1981,6.0635,6.1706,6.1963,6.0715,6.1455,6.2272,6.282,6.3731,6.419,6.4104,6.3698,6.2863,6.1629,6.0265,5.9441,5.9207,5.9126,5.9099,5.9099,5.9099,5.9099,5.9099,5.918,5.9117,5.8877,5.7996,5.7394,5.6994,5.6254,5.588,5.57,5.5717,5.5025,5.4094,5.4142,5.3514,5.2622,5.2281,5.1497,5.0667,5.0482,4.9589,4.8583,4.8583,4.8583,4.8583,4.8583,4.8583,4.8583,4.8583,4.8583,4.8583,4.8583,4.8583,4.8553,4.8368,4.7558,4.6573,4.5741,4.5053,4.4591,4.4591,4.4591,4.4591,4.4591,4.4437,4.4344,4.4344,4.3728,4.3359,4.3359,4.2725,4.214,4.1648,4.1432,4.1076,4.0505,4.0505,4.1083,4.2313,4.1793,4.2107,4.3331,4.2936,4.3047,4.36,4.5088,4.6144,5.9219,6.0416,6.0894,6.0595,5.9447,5.7839,5.5701,5.3947,5.1721,4.8128,4.5979,4.4327,4.2824,4.4361,4.6962,5.0266,5.4545,5.8454,6.1409,6.3071,6.3779,6.3225,6.3456,6.3231,6.2242,6.2778,6.2859,6.2072,6.2348,6.2671,6.2872,6.3598,6.3936,6.3795,6.3624,6.279,6.1355,5.9839,5.9099,5.9099,5.9099,5.9099,5.9099,5.9099,5.9099,5.9099,5.9099,5.9099,5.9009,5.7821,5.7225,5.7,5.6043,5.5556,5.5431,5.5581,5.486,5.3808,5.3688,5.3165,5.2518,5.2352,5.1575,5.0697,5.0697,4.9712,4.8583,4.8583,4.8583,4.8583,4.8583,4.8583,4.8583,4.8583,4.8583,4.8583,4.8583,4.8583,4.8583,4.8583,4.7527,4.648,4.608,4.5237,4.4591,4.4591,4.4591,4.4591,4.4591,4.4591,4.4591,4.4591,4.4252,4.4036,4.4036,4.3421,4.2897,4.2497,4.2202,4.1845,4.1445,4.1414,4.1793,4.2587,4.2181,4.2388,4.3159,4.3033,4.3214,4.3647,4.5082,4.5962,6.1583,6.2032,6.1822,6.1134,5.9338,5.6705,5.2839,5.0432,4.7903,4.4031,4.1943,4.0799,4.0747,4.2078,4.456,4.8748,5.2737,5.6829,6.1194,6.2394,6.3291,6.4678,6.4058,6.3712,6.4209,6.35,6.3101,6.3421,6.3738,6.3607,6.2973,6.3546,6.3766,6.3453,6.3272,6.2527,6.1106,5.9787,5.9099,5.9099,5.9099,5.9099,5.9099,5.9099,5.9099,5.9099,5.9099,5.9099,5.9009,5.7663,5.7094,5.6974,5.5688,5.5179,5.5179,5.5179,5.449,5.3495,5.3271,5.2782,5.2261,5.2261,5.1531,5.0654,5.0697,4.967,4.8521,4.8563,4.8563,4.8563,4.8583,4.8583,4.8583,4.8583,4.8583,4.8583,4.8583,4.8583,4.8583,4.8583,4.7588,4.6696,4.6603,4.5576,4.4683,4.4622,4.4591,4.4591,4.4591,4.4591,4.4591,4.4591,4.4591,4.4591,4.4591,4.4086,4.3667,4.3624,4.3033,4.2694,4.2602,4.2602,4.2633,4.2725,4.2663,4.2633,4.2725,4.3229,4.3514,4.3626,4.496,4.5605,6.1702,6.1702,6.1134,6.0446,5.7962,5.484,5.1536,4.8492,4.5122,4.068,3.9251,3.8291,3.661,3.89,4.2553,4.7219,5.0922,5.5229,6.1009,6.2394,6.321,6.434,6.4346,6.4064,6.3708,6.3503,6.3331,6.3194,6.3223,6.3192,6.3072,6.3192,6.3223,6.3165,6.2087,6.1371,6.1076,5.9787,5.9099,5.9099,5.9099,5.9099,5.9099,5.9099,5.9099,5.9099,5.9099,5.9099,5.9009,5.7663,5.7094,5.6974,5.5688,5.5179,5.5179,5.5179,5.4391,5.3247,5.3223,5.2718,5.204,5.204,5.1286,5.0428,5.0632,4.9478,4.8175,4.85,4.8459,4.8406,4.8542,4.8583,4.8583,4.8583,4.8583,4.8583,4.8583,4.8583,4.8583,4.8583,4.7958,4.725,4.6696,4.5926,4.5237,4.4683,4.4591,4.4591,4.4591,4.4591,4.4591,4.4591,4.4591,4.4591,4.4591,4.4498,4.419,4.3655,4.3501,4.3174,4.2614,4.2602,4.2848,4.3421,4.2879,4.2879,4.3421,4.2975,4.3079,4.361,4.448,4.5094,6.1224,6.1104,6.0416,5.9757,5.7124,5.3582,4.9411,4.6007,4.2429,3.7922,3.6639,3.6122,3.5477,3.7582,4.0676,4.4387,4.7558,5.1652,5.7777,5.9532,6.1172,6.3773,6.417,6.4075,6.3795,6.3481,6.3252,6.3108,6.2438,6.2351,6.3079,6.3108,6.2958,6.2599,6.1613,6.0954,6.0565,5.9608,5.9099,5.9099,5.9099,5.9099,5.9099,5.9099,5.9099,5.9099,5.9099,5.8919,5.8504,5.7513,5.6915,5.6551,5.5568,5.5179,5.5179,5.5179,5.4341,5.3198,5.3198,5.2569,5.1787,5.1787,5.1341,5.0747,5.042,4.9495,4.8505,4.8456,4.8355,4.8364,4.8542,4.8583,4.8583,4.8583,4.8583,4.8583,4.8583,4.8583,4.8583,4.8583,4.806,4.7496,4.7188,4.6265,4.5484,4.5176,4.4806,4.4591,4.4591,4.4591,4.4591,4.4591,4.4591,4.4591,4.4591,4.4591,4.4468,4.4129,4.4129,4.3975,4.3648,4.3618,4.379,4.4098,4.3821,4.379,4.4129,4.379,4.3821,4.4117,4.4489,4.4719,6.0535,6.0561,6.0016,5.918,5.6535,5.2822,4.7666,4.3892,4.0254,3.5951,3.4618,3.443,3.5168,3.6692,3.8908,4.2061,4.4479,4.8173,5.4576,5.6816,5.9199,6.2944,6.3756,6.3965,6.3823,6.3395,6.3108,6.3108,6.1851,6.1554,6.2614,6.2814,6.263,6.2121,6.1313,6.0625,6.0114,5.9428,5.9099,5.9099,5.9099,5.9099,5.9099,5.9099,5.9099,5.9099,5.8949,5.859,5.8025,5.7244,5.6641,5.6132,5.5474,5.5179,5.5179,5.5029,5.4221,5.3169,5.3049,5.2377,5.1572,5.1526,5.1349,5.0997,5.0225,4.9499,4.8823,4.8422,4.8301,4.8364,4.8542,4.8583,4.8583,4.8583,4.8583,4.8583,4.8583,4.8583,4.8583,4.8583,4.8153,4.7773,4.7619,4.6603,4.5761,4.5638,4.5022,4.4591,4.4591,4.4591,4.4591,4.4591,4.4591,4.4591,4.4591,4.4591,4.4591,4.4591,4.4591,4.4591,4.4591,4.4591,4.4591,4.4591,4.4591,4.4591,4.4591,4.4591,4.4591,4.4591,4.4591,4.4458,5.9817,6.0309,6.0169,5.8877,5.628,5.2646,4.7412,4.3092,3.9125,3.5354,3.3897,3.3578,3.4445,3.5229,3.7262,4.1863,4.3328,4.6438,5.3753,5.6515,5.8863,6.1734,6.3201,6.3795,6.3252,6.3137,6.3108,6.3108,6.1851,6.1137,6.1286,6.1876,6.2151,6.2091,6.0864,6.0146,6.0114,5.9428,5.9099,5.9099,5.9099,5.9099,5.9099,5.9099,5.9099,5.9069,5.8444,5.8145,5.7995,5.6791,5.6252,5.6132,5.5474,5.5179,5.5119,5.4521,5.3832,5.3109,5.2486,5.1993,5.1549,5.1323,5.0989,5.06,5.0144,4.9359,4.8576,4.8358,4.8301,4.8364,4.8542,4.8583,4.8583,4.8583,4.8583,4.8583,4.8583,4.8583,4.8583,4.8583,4.8553,4.8307,4.7711,4.7004,4.6296,4.5699,4.5022,4.4591,4.4591,4.4591,4.4591,4.4591,4.4591,4.4591,4.4591,4.4591,4.4591,4.4591,4.4591,4.4591,4.4591,4.4591,4.4591,4.4591,4.4591,4.4591,4.4591,4.4591,4.4591,4.4591,4.4591,4.4381,5.7363,5.8204,5.8174,5.7037,5.4605,5.125,4.6436,4.2332,3.8574,3.5184,3.3554,3.3081,3.4275,3.472,3.5907,3.9031,3.9739,4.1766,4.7088,5.0027,5.3316,5.7816,6.0229,6.2009,6.3215,6.2468,6.1554,6.0747,6.0202,5.9725,5.9385,5.961,5.9418,5.8696,5.8148,5.8028,5.8353,5.8088,5.8331,5.9099,5.9099,5.9099,5.9099,5.8683,5.8504,5.8444,5.7812,5.7304,5.6915,5.6402,5.5953,5.5593,5.5299,5.494,5.4581,5.4311,5.3533,5.2546,5.2276,5.1839,5.1316,5.1253,5.0827,5.0282,4.9734,4.9028,4.8388,4.8168,4.8007,4.7986,4.8459,4.8583,4.8583,4.8583,4.8583,4.8583,4.8583,4.8583,4.8583,4.8583,4.8583,4.8522,4.8245,4.7311,4.6511,4.6234,4.5299,4.4591,4.4591,4.4591,4.4591,4.4591,4.4591,4.4591,4.4591,4.4591,4.4591,4.4591,4.4591,4.4591,4.4591,4.4591,4.4591,4.4591,4.4591,4.4591,4.4591,4.4591,4.4534,4.44,4.44,4.422,5.4559,5.6027,5.6478,5.5384,5.3028,4.9849,4.5637,4.1553,3.7943,3.5262,3.3616,3.3135,3.4536,3.4813,3.5383,3.7215,3.7645,3.9207,4.337,4.6148,4.9659,5.4776,5.7221,5.9264,6.1415,6.0939,6.011,5.9158,5.8585,5.8004,5.7391,5.6827,5.6482,5.6398,5.6201,5.6301,5.6651,5.7018,5.7636,5.8552,5.8728,5.88,5.88,5.8085,5.7786,5.7782,5.7124,5.6611,5.6192,5.5983,5.5623,5.5179,5.5179,5.479,5.4192,5.3982,5.3174,5.2187,5.1977,5.1618,5.1159,5.0822,5.0188,4.9341,4.8568,4.8161,4.78,4.7159,4.6959,4.7046,4.7542,4.7925,4.8208,4.8208,4.8396,4.8583,4.8583,4.8583,4.8583,4.8583,4.8583,4.8583,4.8583,4.765,4.6819,4.6634,4.5638,4.4806,4.4622,4.4591,4.4591,4.4591,4.4591,4.4591,4.4591,4.4591,4.4591,4.4591,4.4591,4.4591,4.4591,4.4591,4.4591,4.4591,4.4591,4.4591,4.4591,4.4534,4.4419,4.4316,4.4258,4.4026,5.1708,5.4098,5.5675,5.4255,5.1795,4.8778,4.512,4.08,3.7075,3.5493,3.4235,3.3829,3.5229,3.5476,3.5937,3.7277,3.7947,3.9998,4.4891,4.7038,4.9539,5.3459,5.4603,5.5613,5.7044,5.8355,5.9127,5.9096,5.7319,5.602,5.5449,5.3598,5.3748,5.6311,5.575,5.5412,5.5441,5.6594,5.7187,5.7215,5.7816,5.8115,5.8085,5.7423,5.7094,5.7064,5.6462,5.6222,5.6162,5.5478,5.5209,5.5179,5.5179,5.479,5.4132,5.3468,5.2785,5.2097,5.1415,5.1206,5.1011,4.9979,4.8793,4.7606,4.6482,4.6594,4.6768,4.5103,4.5024,4.5411,4.5434,4.6307,4.7211,4.7211,4.7925,4.8583,4.8583,4.8583,4.8583,4.8583,4.8583,4.8583,4.8583,4.805,4.7373,4.6696,4.6018,4.5361,4.4683,4.4591,4.4591,4.4591,4.4591,4.4591,4.4591,4.4591,4.4591,4.4591,4.4591,4.4591,4.4591,4.4591,4.4591,4.4591,4.4591,4.4591,4.4591,4.4381,4.4316,4.4316,4.4104,4.389,4.6162,4.7431,4.7955,4.6863,4.5472,4.3621,4.071,3.8374,3.6292,3.4371,3.3308,3.2998,3.3891,3.4044,3.5122,3.8338,3.9012,4.023,4.3365,4.6188,4.879,5.1101,5.518,5.7628,5.7151,5.7106,5.7111,5.7111,5.5354,5.441,5.4766,5.3328,5.2686,5.3106,5.2918,5.3238,5.4084,5.4501,5.5333,5.6578,5.679,5.7067,5.7393,5.6765,5.6492,5.6462,5.5803,5.5534,5.5504,5.5269,5.491,5.4521,5.4521,5.3832,5.2815,5.2576,5.2097,5.1475,5.1265,5.1206,5.0975,4.9501,4.8492,4.7402,4.5177,4.4861,4.5096,4.4787,4.5001,4.5389,4.5389,4.5824,4.6248,4.6248,4.6469,4.6689,4.6689,4.6689,4.6886,4.7521,4.7649,4.784,4.848,4.803,4.7373,4.6696,4.6038,4.5361,4.4683,4.4591,4.4591,4.4591,4.4591,4.4591,4.4591,4.4591,4.4591,4.4591,4.4591,4.4591,4.4591,4.4591,4.4591,4.4591,4.4591,4.4515,4.4381,4.4324,4.4162,4.389,4.3655,4.3488,4.1669,4.3119,4.3496,4.2668,4.1516,4.0126,3.8208,3.6504,3.5015,3.3941,3.3202,3.2998,3.3689,3.4014,3.5029,3.7584,3.8596,4.0046,4.2823,4.5233,4.7427,4.9434,5.355,5.582,5.4812,5.498,5.5141,5.5141,5.3862,5.326,5.3722,5.2754,5.1988,5.1596,5.1596,5.1975,5.278,5.3025,5.374,5.4913,5.4936,5.5358,5.6074,5.5423,5.5363,5.5803,5.5359,5.5179,0.0,5.491,5.4581,5.4167,5.3922,5.3144,5.2187,5.2187,5.153,5.0609,5.0609,5.034,4.9713,4.8105,4.67,4.5327,4.3429,4.2996,4.3201,4.3368,4.3701,4.4003,4.4003,4.454,4.507,4.507,4.5463,4.5801,4.5801,4.5801,4.5981,4.6557,4.6667,4.6864,4.7426,4.7202,4.6698,4.6036,4.5373,4.483,4.448,4.3962,4.3869,4.4534,4.4324,4.4101,4.4101,4.4419,4.4591,4.4591,4.4591,4.4591,4.4591,4.4591,4.4591,4.4591,4.4515,4.4419,4.4316,4.4162,4.389,4.3557,4.3369,4.329,0.0,4.0373,4.1339,4.0728,3.9355,3.7889,3.7069,3.5063,0.0,3.3977,3.3666,3.3583,3.4474,3.5014,3.5506,3.5999,3.7438,3.9742,4.3284,4.4536,4.6077,4.8815,5.0584,5.1403,5.1009,5.2406,5.3347,5.3347,5.2772,5.2433,5.2433,5.191,5.157,5.1544,5.1544,5.1544,5.1544,5.2108,5.2444,5.2479,5.2544,5.3124,5.4175,5.3648,5.3964,5.4976,5.5128,5.5099,5.4958,5.4411,5.4162,5.4012,5.3354,5.2725,5.2127,5.2127,5.1063,4.9586,4.9586,4.8865,4.7645,4.5944,4.3899,4.2029,4.1481,4.1299,4.1299,4.1324,4.1498,4.1721,4.1746,4.2771,4.3819,4.3819,4.4753,4.5598,4.5598,4.5598,4.5598,4.5689,4.5689,4.5711,4.5779,4.5801,4.5547,4.4828,4.4269,4.3929,4.4043,4.2849,4.2609,4.4216,4.3693,4.322,4.322,4.4062,4.4553,4.4419,4.4477,4.4477,4.4419,4.4458,4.4477,4.4477,4.4354,4.4208,4.4151,4.3832,4.3518,4.321,4.327,4.329,3.2918,0.0,3.4529,3.4495,3.448,3.4297,0.0,3.3462,3.3291,3.2894,3.2724,3.3336,3.5629,3.486,3.5629,4.0851,4.0819,4.1424,4.5128,4.7323,4.9498,5.2084,5.2704,5.2902,5.2804,5.2746,5.272,5.272,5.2145,5.1805,5.1805,5.1675,5.1413,5.0995,5.0969,5.0969,5.0969,5.0672,5.0774,5.1229,5.1218,5.1626,5.2362,5.3076,5.3097,5.2619,5.4406,5.437,5.31,5.3872,5.3593,5.2665,5.2486,5.2037,5.1415,5.1415,5.0655,4.9586,4.9586,4.8579,4.697,4.4899,4.299,4.1507,4.1325,4.1299,4.1349,4.1547,4.1647,4.1796,4.2217,4.2557,4.2898,4.3091,4.3352,4.359,4.359,4.359,4.3804,4.4522,4.4661,4.4915,4.5666,4.5801,4.5424,4.4269,4.3979,4.3571,4.2643,4.2216,4.217,4.2548,4.2426,4.2304,4.2304,4.3732,4.4024,4.269,4.323,4.3319,4.2629,4.3101,4.3379,4.3379,4.3665,4.3488,4.277,4.318,4.303,4.2333,4.301,4.329,3.0725,3.2081,3.3343,3.3722,3.4048,3.4172,3.3891,3.3381,3.2844,3.2475,3.2628,3.3291,3.4725,3.5324,3.6826,4.0558,4.1674,4.337,4.7062,4.894,5.0642,5.262,5.2697,5.2563,5.2563,5.2276,5.2093,5.2093,5.1779,5.1596,5.1596,5.1361,5.11,5.0812,5.0289,5.0132,5.0368,4.9819,4.9706,5.0009,4.9743,5.0055,5.0906,5.2081,5.2269,5.181,5.3851,5.3862,5.2452,5.3035,5.2845,5.2187,5.1858,5.1505,5.1129,5.0656,4.9606,4.8366,4.7872,4.6459,4.4656,4.3458,4.2272,4.1299,4.1299,4.1299,4.1349,4.1473,4.1522,4.1597,4.2018,4.2117,4.2215,4.2633,4.2731,4.2755,4.2876,4.2925,4.3043,4.3566,4.3658,4.3823,4.4387,4.4227,4.3832,4.3133,4.2564,4.2097,4.1803,4.1192,4.1078,4.1922,4.1624,4.1373,4.1373,4.2629,4.2991,4.2038,4.2426,4.2447,4.1823,4.2152,4.2255,4.205,4.2275,4.2111,4.1532,4.1864,4.1831,4.1394,4.1852,4.2079,3.054,3.2875,3.4983,3.5137,3.5414,3.5599,3.5383,3.3967,3.2735,3.2735,3.3183,3.3724,3.4177,3.6297,3.8297,3.9243,4.1991,4.5211,4.8587,4.9608,5.0557,5.1949,5.1783,5.1596,5.1596,5.1596,5.157,5.1465,5.1465,5.1439,5.1335,5.0917,5.0629,5.0524,4.9584,4.927,4.9636,4.9195,4.8956,4.896,4.8433,4.8645,4.9539,5.074,5.1179,5.1012,5.2961,5.3074,5.1873,5.2126,5.2127,5.2007,5.1415,5.1206,5.1058,4.9911,4.8456,4.6914,4.5491,4.377,4.216,4.2081,4.1716,4.1299,4.1299,4.1299,4.1299,4.1299,4.1299,4.1374,4.1672,4.1771,4.1895,4.2438,4.256,4.2633,4.2852,4.2925,4.2925,4.2925,4.2925,4.2846,4.2765,4.2331,4.1951,4.1761,4.0838,4.0426,4.1095,4.0079,3.9881,4.1415,4.0859,4.0389,4.0389,4.1141,4.1582,4.1582,4.1707,4.1665,4.1386,4.1365,4.119,4.0845,4.0845,4.0703,4.041,4.0539,4.0539,4.041,4.0539,4.0603,3.2136,3.4937,3.6507,3.4291,3.5029,3.6061,3.489,3.4412,3.4197,3.4197,3.4258,3.5323,3.8533,3.7914,3.8607,4.3662,4.5069,4.6295,4.8464,4.9068,4.9973,5.1879,5.1783,5.1596,5.1596,5.1596,5.1413,5.0943,5.0917,5.0681,5.0185,5.008,4.9819,4.9404,4.9195,4.8878,4.8489,4.8384,4.8358,4.8358,4.8224,4.8024,4.7727,4.8972,4.8675,4.7469,5.0618,5.1023,4.9589,5.1449,5.1887,5.1325,5.1236,5.1206,5.0999,4.9432,4.8108,4.6675,4.3734,4.2496,4.2107,4.1611,4.1402,4.1299,4.1299,4.1299,4.1299,4.1299,4.1299,4.1398,4.1919,4.2016,4.219,4.2704,4.2852,4.2852,4.29,4.2925,4.2925,4.2925,4.2925,4.2738,4.2222,4.2059,4.1652,4.0644,4.0296,4.0065,3.9709,3.9435,3.9402,3.9689,3.9601,3.9513,3.9513,3.9645,3.9706,3.9706,4.0417,4.0625,4.025,4.0229,4.0352,4.0646,4.0667,4.0232,3.9431,4.0216,4.0195,3.9431,4.0238,4.0603,3.1168,3.3798,3.5845,3.5645,3.8001,4.0095,3.9109,3.8292,3.7646,3.7277,3.7492,3.8225,3.9756,4.0649,4.2416,4.6431,4.7538,4.8141,4.8807,4.8755,4.9232,5.0982,5.0896,5.0681,5.0681,5.0681,5.0577,5.0315,5.0315,5.0185,4.9897,4.961,4.9348,4.9117,4.8773,4.8489,4.8201,4.7885,4.7885,4.8201,4.7885,4.7568,4.731,4.8209,4.7831,4.6644,4.9144,4.9329,4.8113,5.0018,5.0262,4.9582,5.0751,5.0301,4.8726,4.6785,4.5373,4.4192,4.2357,4.1716,4.1664,4.1402,4.1299,4.1299,4.1299,4.1299,4.1299,4.1299,4.1299,4.1398,4.1969,4.1993,4.2067,4.2728,4.2803,4.2731,4.2876,4.2925,4.2925,4.2925,4.2629,4.2331,4.2059,4.1462,4.0838,4.0268,3.9916,3.9617,3.9346,3.9292,3.9292,3.9292,3.9292,3.9292,3.9292,3.9292,3.9292,3.9292,3.9441,3.9441,3.9247,3.9007,3.8957,3.9153,3.9153,3.893,3.8481,3.893,3.893,3.8481,3.8769,3.8926,3.043,3.2752,3.5213,3.7246,4.0095,4.2466,4.2756,4.163,4.0553,4.0676,4.1107,4.1286,4.0746,4.3127,4.5718,4.7228,4.8701,4.9536,4.9129,4.87,4.8891,5.0123,5.0048,4.9897,4.9897,4.9897,4.9845,4.9714,4.9688,4.9636,4.9505,4.9087,4.8878,4.8878,4.8303,4.7989,4.7989,4.7414,4.7414,4.7989,4.7414,4.7046,4.6917,4.7396,4.702,4.6168,4.772,4.7869,4.7131,4.8619,4.866,4.7969,4.9596,4.8644,4.6138,4.4412,4.304,4.1924,4.1455,4.1299,4.1299,4.1299,4.1299,4.1299,4.1299,4.1299,4.1299,4.1299,4.1349,4.1498,4.1993,4.1969,4.1993,4.2704,4.2755,4.2658,4.2876,4.2792,4.2683,4.2683,4.2195,4.1761,4.1598,4.0811,4.0155,3.9997,3.959,3.9292,3.9292,3.9292,3.9292,3.9292,3.9292,3.9292,3.9292,3.9292,3.9292,3.9292,3.8962,3.8715,3.8602,3.8266,3.8015,3.79,3.79,3.79,3.79,3.79,3.7877,3.7808,3.7598,3.7459,3.1551,3.3813,3.5907,3.7923,3.8662,3.9677,4.2805,4.1955,4.1199,4.3728,4.4283,4.398,4.2971,4.4645,4.594,4.5156,4.7704,4.9609,4.915,4.9038,4.9274,4.9849,4.9927,4.9897,4.9897,4.9897,4.9688,4.9221,4.9169,4.8934,4.8329,4.8306,4.825,4.825,4.7702,4.7359,4.7359,4.6813,4.6839,4.7359,4.6813,4.6264,4.5714,4.577,4.543,4.4907,4.606,4.6533,4.6533,4.7638,4.7728,4.7172,4.732,4.6027,4.4021,4.384,4.2772,4.1376,4.1299,4.1299,4.1299,4.1299,4.1299,4.1299,4.1299,4.1299,4.1299,4.1299,4.1473,4.1746,4.2043,4.209,4.2215,4.2752,4.29,4.29,4.2925,4.2466,4.2059,4.2059,4.1598,4.0978,4.0427,4.0264,3.9997,3.9454,3.9319,3.9292,3.9292,3.9292,3.9292,3.9292,3.9292,3.9292,3.9292,3.9292,3.9292,3.9292,3.9269,3.9051,3.8625,3.8557,3.833,3.79,3.79,3.79,3.79,3.79,3.7785,3.7528,3.7505,3.7366,3.0153,3.3275,3.6523,3.8108,4.0108,4.222,4.4375,4.5557,4.6424,4.7168,4.7901,4.7904,4.6365,4.7227,4.7841,4.6726,4.8408,4.9554,4.8671,4.8538,4.862,4.8829,4.8826,4.8826,4.8826,4.8826,4.8777,4.8567,4.8198,4.7856,4.7647,4.731,4.7155,4.7155,4.6917,4.6813,4.6813,4.6238,4.6027,4.6236,4.6055,4.5818,4.5583,4.5217,4.493,4.4722,4.5154,4.513,4.4943,4.5985,4.5682,4.4527,4.4175,4.3972,4.3687,4.2644,4.1831,4.1299,4.1299,4.1299,4.1299,4.1299,4.1299,4.1299,4.1299,4.1299,4.1249,4.0922,4.0871,4.1122,4.1919,4.2215,4.2387,4.2609,4.2779,4.2768,4.2193,4.2022,4.1896,4.1493,4.0947,4.0458,4.0237,3.9888,3.9563,3.9319,3.9292,3.9292,3.9292,3.9292,3.9292,3.9292,3.9292,3.9292,3.9292,3.9292,3.9292,3.9292,3.9136,3.8913,3.8602,3.8444,3.8217,3.79,3.79,3.79,3.79,3.79,3.7762,3.7505,3.7343,3.7108,2.983,3.2986,3.6538,3.8026,4.0874,4.379,4.5772,4.7835,4.9582,5.0351,5.0072,4.9366,4.8362,4.8266,4.8158,4.7578,4.8865,4.9529,4.8387,4.8201,4.812,4.7937,4.7911,4.7832,4.7704,4.7678,4.7678,4.7678,4.7283,4.7074,4.7074,4.6682,4.6501,4.6501,4.6316,4.6212,4.6212,4.5609,4.5322,4.5322,4.5322,4.5322,4.5296,4.4878,4.459,4.446,4.446,4.4147,4.3677,4.441,4.3934,4.2683,4.2108,4.2353,4.2873,4.173,4.1299,4.1299,4.1299,4.1299,4.1299,4.1299,4.1299,4.1324,4.1398,4.1249,4.0946,4.0465,4.0211,4.0262,4.0995,4.1645,4.2141,4.2242,4.2423,4.2445,4.1845,4.1562,4.13,4.0892,4.0323,3.9916,3.9916,3.9563,3.9292,3.9292,3.9292,3.9292,3.9292,3.9292,3.9292,3.9292,3.9292,3.921,3.9047,3.902,3.8939,3.8727,3.8546,3.8407,3.8331,3.8084,3.7836,3.7612,3.7612,3.7717,3.79,3.79,3.7716,3.739,3.6998,3.6667,3.1155,3.3255,3.5984,3.7757,4.0462,4.3537,4.688,4.8173,4.9599,5.2983,5.0425,4.7806,4.8636,4.7324,4.6364,4.7073,4.8796,4.9629,4.8366,4.8172,4.7963,4.7359,4.7307,4.7072,4.6554,4.6501,4.6501,4.6501,4.6501,4.6501,4.6501,4.6501,4.6475,4.6475,4.5924,4.5583,4.5583,4.4982,4.4695,4.4695,4.4695,4.4695,4.4695,4.4695,4.4408,4.3886,4.3886,4.3546,4.2997,4.2971,4.2657,4.2134,4.1533,4.1299,4.1299,4.1299,4.1299,4.1299,4.1299,4.1299,4.1299,4.1299,4.1299,4.1349,4.1597,4.1122,4.0415,4.0084,3.9597,3.9209,3.9184,4.0211,4.1347,4.1596,4.1834,4.1981,4.1954,4.1028,4.0187,4.0187,3.9699,3.9269,3.9269,3.9269,3.9269,3.9269,3.9269,3.9269,3.9269,3.9269,3.9292,3.9269,3.9292,3.9047,3.8456,3.8374,3.813,3.754,3.7485,3.7537,3.7687,3.7502,3.7257,3.7011,3.6985,3.7299,3.7874,3.7874,3.7621,3.7059,3.6542,3.6012,3.0601,3.4133,3.8255,3.9511,4.3603,4.7743,4.9393,5.0297,5.1344,5.3291,5.143,4.9265,4.8576,4.7652,4.6724,4.5848,4.6571,4.7187,4.7007,4.6998,4.6946,4.6761,4.6734,4.6656,4.6527,4.6501,4.6501,4.6501,4.6107,4.5872,4.5872,4.5452,4.5245,4.5245,4.506,4.4982,4.4982,4.4408,4.4121,4.4121,4.3729,4.3729,4.4121,4.4121,4.3807,4.3284,4.3284,4.2944,4.2421,4.1977,4.1691,4.1559,4.1376,4.1299,4.1299,4.1299,4.1299,4.1299,4.1299,4.1299,4.1299,4.1299,4.1299,4.1249,4.0946,4.0389,3.975,3.9311,3.879,3.8273,3.7884,3.8509,3.9373,3.9876,4.0589,4.0877,3.9888,3.9555,3.9298,3.8872,3.8224,3.775,3.775,3.775,3.775,3.775,3.775,3.775,3.775,3.8661,3.9091,3.8575,3.8603,3.8591,3.8429,3.8022,3.7696,3.7512,3.7187,3.7026,3.7057,3.7018,3.6779,3.6358,3.6384,3.6462,3.6645,3.6645,3.6378,3.5907,3.5728,3.5381,3.3459,3.6822,4.0537,4.2683,4.5933,4.9144,5.1054,5.2021,5.2655,5.3282,5.1791,5.0204,4.9601,4.8658,4.7645,4.6775,4.6919,4.7001,4.6563,4.6501,4.6423,4.6159,4.6133,4.6055,4.5794,4.5794,4.5794,4.5794,4.5426,4.5243,4.5243,4.4904,4.459,4.4382,4.4382,4.4278,4.4016,4.3702,4.352,4.352,4.318,4.3075,4.3232,4.3467,4.3232,4.2657,4.2422,4.216,4.1794,4.1455,4.1299,4.1299,4.1299,4.1299,4.1299,4.1299,4.1299,4.1299,4.1299,4.1299,4.1249,4.0769,4.0618,4.0491,3.9853,3.9162,3.855,3.8082,3.7517,3.6987,3.6651,3.6917,3.7507,3.8392,3.9156,3.9475,3.8605,3.8361,3.8217,3.7831,3.7381,3.7103,3.7103,3.7103,3.7103,3.7103,3.7103,3.708,3.7106,3.7681,3.7934,3.7482,3.7316,3.7265,3.7311,3.6962,3.673,3.6656,3.6398,3.6167,3.5998,3.613,3.6064,3.5783,3.5783,3.5887,3.6096,3.6009,3.5771,3.5398,3.5101,3.4756,3.7785,4.0104,4.2388,4.6344,4.7671,4.8881,5.199,5.3145,5.3453,5.3026,5.1709,5.0751,5.1101,4.9838,4.8705,4.8668,4.8606,4.8016,4.6545,4.6344,4.6133,4.5583,4.5531,4.5296,4.4747,4.4695,4.4669,4.4616,4.4616,4.459,4.4538,4.4538,4.4303,4.3834,4.3834,4.3546,4.2997,4.2945,4.2918,4.2918,4.2866,4.2605,4.2134,4.2683,4.2631,4.2081,4.1533,4.1299,4.1299,4.1299,4.1299,4.1299,4.1299,4.1299,4.1299,4.1299,4.1299,4.1299,4.1299,4.1299,4.1097,3.9981,3.9597,3.9416,3.8484,3.7698,3.7076,3.6749,3.6154,3.5589,3.5594,3.5596,3.588,3.7071,3.7609,3.7881,3.783,3.7394,3.6987,3.6987,3.6941,3.6894,3.6894,3.6894,3.6868,3.6817,3.6864,3.6887,3.6769,3.647,3.618,3.6112,3.5715,3.5435,3.5499,3.5458,3.5409,3.5358,3.5304,3.5168,3.4839,3.5115,3.5229,3.5208,3.5208,3.5469,3.594,3.5747,3.5506,3.5219,3.4536,3.4088,3.5091,3.7963,4.1468,4.6162,4.945,5.1805,5.2522,5.2633,5.2574,5.2467,5.2031,5.1393,5.0464,4.9112,4.7906,4.7058,4.6168,4.5473,4.5142,4.5087,4.5034,4.4904,4.4904,4.4852,4.4721,4.4695,4.4539,4.4121,4.4068,4.3859,4.3389,4.3363,4.331,4.3206,4.3206,4.3127,4.2997,4.2579,4.2369,4.2369,4.1899,4.1611,4.1507,4.2107,4.203,4.1507,4.1376,4.1299,4.1299,4.1299,4.1299,4.1299,4.1299,4.1299,4.1299,4.1299,4.1299,4.1299,4.1299,4.1299,4.1097,3.9981,3.9597,3.9315,3.7886,3.6992,3.6512,3.647,3.6046,3.5598,3.5604,3.5585,3.5564,3.5428,3.621,3.6866,3.6513,3.6338,3.6238,3.6238,3.5715,3.5283,3.5283,3.5283,3.5137,3.4722,3.519,3.5253,3.4253,3.5017,3.5459,3.4851,3.4819,3.4804,3.4805,3.437,3.4339,3.4833,3.4709,3.4729,3.5024,3.495,3.4816,3.458,3.458,3.4659,3.4763,3.4552,3.4319,3.4063,3.3747,3.3481,3.5381,3.8072,4.1052,4.6517,5.007,5.2253,5.2448,5.2397,5.2261,5.2177,5.1972,5.1433,5.0239,4.9727,4.9018,4.7434,4.666,4.6003,4.5209,4.4651,4.4225,4.3911,4.3885,4.3885,4.3885,4.3885,4.3754,4.3493,4.3467,4.3337,4.3023,4.2997,4.2866,4.2631,4.2605,4.2474,4.2187,4.1899,4.1768,4.1768,4.1455,4.1299,4.1299,4.1638,4.1611,4.1299,4.1299,4.1299,4.1299,4.1299,4.1299,4.1299,4.1299,4.1299,4.1299,4.1299,4.1299,4.1198,4.0668,4.0639,4.0506,3.8348,3.7995,3.8033,3.6192,3.5596,3.5596,3.5617,3.543,3.5219,3.523,3.5208,3.5135,3.4871,3.5308,3.5722,3.5477,3.5428,3.5428,3.5428,3.509,3.4799,3.4799,3.4583,3.4246,3.3742,3.402,3.4039,3.3402,3.3754,3.3918,3.3537,3.3311,3.3339,3.3665,3.3388,3.3471,3.4042,3.3742,3.3805,3.4397,3.41,3.4079,3.4397,3.4397,3.4397,3.4397,3.4063,3.3831,3.3704,3.3386,3.3197,3.5074,3.8114,4.1056,4.6505,4.9412,5.1044,5.1455,5.1432,5.1318,5.1171,5.1375,5.1209,5.002,5.0188,4.9818,4.7731,4.7253,4.6655,4.5243,4.4308,4.3546,4.3049,4.2997,4.2997,4.2997,4.2997,4.2945,4.2866,4.284,4.284,4.271,4.271,4.25,4.2055,4.2029,4.1794,4.1299,4.1299,4.1299,4.1299,4.1299,4.1299,4.1299,4.1299,4.1299,4.1299,4.1299,4.1299,4.1299,4.1299,4.1299,4.1299,4.1299,4.1299,4.1273,4.1168,4.1142,4.0966,3.9753,3.9599,3.9465,3.6391,3.5978,3.634,3.4491,3.4271,3.4692,3.4774,3.4791,3.4799,3.4799,3.4799,3.4799,3.4799,3.4799,3.4799,3.4799,3.4799,3.4799,3.4799,3.4727,3.4631,3.4607,3.4198,3.3741,3.3258,3.3163,3.3139,3.3043,3.2658,3.2346,3.2346,3.196,3.1913,3.2484,3.2528,3.2745,3.3236,3.2868,3.2972,3.381,3.3467,3.3636,3.4439,3.4418,3.4397,3.4397,3.3937,3.3704,3.3704,3.3304,3.309,2.8797,3.5004,4.1455,4.4451,4.6596,4.8045,4.8348,4.8044,4.7709,4.7662,4.9751,5.1066,4.9296,4.8238,4.7084,4.5361,4.4267,4.3597,4.3362,4.3206,4.3075,4.2997,4.2997,4.2997,4.2997,4.2997,4.2814,4.2343,4.2317,4.2056,4.1534,4.1508,4.1482,4.1428,4.1428,4.1402,4.1299,4.1299,4.1299,4.1299,4.1299,4.1299,4.1299,4.1299,4.1299,4.1299,4.1299,4.1299,4.1299,4.1299,4.1299,4.1299,4.1299,4.1299,4.1221,4.0698,4.0515,4.029,3.8738,3.8264,3.7941,3.5641,3.4996,3.4961,3.4211,3.4025,3.4217,3.4671,3.4798,3.4799,3.4799,3.4799,3.4799,3.4799,3.4799,3.4799,3.4799,3.4799,3.4799,3.4799,3.4414,3.4029,3.3806,3.3568,3.3281,3.2909,3.2723,3.2418,3.196,3.1839,3.1791,3.1791,3.1719,3.1739,3.1827,3.1825,3.2113,3.2766,3.272,3.3172,3.4272,3.4251,3.4377,3.4735,3.4501,3.4397,3.4397,3.3937,3.3704,3.3704,3.3304,3.309,2.8267,3.3748,3.9072,4.2723,4.4641,4.5965,4.7077,4.7047,4.6785,4.6785,4.7769,4.8182,4.6711,4.6557,4.6203,4.4809,4.4204,4.3766,4.3497,4.2937,4.2422,4.2083,4.2056,4.2056,4.2056,4.2056,4.1951,4.1716,4.169,4.1585,4.1299,4.1299,4.1299,4.1299,4.1299,4.1299,4.1299,4.1299,4.1299,4.1299,4.1299,4.1299,4.1299,4.1299,4.1299,4.1299,4.1299,4.1299,4.1273,4.0958,4.0776,4.075,4.0463,4.0332,4.0331,4.0069,3.9574,3.886,3.7518,3.6898,3.6306,3.4148,3.3862,3.4251,3.3713,3.3744,3.4098,3.4651,3.4799,3.4799,3.4799,3.4799,3.4799,3.4799,3.4799,3.4727,3.4438,3.4366,3.427,3.403,3.3789,3.3522,3.3197,3.2965,3.2795,3.2596,3.2368,3.2206,3.2118,3.1959,3.1871,3.1871,3.1761,3.1717,3.1717,3.1717,3.1827,3.2111,3.1847,3.2176,3.3261,3.2738,3.2735,3.3382,3.4209,3.4543,3.4397,3.3937,3.3704,3.3704,3.3304,3.309,2.7146,3.1134,3.4875,3.9305,4.1536,4.3133,4.4974,4.5296,4.5248,4.5316,4.5226,4.4863,4.3922,4.4801,4.525,4.3974,4.3746,4.3637,4.3206,4.2481,4.1794,4.1325,4.1299,4.1299,4.1299,4.1299,4.1299,4.1299,4.1299,4.1299,4.1299,4.1299,4.1299,4.1299,4.1299,4.1299,4.1299,4.1299,4.1299,4.1299,4.1299,4.1299,4.1273,4.1142,4.1064,4.1064,4.1064,4.1064,4.1012,4.0437,4.02,4.015,3.9782,3.9599,3.9551,3.9129,3.8496,3.7566,3.6053,3.529,3.4684,3.2801,3.2836,3.3549,3.3296,3.357,3.4114,3.4653,3.4799,3.4799,3.4799,3.4799,3.4775,3.4631,3.4607,3.4487,3.4078,3.391,3.3693,3.3257,3.3184,3.3083,3.2818,3.2611,3.2467,3.2471,3.2201,3.2116,3.2378,3.2181,3.2025,3.2069,3.1915,3.1783,3.1783,3.1739,3.1717,3.1717,3.1316,3.145,3.2266,3.1581,3.149,3.2168,3.342,3.3911,3.3594,3.3424,3.3318,3.3254,3.3154,3.3047,2.2623,2.5523,2.8599,3.2833,3.6014,3.8653,4.0584,4.1281,4.1552,4.1893,4.1949,4.1825,4.1528,4.2797,4.3382,4.1731,4.1478,4.1451,4.1425,4.1375,4.1325,4.1299,4.1299,4.1299,4.1299,4.1299,4.1299,4.1299,4.1299,4.1299,4.1299,4.1299,4.1299,4.1299,4.1299,4.1299,4.1299,4.1299,4.1299,4.1299,4.1299,4.1299,4.1273,4.0698,4.0437,4.0437,4.0437,4.0437,4.0385,3.9862,3.9627,3.9651,3.9625,3.9599,3.9427,3.7895,3.7283,3.6868,3.4253,3.3344,3.3147,3.2009,3.2012,3.2572,3.3047,3.357,3.4114,3.4653,3.4799,3.4799,3.4799,3.4799,3.4679,3.415,3.403,3.403,3.4006,3.3645,3.3233,3.2883,3.2831,3.2796,3.2717,3.2534,3.2468,3.2658,3.2288,3.2116,3.2378,3.2181,3.2116,3.2356,3.2135,3.1981,3.1981,3.1805,3.1717,3.1717,3.1673,3.1759,3.2023,3.1955,3.1931,3.1926,3.2013,3.1816,3.1378,3.204,3.2258,3.2086,3.2788,3.2961,2.1641,2.3707,2.6163,3.0201,3.2911,3.5041,3.705,3.8568,3.9733,4.0265,4.0634,4.0952,4.1246,4.178,4.2009,4.14,4.1299,4.1299,4.1299,4.1299,4.1299,4.1299,4.1299,4.1299,4.1299,4.1299,4.1299,4.1299,4.1299,4.1299,4.1299,4.1299,4.1299,4.1299,4.0907,4.0566,4.0226,4.0226,4.0226,4.0226,4.0226,4.0226,4.02,3.9991,3.9886,3.9862,3.9494,3.9547,3.986,3.9259,3.9,3.8998,3.8658,3.8077,3.7411,3.6827,3.5769,3.45,3.3544,3.275,3.2117,3.1732,3.171,3.199,3.2521,3.2845,3.3157,3.3643,3.403,3.4222,3.3933,3.4054,3.4174,3.3669,3.3308,3.3021,3.3021,3.2923,3.2679,3.235,3.2295,3.2355,3.264,3.2528,3.2531,3.2896,3.268,3.255,3.281,3.2615,3.2484,3.2571,3.2376,3.2269,3.2269,3.2179,3.2069,3.1893,3.1893,3.1717,3.1316,3.0981,3.0689,3.0373,3.0643,3.1334,3.2364,3.2324,3.2562,3.3082,3.3111,3.2961,2.0217,2.1721,2.3886,2.7727,2.9618,3.1371,3.4665,3.6279,3.7441,3.8762,3.9468,3.9993,4.062,4.0749,4.0829,4.1221,4.1299,4.1299,4.1299,4.1299,4.1299,4.1299,4.1299,4.1221,4.1012,4.101,4.0907,4.0724,4.0749,4.0749,4.0749,4.0749,4.0749,4.0749,4.0332,3.9941,3.9599,3.9599,3.9599,3.9599,3.9599,3.9599,3.9599,3.939,3.9311,3.9285,3.8684,3.8762,3.9259,3.8684,3.8449,3.835,3.7635,3.6945,3.6238,3.5523,3.4386,3.3151,3.2775,3.2193,3.1604,3.1604,3.1622,3.1743,3.2249,3.2432,3.2526,3.2694,3.2982,3.3126,3.2465,3.2393,3.2393,3.2113,3.1599,3.1226,3.1226,3.1818,3.2285,3.2142,3.2179,3.2354,3.2766,3.2723,3.2748,3.3047,3.2874,3.281,3.3068,3.2874,3.2745,3.2831,3.2636,3.2484,3.2484,3.2444,3.2291,3.2003,3.1981,3.1673,3.0915,3.06,3.0329,3.0079,3.0306,3.1267,3.3014,3.254,3.2519,3.2997,3.3068,3.2918,0.0,0.0,0.0,2.5071,2.6034,2.7586,3.3238,3.411,3.4477,3.7187,3.8187,3.8762,3.9416,3.9547,3.9939,4.1038,4.1221,4.1247,4.1247,4.1247,4.1247,4.1247,4.1247,4.1012,4.0437,4.0383,4.015,3.9651,3.9599,3.9599,3.9599,3.9599,3.9599,3.9573,3.9573,3.9573,3.9547,3.9547,3.9547,3.9547,3.9547,3.9547,3.9547,3.8945,3.8684,3.8658,3.8135,3.8214,3.8658,3.8109,3.7877,3.7762,3.6709,3.626,3.5952,3.392,3.3176,3.2978,3.1942,3.156,3.156,3.156,3.1586,3.173,3.2199,3.2387,3.2347,3.1875,3.1756,3.1542,3.0557,2.9869,2.9494,2.9518,2.9124,2.875,2.875,3.0464,3.2047,3.2266,3.2506,3.2745,3.3004,3.3068,3.309,3.309,3.2874,3.281,3.3068,3.2874,3.281,3.3068,3.2874,3.2723,3.2723,3.2528,3.2313,3.2025,3.2003,3.1673,3.0937,3.0892,3.0981,3.1178,3.1024,3.1623,3.2972,3.2519,3.2062,3.1669,3.2612,3.281,1.8427,0.0,0.0,0.0,0.0,0.0,2.7633,2.8812,3.021,3.3477,3.4607,3.5574,3.7377,3.8083,3.8606,3.9311,3.9808,4.0071,4.0071,4.0071,4.0071,4.0071,4.0071,3.9993,3.986,3.981,3.9782,3.9625,3.9599,3.9599,3.9599,3.9599,3.9416,3.8972,3.8972,3.8762,3.837,3.837,3.837,3.837,3.837,3.837,3.837,3.8214,3.8135,3.8109,3.7978,3.7978,3.8109,3.7978,3.7436,3.6709,3.6427,3.5379,3.3993,3.34,3.2499,3.1484,3.1206,3.0887,3.0578,3.0578,3.0614,3.0651,3.0774,3.1069,3.1157,3.0355,3.0663,3.0993,2.9976,2.9341,2.9087,2.9827,2.9874,2.9852,3.0011,3.125,3.1869,3.0509,3.1024,3.1757,3.1977,3.2612,3.309,3.309,3.3025,3.3025,3.309,3.3025,3.3025,3.309,3.3176,3.3154,3.3004,3.3068,3.2961,3.2528,3.2354,3.1959,3.1205,3.1004,3.078,3.0487,3.1424,3.1931,3.1999,3.2193,3.2522,3.2914,3.268,3.2422,1.9917,2.0663,2.1982,2.2375,0.0,0.0,2.5897,2.6488,2.7445,3.0902,3.2261,3.3404,3.5234,3.6044,3.6619,3.7194,3.7586,3.824,3.9442,3.9599,3.9599,3.9599,3.9599,3.952,3.9259,3.9233,3.9128,3.8919,3.8893,3.8893,3.8893,3.8893,3.8736,3.8397,3.837,3.8214,3.79,3.79,3.79,3.79,3.79,3.79,3.79,3.79,3.79,3.79,3.7639,3.7534,3.7508,3.7246,3.7088,3.6873,3.5774,3.4606,3.3398,3.233,3.1389,3.0603,3.0603,3.0428,3.0185,3.0185,3.0078,2.9976,3.0361,3.055,3.0398,2.9443,2.8974,2.8642,2.807,2.7669,2.7602,2.819,2.8423,2.854,2.8679,2.9441,3.0125,3.017,3.1202,3.2086,3.222,3.2698,3.309,3.309,3.309,3.309,3.309,3.309,3.3133,3.3219,3.3347,3.3368,3.324,3.3347,3.3193,3.2745,3.2593,3.2288,3.1783,3.1606,3.1472,3.1359,3.2283,3.2673,3.2479,3.276,3.2954,3.3111,3.2702,3.2332,2.2204,2.236,2.321,2.4558,2.3381,0.0,2.6174,2.5772,2.5604,2.8786,3.0231,3.1346,3.2594,3.3326,3.3927,3.4528,3.4789,3.5913,3.8815,3.9233,3.9233,3.9233,3.9233,3.8998,3.8452,3.8423,3.819,3.7743,3.7717,3.7717,3.7717,3.7717,3.7717,3.7717,3.7717,3.7717,3.7717,3.7717,3.7717,3.7717,3.7717,3.7717,3.7717,3.7717,3.7717,3.7665,3.7142,3.6907,3.6854,3.6332,3.659,3.718,3.4926,3.3861,3.3315,3.1147,3.0239,3.0122,3.0122,3.01,3.0057,3.0057,2.9751,2.9567,3.0415,3.0376,2.9806,2.8819,2.7152,2.5693,2.5693,2.5693,2.5742,2.5844,2.6086,2.6284,2.6308,2.6808,2.7974,3.0509,3.1867,3.259,3.259,3.2788,3.2939,3.2939,3.3025,3.309,3.309,3.3111,3.3197,3.3364,3.3407,3.3407,3.3386,3.3386,3.3193,3.2788,3.2723,3.2615,3.2444,3.2378,3.255,3.3,3.3279,3.3513,3.3704,3.353,3.3215,3.2702,3.2605,3.2342,2.4741,2.5055,2.5604,2.4543,2.4297,0.0,2.3553,2.3146,2.3367,2.4947,2.5443,2.6096,2.7749,2.8874,2.9763,3.0364,3.1582,3.3488,3.6384,3.6776,3.6776,3.6776,3.6776,3.675,3.6619,3.6619,3.6567,3.6462,3.6462,3.6462,3.6462,3.6462,3.6462,3.6462,3.6462,3.6462,3.6462,3.6462,3.6462,3.6462,3.6462,3.6462,3.6462,3.6462,3.6462,3.6436,3.6332,3.6279,3.6279,3.6149,3.5318,3.4128,3.4398,3.3029,3.0977,3.1227,3.06,2.9644,2.9644,2.9403,2.9053,2.9053,2.9011,2.8969,2.9155,2.9114,2.8794,2.7791,2.6624,2.5693,2.5693,2.5693,2.5893,2.672,2.7105,2.7363,2.7597,2.8468,2.9211,2.921,2.9395,2.9555,2.9555,3.0869,3.1889,3.1889,3.2568,3.309,3.309,3.324,3.3368,3.3386,3.3535,3.3577,3.3407,3.3386,3.3304,3.3047,3.2831,3.268,3.2636,3.2266,3.2376,3.3,3.3428,3.3662,3.3704,3.2565,3.2264,3.2677,3.2083,3.1651,2.7148,2.7095,2.7331,2.6452,2.5824,0.0,0.0,2.342,2.3275,2.504,2.47,2.4711,2.6739,2.7357,2.7828,2.8717,3.0014,3.1354,3.2542,3.4162,3.526,3.526,3.526,3.5365,3.5678,3.5704,3.5809,3.6096,3.6096,3.6096,3.6096,3.6096,3.6096,3.6096,3.6096,3.6096,3.6096,3.6096,3.6096,3.6096,3.6096,3.6096,3.6096,3.6096,3.6096,3.6096,3.5809,3.5704,3.5678,3.5391,3.4128,3.2486,3.3252,3.2643,3.1248,3.048,2.9763,2.9141,2.9141,2.9011,2.8792,2.8792,2.8792,2.8769,2.8585,2.8188,2.7673,2.7298,2.648,2.5693,2.5693,2.5693,2.5868,2.6504,2.6863,2.7122,2.7404,2.8045,2.8445,2.8068,2.7998,2.8305,2.928,3.026,3.089,3.089,3.1845,3.2547,3.2547,3.3129,3.3598,3.3725,3.3725,3.3662,3.3556,3.345,3.3326,3.3111,3.3068,3.2936,3.2723,3.2593,3.281,3.3343,3.2993,3.3038,3.3457,3.193,3.1668,3.255,3.1899,3.1394,2.9371,2.8978,2.8926,2.8377,2.7402,2.6393,0.0,0.0,0.0,2.5552,2.4768,2.4334,2.6174,2.6164,2.6143,2.6938,2.8212,2.8891,2.822,3.079,3.2855,3.3195,3.3639,3.4058,3.4424,3.4246,3.4481,3.5391,3.5004,3.5004,3.56,3.5626,3.5678,3.5783,3.5783,3.5783,3.5783,3.5783,3.5783,3.5783,3.5783,3.5783,3.5783,3.5783,3.5783,3.5757,3.5312,3.5129,3.5077,3.4607,3.3505,3.2196,3.2683,3.243,3.1591,2.9942,2.9117,2.8792,2.8792,2.8792,2.8792,2.8792,2.8862,2.8862,2.8493,2.7744,2.7033,2.7176,2.648,2.5693,2.5693,2.5693,2.5766,2.5965,2.6279,2.6544,2.6781,2.7071,2.7309,2.7309,2.7309,2.7809,2.9372,2.9988,3.026,3.026,3.1446,3.2326,3.2326,3.3168,3.3852,3.4089,3.3894,3.3789,3.3789,3.3577,3.3386,3.324,3.339,3.3279,3.2893,3.324,3.3598,3.3995,3.2864,3.2591,3.3203,3.1712,3.1421,3.2185,3.1558,3.1079,3.1175,3.1052,3.0805,2.8238,2.8612,2.8534,2.4424,0.0,2.4442,2.3148,0.0,2.2663,2.2924,0.0,0.0,2.2348,2.414,2.5186,2.4032,2.5573,2.735,2.89,3.0876,3.1947,3.1522,3.0455,3.0723,3.2908,3.1107,3.1062,3.3744,3.3875,3.4084,3.458,3.458,3.458,3.458,3.458,3.458,3.458,3.458,3.458,3.458,3.458,3.458,3.458,3.4528,3.4502,3.4502,3.4424,3.4272,3.4105,3.4157,3.2157,2.9391,3.0756,3.0238,2.8792,2.8792,2.8792,2.8792,2.8792,2.9071,2.9324,2.8817,2.8281,2.7765,2.7342,2.648,2.5693,2.5693,2.5693,2.5718,2.5742,2.6135,2.6496,2.6544,2.6928,2.7309,2.7309,2.7309,2.7381,2.7573,2.9189,3.0462,3.0462,3.219,3.3513,3.3513,3.3831,3.4089,3.411,3.4063,3.4042,3.4042,3.381,3.3662,3.3641,3.3662,3.3641,3.3598,3.4189,3.4724,3.5102,3.4175,3.3526,3.3203,3.2164,3.1614,3.148,3.0588,3.0163,3.1384,3.1653,3.1712,2.917,2.9091,2.876,2.5469,2.4596,2.4465,2.4387,0.0,0.0,0.0,0.0,0.0,0.0,2.2846,2.3082,2.1917,2.2937,2.4555,2.6554,2.7345,2.8161,2.9272,2.8898,2.9436,3.1548,3.009,3.0105,3.2444,3.2881,3.3326,3.3927,3.3927,3.4084,3.4397,3.4397,3.4397,3.4397,3.4397,3.4397,3.4397,3.4397,3.4397,3.4397,3.4397,3.4397,3.4397,3.4397,3.3763,3.2818,3.3356,3.2277,3.0396,3.0079,2.9486,2.8792,2.8792,2.8792,2.8792,2.8792,2.8816,2.8679,2.8023,2.7576,2.7173,2.6504,2.6038,2.5693,2.5693,2.5693,2.5742,2.5893,2.6231,2.6544,2.6709,2.7023,2.7309,2.7309,2.7739,2.7974,2.7547,2.8702,2.992,3.0551,3.2035,3.3057,3.3057,3.3763,3.4272,3.4272,3.4168,3.411,3.411,3.3852,3.3704,3.3704,3.3598,3.3768,3.4272,3.4325,3.4506,3.4841,3.4177,3.3369,3.2443,3.1775,3.1097,3.0457,3.0258,3.0047,3.1855,3.2195,3.23,2.9483,2.8926,2.8403,2.5913,2.4947,2.4711,2.5234,2.4267,0.0,0.0,0.0,2.2191,2.2166,0.0,2.1878,2.0412,2.0909,2.2112,2.399,2.4386,2.5278,2.7246,2.6695,2.728,2.9803,2.8378,2.8638,3.1432,3.1993,3.2587,3.3326,3.3509,3.377,3.4162,3.4319,3.4397,3.4397,3.4397,3.4397,3.4397,3.4397,3.4397,3.4397,3.4397,3.4397,3.4397,3.4397,3.3441,3.2016,3.2451,3.2037,3.1045,2.9692,2.9024,2.8792,2.8792,2.8885,2.8955,2.8839,2.8886,2.8841,2.7906,2.7481,2.7152,2.6332,2.5917,2.5693,2.5693,2.5693,2.5791,2.6038,2.6304,2.6568,2.6853,2.7095,2.7309,2.7309,2.788,2.8285,2.7968,2.9053,3.0192,3.0821,3.2144,3.31,3.31,3.3869,3.4397,3.4397,3.4272,3.4168,3.4168,3.4,3.3894,3.3894,3.3761,3.4053,3.4935,3.4532,3.4426,3.4737,3.3965,3.3039,3.1894,3.1293,3.0565,2.9804,2.9964,2.9841,3.3247,3.3111,3.2594,2.8577,2.7994,2.7671,2.479,2.4973,2.5443,2.4372,2.4958,2.5547,2.5097,2.4465,2.3484,0.0,2.2021,0.0,0.0,1.9002,1.9425,2.0524,2.2475,2.4195,2.5379,2.2922,2.2951,2.7117,2.4725,2.5407,3.0738,3.1044,3.1567,3.2672,3.332,3.3613,3.3613,3.4136,3.4397,3.4397,3.4397,3.4397,3.4397,3.4397,3.4397,3.4397,3.4397,3.4397,3.4397,3.4397,3.3827,3.2886,3.1994,3.1067,3.0238,3.017,2.9578,2.8792,2.8792,2.9094,2.9393,2.8955,2.9715,3.0555,2.9095,2.8656,2.8425,2.7416,2.6432,2.5693,2.5693,2.5693,2.5791,2.6038,2.6304,2.6568,2.6853,2.7095,2.7309,2.7309,2.7476,2.7849,2.8543,3.0626,3.1974,3.1289,3.2993,3.4356,3.4356,3.4377,3.4397,3.4397,3.4397,3.4397,3.4397,3.4377,3.4377,3.4377,3.4358,3.4755,3.5631,3.5029,3.4901,3.5345,3.3835,3.2629,3.1894,3.0899,3.0203,2.9779,2.9521,2.9307,3.4031,3.4528,3.4371,3.0738,2.9954,2.9248,2.5965,2.5506,2.5495,2.4346,2.4999,2.5521,2.457,2.3617,0.0,0.0,0.0,1.967,0.0,1.823,1.8364,1.9089,2.0745,2.1854,2.1882,2.1397,2.234,2.5397,2.4346,2.5408,2.9658,3.0215,3.0928,3.2078,3.2313,3.26,3.3006,3.3169,3.3273,3.3273,3.3273,3.3273,3.3273,3.3273,3.3273,3.3273,3.3273,3.3273,3.3273,3.3273,3.272,3.1784,3.0904,2.9964,2.9142,2.9239,2.9071,2.8792,2.8792,2.8885,2.9047,2.9209,2.9347,2.9279,2.8468,2.7979,2.7447,2.6165,2.5559,2.5234,2.4918,2.484,2.491,2.5191,2.5425,2.5701,2.5933,2.6167,2.6374,2.6374,2.7062,2.7764,2.8099,3.0017,3.1476,3.1346,3.2277,3.3224,3.3787,3.4162,3.4397,3.4397,3.4397,3.4397,3.4397,3.4397,3.4303,3.4079,3.4286,3.4538,3.4906,3.4649,3.4542,3.4615,3.3673,3.2573,3.1299,3.0965,3.047,2.9824,3.0228,3.0272,3.5129,3.5547,3.5338,3.2097,3.1268,3.0372,2.6922,2.6409,2.6331,2.4973,2.5286,2.5756,2.5667,2.4192,2.2806,0.0,0.0,1.9118,0.0,1.7738,1.7763,1.7905,1.9114,1.9965,2.0067,1.9889,2.1002,2.3946,2.3594,2.4821,2.8464,2.9387,3.0249,3.1171,3.1588,3.198,3.2385,3.2594,3.2698,3.2698,3.2698,3.2698,3.2698,3.2698,3.2698,3.2698,3.2698,3.2698,3.2698,3.2698,3.2154,3.1193,3.0348,2.9635,2.9048,2.8813,2.8833,2.8966,2.885,2.903,2.9278,2.9232,2.9122,2.8738,2.7579,2.7009,2.6455,2.5207,2.4867,2.4766,2.4492,2.446,2.4618,2.4871,2.5123,2.5371,2.5601,2.5762,2.5897,2.5897,2.6661,2.7283,2.7195,2.8742,3.0297,3.1229,3.197,3.2659,3.3213,3.3561,3.3796,3.3796,3.3796,3.3796,3.3796,3.3796,3.3863,3.3966,3.4175,3.4412,3.4612,3.4598,3.4407,3.4055,3.3554,3.2668,3.1402,3.1123,3.0679,3.003,3.062,3.0988]},{"header":{"parameterUnit":"m.s-1","parameterCategory":1,"la1":30.6,"la2":29.2853,"lo1":-89.7004,"lo2":-87.6739,"dy":0.0162,"dx":0.0183,"nx":112,"ny":82,"refTime":"2024-09-05T12:00:00:Z","depth":0,"parameterNumber":3,"parameterNumberName":"V-component_of_WINDS"},"data":[0.0,0.0,0.0,0.0,0.0,0.0,0.0,0.0,0.0,0.0,0.0,0.0,0.0,0.0,0.0,0.0,0.0,0.0,0.0,0.0,0.0,0.0,0.0,0.0,0.0,0.0,0.0,0.0,0.0,0.0,0.0,0.0,0.0,0.0,0.0,0.0,0.0,0.0,0.0,0.0,0.0,0.0,0.0,0.0,0.0,0.0,0.0,0.0,0.0,0.0,0.0,0.0,0.0,0.0,0.0,0.0,0.0,0.0,0.0,0.0,0.0,0.0,0.0,0.0,0.0,0.0,0.0,0.0,0.0,0.0,0.0,0.0,0.0,0.0,0.0,0.0,0.0,0.0,0.0,0.0,0.0,0.0,0.0,0.0,0.0,0.0,0.0,0.0,0.0,0.0,2.0781,2.3337,2.6113,2.7585,2.7051,2.6869,2.5019,2.086,0.0,0.0,0.0,0.0,0.0,0.0,0.0,0.0,0.0,0.0,0.0,0.0,0.0,0.0,0.0,0.0,0.0,0.0,0.0,0.0,0.0,0.0,0.0,0.0,0.0,0.0,0.0,0.0,0.0,0.0,0.0,0.0,0.0,0.0,0.0,0.0,0.0,0.0,0.0,0.0,0.0,0.0,0.0,0.0,0.0,0.0,0.0,0.0,0.0,0.0,0.0,0.0,0.0,0.0,0.0,0.0,0.0,0.0,0.0,0.0,0.0,0.0,0.0,0.0,0.0,0.0,0.0,0.0,0.0,0.0,0.0,0.0,0.0,0.0,0.0,0.0,0.0,0.0,0.0,0.0,0.0,0.0,0.0,0.0,0.0,0.0,0.0,0.0,0.0,0.0,0.0,0.0,0.0,0.0,0.0,0.0,0.0,0.0,0.0,0.0,0.0,0.0,0.0,0.0,2.1055,2.543,2.7285,2.7871,2.7064,2.6323,2.4371,2.082,0.0,0.0,0.0,0.0,0.0,0.0,0.0,0.0,0.0,0.0,0.0,0.0,0.0,0.0,0.0,0.0,0.0,0.0,0.0,0.0,0.0,0.0,0.0,0.0,0.0,0.0,0.0,0.0,0.0,0.0,0.0,0.0,0.0,0.0,0.0,0.0,0.0,0.0,0.0,0.0,0.0,0.0,0.0,0.0,0.0,0.0,0.0,0.0,0.0,0.0,0.0,0.0,0.0,0.0,0.0,0.0,0.0,0.0,0.0,0.0,0.0,0.0,0.0,0.0,0.0,0.0,0.0,0.0,0.0,0.0,0.0,0.0,0.0,0.0,0.0,0.0,0.0,0.0,0.0,0.0,0.0,0.0,0.0,0.0,0.0,0.0,0.0,0.0,0.0,0.0,0.0,0.0,0.0,0.0,0.0,0.0,0.0,0.0,0.0,0.0,0.0,0.0,0.0,2.0957,2.3008,2.6367,2.7676,2.7949,2.7064,2.6206,2.4235,2.082,1.9354,0.0,0.0,0.0,0.0,0.0,0.0,0.0,0.0,0.0,0.0,0.0,0.0,0.0,0.0,0.0,0.0,0.0,0.0,0.0,0.0,0.0,0.0,0.0,0.0,0.0,0.0,0.0,0.0,0.0,0.0,0.0,0.0,0.0,0.0,0.0,0.0,0.0,0.0,0.0,0.0,0.0,0.0,0.0,0.0,0.0,0.0,0.0,0.0,0.0,0.0,0.0,0.0,0.0,0.0,0.0,0.0,0.0,0.0,0.0,0.0,0.0,0.0,0.0,0.0,0.0,0.0,0.0,0.0,0.0,0.0,0.0,0.0,0.0,0.0,0.0,0.0,0.0,0.0,0.0,0.0,0.0,0.0,0.0,0.0,0.0,0.0,0.0,0.0,0.0,0.0,0.0,0.0,0.0,0.0,0.0,0.0,0.0,0.0,0.0,0.0,0.0,0.0,2.334,2.4961,2.6791,2.7695,2.7832,2.709,2.5737,2.3649,2.0625,1.8435,0.0,0.0,0.0,0.0,0.0,0.0,0.0,0.0,0.0,0.0,0.0,0.0,0.0,0.0,0.0,0.0,0.0,0.0,0.0,0.0,0.0,0.0,0.0,0.0,0.0,0.0,0.0,0.0,0.0,0.0,0.0,0.0,0.0,0.0,0.0,0.0,0.0,0.0,0.0,0.0,0.0,0.0,0.0,0.0,0.0,0.0,0.0,0.0,0.0,0.0,0.0,0.0,0.0,0.0,0.0,0.0,0.0,0.0,0.0,0.0,0.0,0.0,0.0,0.0,0.0,0.0,0.0,0.0,0.0,0.0,0.0,0.0,0.0,0.0,0.0,0.0,0.0,0.0,0.0,0.0,0.0,0.0,0.0,0.0,0.0,0.0,0.0,0.0,0.0,0.0,0.0,0.0,0.0,0.0,0.0,0.0,0.0,0.0,0.0,0.0,0.0,0.0,2.3574,2.5932,2.6889,2.7467,2.7545,2.7025,2.4371,2.1932,2.0078,1.6855,0.0,0.0,0.0,0.0,0.0,0.0,0.0,0.0,0.0,0.0,0.0,0.0,0.0,0.0,0.0,0.0,0.0,0.0,0.0,0.0,0.0,0.0,0.0,0.0,0.0,0.0,0.0,0.0,0.0,0.0,0.0,0.0,0.0,0.0,0.0,0.0,0.0,0.0,0.0,0.0,0.0,0.0,0.0,0.0,0.0,0.0,0.0,0.0,0.0,0.0,0.0,0.0,0.0,0.0,0.0,0.0,0.0,0.0,0.0,0.0,0.0,0.0,0.0,0.0,0.0,0.0,0.0,0.0,0.0,0.0,0.0,0.0,0.0,0.0,0.0,0.0,0.0,0.0,0.0,0.0,0.0,0.0,0.0,0.0,0.0,0.0,0.0,0.0,0.0,0.0,0.0,0.0,0.0,0.0,0.0,0.0,0.0,0.0,0.0,0.0,0.0,0.0,2.2678,2.4766,2.6445,2.7012,2.709,2.666,2.5078,2.291,2.0079,0.0,0.0,0.0,0.0,0.0,0.0,0.0,0.0,0.0,0.0,0.0,0.0,0.0,0.0,0.0,0.0,0.0,0.0,0.0,0.0,0.0,0.0,0.0,0.0,0.0,0.0,0.0,0.0,0.0,0.0,0.0,0.0,0.0,0.0,0.0,0.0,0.0,0.0,0.0,0.0,0.0,0.0,0.0,0.0,0.0,0.0,0.0,0.0,0.0,0.0,0.0,0.0,0.0,0.0,0.0,0.0,0.0,0.0,0.0,0.0,0.0,0.0,0.0,0.0,0.0,0.0,0.0,0.0,0.0,0.0,0.0,0.0,0.0,0.0,0.0,0.0,0.0,0.0,0.0,0.0,0.0,0.0,0.0,0.0,0.0,0.0,0.0,0.0,0.0,0.0,0.0,0.0,0.0,0.0,0.0,0.0,0.0,0.0,0.0,0.0,0.0,0.0,2.0273,2.2463,2.4457,2.6191,2.6641,2.6641,2.6211,2.4906,2.2775,1.9688,0.0,0.0,0.0,0.0,0.0,0.0,0.0,0.0,0.0,0.0,0.0,0.0,0.0,0.0,0.0,0.0,0.0,0.0,0.0,0.0,0.0,0.0,0.0,0.0,0.0,0.0,0.0,0.0,0.0,0.0,0.0,0.0,0.0,0.0,0.0,0.0,0.0,0.0,0.0,0.0,0.0,0.0,0.0,0.0,0.0,0.0,0.0,0.0,0.0,0.0,0.0,0.0,0.0,0.0,0.0,0.0,0.0,0.0,0.0,0.0,0.0,0.0,0.0,0.0,0.0,0.0,0.0,0.0,0.0,0.0,0.0,0.0,0.0,0.0,0.0,0.0,0.0,0.0,0.0,0.0,0.0,0.0,0.0,0.0,0.0,0.0,0.0,0.0,0.0,0.0,0.0,0.0,0.0,0.0,0.0,0.0,0.0,0.0,0.0,0.0,0.0,0.0,2.039,2.3225,2.5434,2.6314,2.6412,2.6191,2.5713,2.3379,2.0977,0.0,0.0,0.0,0.0,0.0,0.0,0.0,0.0,0.0,0.0,0.0,0.0,0.0,0.0,0.0,0.0,0.0,0.0,0.0,0.0,0.0,0.0,0.0,0.0,0.0,0.0,0.0,0.0,0.0,0.0,0.0,0.0,0.0,0.0,0.0,0.0,0.0,0.0,0.0,0.0,0.0,0.0,0.0,0.0,0.0,0.0,0.0,0.0,0.0,0.0,0.0,0.0,0.0,0.0,0.0,0.0,0.0,0.0,0.0,0.0,0.0,0.0,0.0,0.0,0.0,0.0,0.0,0.0,0.0,0.0,0.0,0.0,0.0,0.0,0.0,0.0,0.0,0.0,0.0,0.0,0.0,0.0,0.0,0.0,0.0,0.0,0.0,0.0,0.0,0.0,0.0,0.0,0.0,0.0,0.0,0.0,0.0,0.0,0.0,0.0,0.0,0.0,0.0,2.039,2.293,2.4941,2.5815,2.5644,2.5434,2.5297,2.4023,2.1914,1.8792,0.0,0.0,0.0,0.0,0.0,0.0,0.0,0.0,0.0,0.0,0.0,0.0,0.0,0.0,0.0,0.0,0.0,0.0,0.0,0.0,0.0,0.0,0.0,0.0,0.0,0.0,0.0,0.0,0.0,0.0,0.0,0.0,0.0,0.0,0.0,0.0,0.0,0.0,0.0,0.0,0.0,0.0,0.0,0.0,0.0,0.0,0.0,0.0,0.0,0.0,0.0,0.0,0.0,0.0,0.0,0.0,0.0,0.0,0.0,0.0,0.0,0.0,0.0,0.0,0.0,0.0,0.0,0.0,0.0,0.0,0.0,0.0,0.0,0.0,0.0,0.0,0.0,0.0,0.0,0.0,0.0,0.0,0.0,0.0,0.0,0.0,0.0,0.0,0.0,0.0,0.0,0.0,0.0,0.0,0.0,0.0,0.0,0.0,0.0,0.0,0.0,0.0,2.039,2.2812,2.4723,2.562,2.5464,2.5195,2.4867,2.4336,2.2559,1.9103,0.0,0.0,0.0,0.0,0.0,0.0,0.0,0.0,0.0,0.0,0.0,0.0,0.0,0.0,0.0,0.0,0.0,0.0,0.0,0.0,0.0,0.0,0.0,0.0,0.0,0.0,0.0,0.0,0.0,0.0,0.0,0.0,0.0,0.0,0.0,0.0,0.0,0.0,0.0,0.0,0.0,0.0,0.0,0.0,0.0,0.0,0.0,0.0,0.0,0.0,0.0,0.0,0.0,0.0,0.0,0.0,0.0,0.0,0.0,0.0,0.0,0.0,0.0,0.0,0.0,0.0,0.0,0.0,0.0,0.0,0.0,0.0,0.0,0.0,0.0,0.0,0.0,0.0,0.0,0.0,0.0,0.0,0.0,0.0,0.0,0.0,0.0,0.0,0.0,0.0,0.0,0.0,0.0,0.0,0.0,0.0,0.0,0.0,0.0,0.0,0.0,0.0,2.039,2.2812,2.4723,2.5562,2.5659,2.5289,2.441,2.4332,2.2949,1.9628,0.0,0.0,0.0,0.0,0.0,0.0,0.0,0.0,0.0,0.0,0.0,0.0,0.0,0.0,0.0,0.0,0.0,0.0,0.0,0.0,0.0,0.0,0.0,0.0,0.0,0.0,0.0,0.0,0.0,0.0,0.0,0.0,0.0,0.0,0.0,0.0,0.0,0.0,0.0,0.0,0.0,0.0,0.0,0.0,0.0,0.0,0.0,0.0,0.0,0.0,0.0,0.0,0.0,0.0,0.0,0.0,0.0,0.0,0.0,0.0,1.9888,1.8852,0.0,0.0,0.0,0.0,0.0,0.0,0.0,0.0,0.0,0.0,0.0,0.0,0.0,0.0,0.0,0.0,0.0,0.0,0.0,0.0,0.0,0.0,0.0,0.0,0.0,0.0,0.0,0.0,0.0,0.0,0.0,0.0,0.0,0.0,0.0,0.0,0.0,0.0,0.0,0.0,2.039,2.2812,2.4629,2.518,2.5239,2.4887,2.4004,2.3926,2.2912,2.0488,1.9082,0.0,0.0,0.0,0.0,0.0,0.0,0.0,0.0,0.0,0.0,0.0,0.0,0.0,0.0,0.0,0.0,0.0,0.0,0.0,0.0,0.0,0.0,0.0,0.0,0.0,0.0,0.0,0.0,0.0,0.0,0.0,0.0,0.0,0.0,0.0,0.0,0.0,0.0,0.0,0.0,0.0,0.0,0.0,0.0,0.0,0.0,0.0,0.0,0.0,0.0,0.0,0.0,0.0,0.0,0.0,0.0,0.0,0.0,0.0,2.3191,2.2101,0.0,0.0,0.0,0.0,0.0,0.0,0.0,0.0,0.0,0.0,0.0,0.0,0.0,0.0,0.0,0.0,0.0,0.0,0.0,0.0,0.0,0.0,0.0,0.0,0.0,0.0,0.0,0.0,0.0,0.0,0.0,0.0,0.0,0.0,0.0,0.0,0.0,0.0,0.0,0.0,2.0644,2.2927,2.4645,2.5312,2.5391,2.5039,2.416,2.4102,2.3262,2.1348,2.0195,0.0,0.0,0.0,0.0,0.0,0.0,0.0,0.0,0.0,0.0,0.0,0.0,0.0,0.0,0.0,0.0,0.0,0.0,0.0,0.0,0.0,0.0,0.0,0.0,0.0,0.0,0.0,0.0,0.0,0.0,0.0,0.0,0.0,0.0,0.0,0.0,0.0,0.0,0.0,0.0,0.0,0.0,0.0,0.0,0.0,0.0,0.0,0.0,0.0,0.0,0.0,0.0,0.0,2.7746,2.8388,2.8848,2.8848,2.9114,2.9425,2.6647,2.5819,2.6222,2.3982,0.0,0.0,0.0,0.0,0.0,0.0,0.0,0.0,0.0,0.0,0.0,0.0,0.0,0.0,0.0,0.0,0.0,0.0,0.0,0.0,0.0,0.0,2.2754,2.2717,2.375,2.3864,2.0664,0.0,0.0,0.0,0.0,0.0,0.0,0.0,0.0,0.0,0.0,0.0,2.1152,2.3103,2.4625,2.5503,2.5523,2.5152,2.4352,2.4316,2.3672,2.2207,2.1309,2.0136,0.0,0.0,0.0,0.0,0.0,0.0,0.0,0.0,0.0,0.0,0.0,0.0,0.0,0.0,0.0,0.0,0.0,0.0,0.0,0.0,0.0,0.0,0.0,0.0,0.0,0.0,0.0,0.0,0.0,0.0,0.0,0.0,2.1233,2.3143,0.0,0.0,0.0,0.0,0.0,0.0,0.0,0.0,0.0,0.0,0.0,0.0,0.0,2.7006,2.8293,2.9855,3.0694,3.0801,3.1981,3.2606,3.2672,3.2672,3.2547,3.2266,3.1815,0.0,2.7896,2.6824,0.0,0.0,0.0,0.0,0.0,0.0,0.0,0.0,0.0,0.0,0.0,0.0,0.0,0.0,0.0,0.0,0.0,0.0,0.0,0.0,0.0,0.0,2.625,2.5879,2.6001,2.5996,2.5469,2.2717,2.0038,1.9061,1.8262,1.7422,0.0,0.0,0.0,0.0,0.0,0.0,2.2049,2.3242,2.4199,2.5082,2.4824,2.4371,2.3906,2.3867,2.3613,2.2964,2.2187,2.1445,2.08,1.9202,0.0,0.0,0.0,0.0,0.0,0.0,0.0,0.0,0.0,0.0,0.0,0.0,0.0,0.0,0.0,0.0,0.0,0.0,0.0,0.0,0.0,0.0,0.0,0.0,0.0,0.0,0.0,0.0,0.0,2.0118,2.2491,2.3115,2.2896,2.2317,0.0,0.0,0.0,0.0,0.0,0.0,0.0,0.0,0.0,2.9971,2.9711,3.0902,3.3757,3.3744,3.4247,3.5284,3.5809,3.6248,3.6499,3.6499,3.6394,3.6154,3.5147,3.3801,3.2131,2.9557,2.7617,2.6191,0.0,0.0,0.0,0.0,2.4375,2.4824,2.5781,2.6089,2.5971,2.5249,0.0,0.0,0.0,0.0,0.0,0.0,0.0,2.3398,2.4118,2.564,2.7031,2.7115,2.7753,2.8314,2.8097,2.6984,2.5157,2.2084,2.161,2.0799,1.7936,1.8697,0.0,0.0,0.0,2.1648,2.3053,2.4007,2.4746,2.5371,2.5249,2.4859,2.4199,2.4141,2.3825,2.314,2.2771,2.2381,2.1952,2.0742,1.9259,0.0,0.0,0.0,0.0,0.0,0.0,0.0,0.0,0.0,0.0,0.0,0.0,0.0,0.0,0.0,0.0,0.0,0.0,0.0,0.0,0.0,0.0,0.0,0.0,0.0,0.0,0.0,0.0,2.2341,2.4379,2.3819,2.5133,2.5161,0.0,0.0,0.0,0.0,0.0,0.0,2.8731,2.9775,3.1552,3.4178,3.3701,3.4907,3.8069,3.7183,3.7387,3.8709,3.8709,3.8875,3.9226,3.9226,3.916,3.8976,3.7645,3.6718,3.5879,3.1894,2.9755,2.8848,2.7773,2.7109,2.6732,2.709,2.7266,2.7539,2.8809,2.918,2.8965,2.8242,2.7207,2.5854,2.3968,0.0,0.0,0.0,0.0,2.603,2.6794,2.7678,2.8387,2.8416,2.9422,3.0244,2.9959,3.0195,2.9332,2.5565,2.5215,2.4388,2.0876,2.1876,0.0,2.0437,2.1817,2.3371,2.4042,2.4593,2.5117,2.5659,2.5503,2.5113,2.4449,2.4316,2.3923,2.314,2.3101,2.2986,2.2654,2.1932,2.0781,1.9142,0.0,0.0,0.0,0.0,0.0,0.0,0.0,0.0,0.0,0.0,0.0,0.0,0.0,0.0,0.0,0.0,0.0,0.0,0.0,0.0,0.0,0.0,0.0,0.0,0.0,0.0,0.0,0.0,0.0,2.728,3.0184,0.0,0.0,0.0,0.0,2.8793,3.1135,3.3373,3.5133,3.5672,3.6531,3.7889,3.8322,3.8816,3.9394,3.9788,3.9996,4.0083,4.0083,4.0105,4.0126,4.0126,3.9896,3.9447,3.9352,3.8797,3.764,3.372,3.1553,3.0703,3.0195,2.9746,2.9403,2.9422,2.9696,3.0019,3.0098,2.9863,2.9696,3.0478,2.9305,2.7565,2.7448,2.731,0.0,0.0,2.9935,3.1331,3.0648,3.1269,3.1858,3.0719,3.1009,3.1513,3.1491,3.1149,3.0543,2.9493,2.8599,2.7679,2.6643,0.0,2.5538,2.4451,2.4407,2.462,2.4988,2.4668,2.4762,2.562,2.4957,2.4449,2.4391,2.4043,2.3633,2.312,2.3101,2.3081,2.3062,2.2654,2.1816,2.0508,1.8769,0.0,0.0,0.0,0.0,0.0,0.0,0.0,0.0,0.0,0.0,0.0,0.0,0.0,0.0,0.0,0.0,0.0,0.0,0.0,0.0,0.0,0.0,0.0,0.0,0.0,0.0,0.0,0.0,3.055,3.2942,0.0,3.144,3.245,3.3298,3.3355,3.4961,3.636,3.7265,3.7989,3.8989,4.036,3.9946,4.065,4.2583,4.1893,4.1984,4.2831,4.2831,4.2831,4.2831,4.2831,4.2746,4.2505,4.1345,4.0638,4.0138,3.7203,3.5441,3.4606,3.412,3.3824,3.3726,3.3726,3.3585,3.343,3.343,3.3106,3.2699,3.2748,3.1705,3.0567,3.1036,3.0622,3.0229,3.1322,3.2189,3.2656,3.2382,3.2367,3.2285,3.1866,3.2197,3.265,3.265,3.3038,3.3324,3.3023,3.1618,2.994,2.8188,2.889,2.8992,2.6846,2.7173,2.7634,2.7454,2.7273,2.7038,2.6703,2.6391,2.5708,2.4499,2.4277,2.3864,2.314,2.2869,2.2713,2.2713,2.2049,2.1191,2.0176,1.873,1.6953,0.0,0.0,0.0,0.0,0.0,0.0,0.0,0.0,0.0,0.0,0.0,0.0,0.0,0.0,0.0,0.0,0.0,0.0,0.0,0.0,0.0,0.0,0.0,0.0,0.0,3.1022,3.3776,3.3027,3.5826,3.6912,3.4588,3.6352,3.7668,3.7733,3.9235,4.031,4.0779,4.1375,4.2088,4.3028,4.2463,4.293,4.4549,4.3679,4.3585,4.4285,4.4285,4.4285,4.4285,4.4285,4.4285,4.423,4.3019,4.2397,4.2125,4.0571,3.9341,3.8354,3.6986,3.6436,3.6414,3.629,3.5998,3.5662,3.5334,3.484,3.4354,3.4081,3.3449,3.2908,3.3383,3.3296,3.3188,3.3972,3.4508,3.4721,3.4321,3.4121,3.385,3.3276,3.3592,3.398,3.3768,3.4287,3.4799,3.4799,3.3576,3.2042,3.0537,3.1359,3.1442,2.9105,2.9443,2.9648,2.8797,2.8704,2.8448,2.777,2.7392,2.6593,2.5048,2.4461,2.3884,2.314,2.2596,2.2363,2.2479,2.1659,2.0859,2.0156,1.8849,1.7441,1.5894,0.0,0.0,0.0,0.0,0.0,0.0,0.0,0.0,0.0,0.0,0.0,0.0,0.0,0.0,0.0,0.0,0.0,0.0,0.0,0.0,0.0,0.0,0.0,3.103,3.4337,3.6321,3.4845,3.907,4.0521,3.6419,4.0212,4.2626,4.1971,4.3915,4.5349,4.5878,4.5902,4.5902,4.5902,4.5902,4.5638,4.5133,4.5133,4.4869,4.4364,4.4364,4.4333,4.4309,4.4309,4.434,4.4285,4.4285,4.4003,4.3529,4.3529,4.2928,4.1737,3.8642,3.7429,3.7363,3.6963,3.6817,3.6641,3.5668,3.4953,3.4503,3.4503,3.4503,3.4447,3.4503,3.5306,3.6204,3.6231,3.7096,3.7735,3.6557,3.672,3.6751,3.5092,3.5168,3.5448,3.4943,3.4823,3.4799,3.4799,3.4366,3.4006,3.4006,3.3621,3.2814,3.1298,3.1043,0.0,2.9001,2.8774,2.8774,2.8728,2.7821,2.6879,2.6009,2.4636,2.3638,2.3144,2.2344,2.207,2.248,2.164,2.0996,2.0625,1.9298,1.844,1.803,0.0,0.0,0.0,0.0,0.0,0.0,0.0,0.0,0.0,0.0,0.0,0.0,0.0,0.0,0.0,0.0,0.0,0.0,0.0,0.0,0.0,3.2961,3.541,3.51,3.8229,4.0668,4.0975,4.2938,4.3931,4.3191,4.4268,4.499,4.4793,4.5334,4.5734,4.5878,4.5902,4.5902,4.5902,4.5902,4.583,4.5686,4.5686,4.5614,4.5469,4.5469,4.5253,4.4893,4.4893,4.4676,4.4285,4.4285,4.422,4.4051,4.3643,4.3337,4.294,4.1324,4.047,4.0112,4.0,3.946,3.8704,3.8048,3.7461,3.7016,3.7016,3.6421,3.5877,3.6746,3.6638,3.6367,3.7254,3.7735,3.7921,3.7601,3.7352,3.7078,3.6599,3.6038,3.5544,3.54,3.5063,3.4799,3.4799,3.4679,3.4583,3.4583,3.415,3.3527,3.2768,3.2341,3.1799,3.0984,3.054,3.0019,2.9284,2.8611,2.7701,2.6454,2.5365,2.4427,2.3653,2.2523,2.1954,2.2051,2.1231,2.0703,2.0605,1.9628,1.9043,0.0,0.0,0.0,0.0,0.0,0.0,0.0,0.0,0.0,0.0,0.0,0.0,0.0,0.0,0.0,0.0,0.0,0.0,0.0,0.0,0.0,0.0,3.6952,3.9481,4.0143,4.1625,4.3096,4.4371,4.5061,4.5565,4.5854,4.6094,4.6214,4.6214,4.6431,4.6583,4.6583,4.6583,4.6583,4.6583,4.6583,4.6455,4.6214,4.6214,4.6118,4.5902,4.5902,4.5734,4.5421,4.5205,4.4941,4.4628,4.4412,4.4285,4.4292,4.3955,4.3691,4.3409,0.0,0.0,0.0,0.0,4.0643,3.985,3.932,3.8791,3.8286,3.8072,3.7521,3.7069,3.7788,3.7521,3.7096,3.7788,3.8,3.8,3.8,3.7784,3.7469,3.7252,3.6723,3.6146,3.5688,3.5352,3.5063,3.4847,3.4799,0.0,3.4799,3.4559,3.4174,3.3669,3.3164,3.2635,3.2104,3.1382,3.0757,3.0399,2.9517,2.8622,2.7829,2.6192,0.0,0.0,0.0,2.1797,2.1621,2.1113,0.0,0.0,0.0,0.0,0.0,2.0684,0.0,0.0,2.0039,1.9786,0.0,0.0,0.0,0.0,0.0,0.0,0.0,0.0,0.0,0.0,0.0,0.0,0.0,0.0,0.0,0.0,4.0835,4.3577,4.5061,4.446,4.4364,4.5806,4.5974,4.5998,4.607,4.6535,4.68,4.68,4.7233,4.7497,4.7497,4.7497,0.0,0.0,0.0,4.7281,4.68,4.68,4.6559,4.607,4.607,4.6046,4.5974,4.5493,4.5205,4.5085,4.4604,4.4364,4.4285,4.4285,4.3979,4.3409,4.2404,4.1995,4.1947,4.1418,4.086,4.0331,3.985,0.0,0.0,3.8238,3.8072,3.8,3.8,3.8,3.8,3.8,3.8,3.8,3.8,3.8,3.788,3.7397,3.7228,3.694,3.6002,3.5688,3.5448,3.4991,3.4847,3.4799,3.4799,3.4799,3.4631,3.4078,3.3621,3.3092,3.2563,3.1575,3.1069,3.1573,3.0329,0.0,2.9562,2.7173,2.563,2.5525,2.3363,2.188,2.1366,2.1424,2.1679,2.2111,2.2169,2.2756,2.3867,2.3867,2.4043,2.4332,2.164,2.1055,0.0,0.0,0.0,0.0,0.0,0.0,0.0,0.0,0.0,0.0,0.0,0.0,0.0,0.0,0.0,4.0116,4.2832,4.5061,4.6247,4.619,4.6223,4.6535,4.6559,4.6728,4.7161,4.7281,4.7353,4.7353,4.7449,4.7497,4.7497,4.7497,4.7497,4.7497,4.7497,4.7449,4.7353,4.7353,4.7305,4.7185,4.7185,0.0,4.6559,4.6463,4.5902,4.5085,4.4989,4.47,4.4285,4.4285,4.3979,4.3409,4.2404,4.1995,4.1947,4.1418,4.086,4.0379,4.0282,3.9609,3.8764,3.8695,3.8359,3.8,3.8,3.8,0.0,3.8,3.8,3.8,3.8,3.8,3.7976,3.788,3.7493,3.7132,3.694,3.6218,3.5568,3.5472,3.5087,3.4799,3.4799,3.4799,3.4631,3.4078,3.3621,3.3092,3.2563,3.1575,3.0925,3.1045,3.0393,2.9976,2.9997,2.8782,2.7704,2.6954,2.472,2.3079,2.2287,2.293,2.334,2.3418,2.375,2.4043,2.4274,2.4274,2.4313,2.4391,2.3786,2.3669,0.0,0.0,0.0,0.0,0.0,0.0,0.0,0.0,0.0,0.0,0.0,3.4883,3.6888,0.0,4.1239,4.3228,4.4869,4.6166,4.6992,4.7112,4.7112,4.7112,4.7112,4.7209,4.7473,4.7497,4.7497,4.7497,4.7497,4.7497,4.7497,4.7497,4.7497,4.7497,4.7497,4.7497,4.7497,4.7497,4.7497,4.7497,4.7497,4.7353,4.7088,4.6824,4.6415,4.5878,4.5614,4.5205,4.47,4.4405,4.4148,4.3811,4.3048,4.2452,4.1971,4.1706,4.1273,4.0739,4.0499,4.0042,3.9513,3.8957,3.8623,3.8359,3.8096,3.8,3.8,3.8,3.8,3.8,3.8,3.8,3.8,3.8,3.7808,3.7517,3.7252,3.6579,3.593,3.564,3.5159,3.4799,3.4799,3.4799,3.4727,3.4438,3.3982,3.3477,3.2971,3.196,3.1286,3.1286,3.0829,3.0612,3.0877,2.9358,2.7876,2.6669,2.503,2.3901,2.3457,2.3867,2.4102,2.4102,2.4316,2.4531,2.4746,2.4746,2.4863,2.5054,2.5054,2.4937,0.0,0.0,0.0,0.0,0.0,0.0,0.0,3.2754,3.3981,3.6049,3.7709,3.9369,4.1413,4.2735,4.4113,4.5758,4.6535,4.7016,4.7449,4.7497,4.7473,4.7353,4.7449,4.7497,4.7497,4.7497,4.7497,4.7497,4.7593,4.7666,4.7666,4.7666,4.7666,4.7666,4.7545,4.7497,4.7497,4.7497,4.7497,4.7497,4.7497,4.7497,4.7497,4.7064,4.68,4.6647,4.6022,4.5493,4.5061,4.4501,4.4285,4.4268,4.3811,4.3096,4.2284,4.2067,4.173,4.1297,4.0739,4.0475,4.0234,3.9272,3.8884,3.8719,3.8142,3.8,3.8,3.8,3.8,3.8,3.8,3.8,3.8,3.8,3.8,3.788,3.7445,3.6843,3.6266,3.5832,3.5232,3.4799,3.4799,3.4799,3.4799,3.4799,3.4318,3.3838,3.3356,3.2465,3.1815,3.1695,3.131,3.1214,3.1669,2.9822,2.8054,2.67,2.5578,2.4877,2.4713,2.4585,2.4551,2.4551,2.4606,2.4844,2.5219,2.5219,2.5391,2.5693,2.5693,2.5523,2.8913,2.9745,3.0999,3.2924,3.3453,3.4967,0.0,4.0619,4.0018,4.211,4.3427,4.4172,4.4003,4.5205,4.6343,4.6583,4.7064,4.7425,4.7497,4.7497,4.7329,4.6848,4.7209,4.7497,4.7497,4.7497,4.7497,4.7497,4.793,4.8195,4.8195,4.8195,4.8195,4.8195,4.7738,4.7497,4.7497,4.7497,4.7497,4.7497,4.7497,4.7497,4.7497,4.7449,4.7161,4.6655,4.5614,4.5157,4.5061,4.4501,4.4285,4.4285,4.4213,4.3859,4.3216,4.2332,4.1971,4.1827,4.1297,4.0787,4.0306,3.9705,3.9173,3.8719,3.8142,3.8,3.8,3.8,3.8,3.8,3.8,3.8,3.8,3.8,3.8,3.8,3.7928,3.7108,3.6386,3.6314,3.5496,3.4799,3.4799,3.4799,3.4799,3.4799,3.4318,3.3838,3.3356,3.2779,3.2226,3.1743,3.1645,3.1623,3.1693,3.1015,3.0158,2.9166,2.7745,2.6596,2.5766,2.5255,2.5024,2.5024,2.5367,2.5581,2.564,2.564,2.5659,2.5693,2.5693,2.5679,3.3444,3.4053,3.4679,3.7132,3.8431,3.9801,4.2501,4.288,4.309,4.458,4.5493,4.6046,4.6142,4.6695,4.7161,4.7161,4.7353,4.7497,4.7497,4.7233,4.6848,4.6286,4.6407,4.6704,4.7016,4.7329,4.7497,4.7497,4.8002,4.8291,4.8291,4.8613,4.8782,4.8782,4.8243,4.7954,4.7954,4.7666,4.7497,4.7497,4.7497,4.7497,4.7497,4.7497,4.7476,4.7408,4.6119,4.5693,4.5779,4.4715,4.4285,4.4285,4.4285,4.4172,4.3835,4.2837,4.226,4.1923,4.1394,4.1028,4.0715,3.9874,3.9465,3.9104,3.8265,3.8,3.8,3.8,3.8,3.8,3.8,3.8,3.8,3.8,3.8,3.8,3.8,3.7397,3.6771,3.6459,3.5809,3.5159,3.4847,3.4799,3.4799,3.4799,3.4607,3.4294,3.3766,3.3284,3.2658,3.1789,3.1717,3.1717,3.1717,3.0947,3.034,2.9938,2.879,2.7954,2.7566,2.6736,2.6317,2.6317,2.5915,2.5693,2.5693,2.5693,2.5693,2.5693,2.5693,2.5854,3.5889,3.6994,3.8125,4.0311,4.2134,4.3511,4.3824,4.4443,4.5229,4.6142,4.6503,4.6824,4.7209,4.7161,4.7112,4.7257,4.7281,4.7329,4.7473,4.692,4.6343,4.595,4.5758,4.583,4.6214,4.6896,4.7353,4.7497,4.8122,4.8507,4.8507,4.9047,4.9335,4.9335,4.8652,4.8291,4.8291,4.7762,4.753,4.763,4.763,4.7696,4.7795,4.7795,4.7927,4.8076,4.6795,4.6311,4.6284,4.5042,4.4429,4.4285,4.4285,4.4285,4.4196,4.3174,4.2549,4.214,4.161,4.1321,4.1004,3.9946,3.9609,3.9417,3.8337,3.8,3.8,3.8,3.8,3.8,3.8,3.8,3.8,3.8,3.8,3.8,3.8,3.7591,3.7036,3.6507,3.5978,3.5424,3.4895,3.4799,3.4799,3.4799,3.4799,3.4607,3.4054,3.3477,3.2802,3.2008,3.1789,3.1717,3.1717,3.1025,3.0599,3.0599,2.967,2.912,2.912,2.8145,2.7487,2.7223,2.648,2.5989,2.5693,2.5693,2.5693,2.5693,2.5693,2.5952,3.4868,3.7518,4.0886,4.174,4.3505,4.5301,4.6335,4.6631,4.68,4.7353,4.7064,4.6695,4.6728,4.6286,4.6118,4.6655,4.6728,4.692,4.7425,4.6607,4.5902,4.5902,4.5445,4.5133,4.5157,4.6094,4.6944,4.7473,4.8459,4.9095,4.9095,4.96,4.9889,4.9889,4.8878,4.8291,4.8291,4.7762,4.7663,4.7993,4.7993,4.8182,4.8567,4.8567,4.8567,4.8518,4.7564,4.6875,4.6333,4.5428,4.4772,4.4285,4.4285,4.4285,4.4196,4.3174,4.2789,4.2693,4.2164,4.1634,4.1004,3.9946,3.9609,3.9417,3.8337,3.8,3.8,3.8,3.8,3.8,3.8,3.8,3.8,3.8,3.8,3.8,3.8,3.7591,3.7036,3.6507,3.5978,3.5424,3.4895,3.4799,3.4799,3.4799,3.4799,3.4607,3.4054,3.3141,3.2515,3.2491,3.2008,3.1717,3.1717,3.1673,3.1649,3.1649,3.0712,3.0147,3.0147,2.9189,2.8192,2.7203,2.7155,2.6672,2.5693,2.5693,2.5693,2.5693,2.5693,2.5952,3.8937,4.1142,4.3124,4.445,4.565,4.669,4.7392,4.7132,4.6655,4.6455,4.5734,4.4989,4.4628,4.4467,4.4635,4.5493,4.6214,4.6896,4.7425,4.7497,4.6968,4.5541,4.583,4.5734,4.4676,4.5541,4.6383,4.6944,4.7954,4.87,4.9095,4.9926,5.0431,5.0431,4.9952,4.9499,4.916,4.8895,4.8656,4.8412,4.8412,4.8445,4.86,4.86,4.8706,4.8885,4.7986,4.7609,4.7555,4.6078,4.5521,4.5427,4.4591,4.444,4.4546,4.3999,4.3361,4.2669,4.1779,4.1369,4.1105,4.0355,3.9898,3.9465,3.8767,3.8286,3.8,3.8,3.8,3.8,3.8,3.8,3.8,3.8,3.8,3.8,3.8,3.7856,3.7565,3.7036,3.6507,3.5978,3.5424,3.5039,3.4799,3.4799,3.4799,3.4607,3.4054,3.3694,3.3381,3.3068,3.2539,3.2226,3.2226,3.1887,3.1717,3.1717,3.1383,3.1205,3.1205,3.0238,2.9212,2.8215,2.7534,2.672,2.5693,2.5693,2.5693,2.5718,2.601,2.6387,4.2538,4.4289,4.547,4.6974,4.7685,4.7979,4.7922,4.7321,4.6512,4.566,4.4326,4.3186,4.2735,4.2375,4.2693,4.4268,4.5421,4.6535,4.7617,4.7762,4.7353,4.6359,4.6335,4.6142,4.5517,4.5878,4.631,4.6647,4.805,4.895,4.9095,5.0119,5.0731,5.0873,5.0562,5.02,4.9801,4.9532,4.9191,4.8772,4.8902,4.8967,4.8967,4.8967,4.9065,4.9242,4.8571,4.8266,4.8178,4.6718,4.6133,4.6013,4.5035,4.4779,4.4939,4.4505,4.3778,4.2818,4.2024,4.1538,4.11,4.0571,4.0042,3.9513,3.8957,3.8431,3.8,3.8,3.8,3.8,3.8,3.8,3.8,3.8,3.8,3.8,3.8,3.8,3.7856,3.73,3.6916,3.6459,3.5712,3.5159,3.4799,3.4799,3.4799,3.4679,3.4342,3.4102,3.3886,3.3597,3.3092,3.2779,3.2779,3.2297,3.1984,3.1984,3.1791,3.1717,3.1717,3.107,3.026,2.9258,2.8611,2.7791,2.6768,2.6404,2.6235,2.6255,2.6345,2.6621,4.5435,4.6737,4.7859,4.9134,4.9413,4.9059,4.7936,4.7216,4.6329,4.4902,4.2866,4.125,4.0921,4.009,4.0331,4.2928,4.434,4.5878,4.8002,4.7497,4.7257,4.8171,4.7016,4.6487,4.7458,4.7145,4.6881,4.6832,4.8719,4.9659,4.9201,5.0189,5.0908,5.1211,5.076,5.0396,5.0232,4.9675,4.9306,4.9137,4.9461,4.959,4.959,4.959,4.959,4.959,4.9267,4.8839,4.8284,4.7333,4.664,4.613,4.5527,4.53,4.5257,4.4716,4.3972,4.3211,4.2938,4.2121,4.1129,4.0623,4.0066,3.9513,3.9008,3.8455,3.8,3.8,3.8,3.8,3.8,3.8,3.8,3.8,3.8,3.8,3.8,3.8,3.7856,3.7324,3.7204,3.6819,3.576,3.5159,3.4799,3.4799,3.4799,3.4799,3.4799,3.4366,3.403,3.403,3.3621,3.3332,3.3332,3.2851,3.2539,3.2491,3.2032,3.1741,3.1717,3.1717,3.1227,3.0261,3.0192,2.9715,2.8747,2.7767,2.7295,2.7312,2.6758,2.6716,4.7438,4.881,4.9729,5.0056,4.9361,4.8397,4.7647,4.6062,4.414,4.1981,3.9825,3.7867,3.6398,3.7068,3.8551,4.0812,4.3746,4.6286,4.805,4.9109,4.9349,4.8411,4.8628,4.8643,4.8015,4.8864,4.9232,4.8729,4.8993,4.9534,5.0475,5.115,5.1576,5.1621,5.1812,5.1476,5.0578,4.99,4.9546,4.9461,4.9558,4.959,4.959,4.959,4.959,4.959,4.9493,4.9386,4.9185,4.7862,4.7364,4.7296,4.5859,4.5453,4.5611,4.5219,4.4459,4.3561,4.3502,4.2472,4.1206,4.1261,4.0551,3.9585,3.9441,3.8743,3.8,3.8,3.8,3.8,3.8,3.8,3.8,3.8,3.8,3.8,3.8,3.8,3.7976,3.7832,3.7156,3.6386,3.5737,3.5159,3.4799,3.4799,3.4799,3.4799,3.4799,3.4679,3.4607,3.4607,3.4126,3.3838,3.3838,3.338,3.2923,3.2539,3.237,3.2128,3.1717,3.1717,3.1417,3.0813,3.0399,2.9896,2.9296,2.8621,2.8526,2.8893,2.8242,2.8243,4.969,5.0695,5.1096,5.0845,4.9661,4.8051,4.6224,4.4175,4.1836,3.8887,3.6697,3.4945,3.376,3.4776,3.6649,3.9272,4.2615,4.5669,4.7978,4.9277,4.983,4.9397,4.98,4.9959,4.9509,5.0216,5.0676,5.0715,5.0376,5.0411,5.097,5.1501,5.189,5.2064,5.2273,5.1933,5.0972,5.0044,4.959,4.959,4.959,4.959,4.959,4.959,4.959,4.959,4.959,4.959,4.9515,4.8196,4.7752,4.7776,4.6301,4.5848,4.5999,4.5817,4.4972,4.3914,4.406,4.2908,4.1402,4.1549,4.0704,3.9609,3.9609,3.8839,3.8,3.8,3.8,3.8,3.8,3.8,3.8,3.8,3.8,3.8,3.8,3.8,3.8,3.8,3.7132,3.6314,3.6002,3.5304,3.4799,3.4799,3.4799,3.4799,3.4799,3.4799,3.4799,3.4799,3.4535,3.4366,3.4366,3.3886,3.3477,3.3165,3.2971,3.273,3.2417,3.2393,3.2287,3.2019,3.1714,3.1437,3.1177,3.0413,3.0224,3.0491,2.9839,2.9706,5.1674,5.2051,5.1875,5.1297,4.9791,4.7581,4.4288,4.1991,3.9532,3.5815,3.3738,3.2417,3.1978,3.2875,3.4775,3.8043,4.1249,4.445,4.781,4.8748,4.9504,5.0646,5.0613,5.0736,5.1303,5.125,5.1555,5.2396,5.2134,5.1738,5.128,5.1689,5.2099,5.2481,5.2331,5.1945,5.1331,5.0167,4.959,4.959,4.959,4.959,4.959,4.959,4.959,4.959,4.959,4.959,4.9515,4.8385,4.7908,4.7807,4.6728,4.6301,4.6301,4.6301,4.542,4.4294,4.4502,4.3317,4.1663,4.1663,4.0761,3.9664,3.9609,3.8894,3.808,3.8027,3.8027,3.8027,3.8,3.8,3.8,3.8,3.8,3.8,3.8,3.8,3.8,3.8,3.718,3.6483,3.6411,3.5568,3.4871,3.4823,3.4799,3.4799,3.4799,3.4799,3.4799,3.4799,3.4799,3.4799,3.4799,3.4366,3.4078,3.4006,3.3621,3.3356,3.3284,3.3284,3.3308,3.338,3.3332,3.3308,3.338,3.2465,3.2016,3.2061,3.1408,3.1161,5.1774,5.1774,5.1297,5.072,4.8636,4.5914,4.2862,4.0108,3.7072,3.3126,3.1538,3.0424,2.9023,3.0598,3.3283,3.6892,3.9829,4.3198,4.7666,4.8748,4.9607,5.095,5.1068,5.1359,5.2109,5.2174,5.2322,5.2792,5.2757,5.2673,5.2573,5.2673,5.2757,5.2826,5.1924,5.144,5.1306,5.0167,4.959,4.959,4.959,4.959,4.959,4.959,4.959,4.959,4.959,4.959,4.9515,4.8385,4.7908,4.7807,4.6728,4.6301,4.6301,4.6301,4.5538,4.4531,4.456,4.3457,4.2001,4.2001,4.1069,3.9888,3.9692,3.9137,3.8579,3.8106,3.8159,3.8289,3.8053,3.8,3.8,3.8,3.8,3.8,3.8,3.8,3.8,3.8,3.7469,3.6916,3.6483,3.5881,3.5304,3.4871,3.4799,3.4799,3.4799,3.4799,3.4799,3.4799,3.4799,3.4799,3.4799,3.4727,3.4487,3.403,3.391,3.3693,3.3331,3.3284,3.3477,3.3886,3.3501,3.3501,3.3886,3.3313,3.3243,3.3577,3.2614,3.2501,5.1373,5.1272,5.0695,5.0142,4.7933,4.4861,4.0958,3.7841,3.4627,3.0572,2.9112,2.8444,2.7937,2.9494,3.1815,3.4679,3.7156,4.0355,4.514,4.6511,4.7901,5.0218,5.1101,5.1656,5.2064,5.2446,5.2723,5.2895,5.3563,5.3666,5.2929,5.2895,5.277,5.2468,5.1699,5.1147,5.082,5.0017,4.959,4.959,4.959,4.959,4.959,4.959,4.959,4.959,4.959,4.9439,4.9145,4.8259,4.7757,4.74,4.6627,4.6301,4.6301,4.6301,4.5598,4.4589,4.4589,4.3576,4.2312,4.2312,4.1436,4.0366,4.015,3.968,3.9104,3.8414,3.8291,3.8342,3.8053,3.8,3.8,3.8,3.8,3.8,3.8,3.8,3.8,3.8,3.7591,3.7108,3.6867,3.6146,3.5496,3.5256,3.4967,3.4799,3.4799,3.4799,3.4799,3.4799,3.4799,3.4799,3.4799,3.4799,3.4703,3.4438,3.4438,3.4318,3.4102,3.4078,3.4174,3.4414,3.4198,3.4174,3.4438,3.4174,3.4198,3.439,3.3907,3.3928,5.0795,5.0704,5.0137,4.9493,4.7176,4.3883,3.9206,3.5861,3.2597,2.8597,2.726,2.693,2.7445,2.8667,3.0398,3.2898,3.4751,3.7637,4.2639,4.434,4.6303,4.9566,5.1056,5.1855,5.203,5.255,5.2895,5.2895,5.4182,5.4518,5.3418,5.2941,5.2553,5.2126,5.1448,5.087,5.0386,4.9866,4.959,4.959,4.959,4.959,4.959,4.959,4.959,4.959,4.9464,4.9163,4.8743,4.8033,4.7475,4.7048,4.6496,4.6301,4.6301,4.6175,4.5497,4.4564,4.4464,4.3562,4.2513,4.2569,4.1861,4.0929,4.0581,4.0173,3.958,3.8646,3.8421,3.8342,3.8053,3.8,3.8,3.8,3.8,3.8,3.8,3.8,3.8,3.8,3.7663,3.7324,3.7204,3.6411,3.5712,3.5616,3.5135,3.4799,3.4799,3.4799,3.4799,3.4799,3.4799,3.4799,3.4799,3.4799,3.4799,3.4799,3.4799,3.4799,3.4799,3.4799,3.4799,3.4799,3.4799,3.4799,3.4799,3.4799,3.4799,3.4799,3.4799,3.4969,5.0193,5.0214,4.9709,4.8697,4.6136,4.268,3.8095,3.474,3.1507,2.7777,2.6723,2.656,2.6911,2.7493,2.9079,3.2707,3.3814,3.6241,4.2043,4.4154,4.6351,4.9768,5.1122,5.2064,5.2723,5.2861,5.2895,5.2895,5.4182,5.4927,5.482,5.3139,5.2151,5.2101,5.1071,5.0469,5.0386,4.9866,4.959,4.959,4.959,4.959,4.959,4.959,4.959,4.9565,4.9095,4.8843,4.8718,4.76,4.7149,4.7048,4.6496,4.6301,4.625,4.5748,4.5171,4.4514,4.4041,4.329,4.2541,4.2874,4.236,4.148,4.0742,4.0283,3.9821,3.8725,3.8421,3.8342,3.8053,3.8,3.8,3.8,3.8,3.8,3.8,3.8,3.8,3.8,3.7976,3.7784,3.7276,3.6723,3.617,3.5664,3.5135,3.4799,3.4799,3.4799,3.4799,3.4799,3.4799,3.4799,3.4799,3.4799,3.4799,3.4799,3.4799,3.4799,3.4799,3.4799,3.4799,3.4799,3.4799,3.4799,3.4799,3.4799,3.4799,3.4799,3.4799,3.5066,4.7708,4.8407,4.8382,4.7122,4.4913,4.192,3.7687,3.4127,3.0821,2.7551,2.6274,2.5991,2.6748,2.7066,2.8022,3.0494,3.1048,3.2704,3.7121,3.9261,4.2031,4.6662,4.8772,5.0607,5.24,5.3529,5.4518,5.53,5.5894,5.6061,5.5681,5.4922,5.4149,5.3433,5.2991,5.2192,5.1061,5.083,5.0372,4.959,4.959,4.959,4.959,4.9296,4.9145,4.9095,4.851,4.8083,4.7757,4.7274,4.6898,4.6597,4.6401,4.61,4.5799,4.5573,4.492,4.4091,4.3865,4.3354,4.2821,4.2958,4.2554,4.1866,4.118,4.0686,4.0111,3.8962,3.8788,3.8815,3.8159,3.8,3.8,3.8,3.8,3.8,3.8,3.8,3.8,3.8,3.8,3.7952,3.7735,3.6964,3.6338,3.6122,3.5352,3.4799,3.4799,3.4799,3.4799,3.4799,3.4799,3.4799,3.4799,3.4799,3.4799,3.4799,3.4799,3.4799,3.4799,3.4799,3.4799,3.4799,3.4799,3.4799,3.4799,3.4799,3.4872,3.5042,3.5042,3.5332,4.5276,4.6442,4.6816,4.5503,4.3325,4.0548,3.6997,3.335,3.0046,2.7705,2.6322,2.5859,2.6922,2.7138,2.7613,2.9076,2.9477,3.0839,3.4267,3.6421,3.9412,4.4209,4.696,4.9454,5.1934,5.427,5.5992,5.6941,5.7195,5.7063,5.646,5.6641,5.5991,5.4344,5.4155,5.3428,5.2081,5.1678,5.1048,5.0174,4.9607,4.9339,4.9339,4.8793,4.8542,4.8485,4.7933,4.745,4.7099,4.6923,4.6622,4.6301,4.6301,4.5974,4.5472,4.5296,4.4618,4.379,4.3614,4.3313,4.307,4.3406,4.3007,4.2374,4.2312,4.1589,4.069,4.0056,3.993,3.9827,3.9234,3.8765,3.8475,3.8475,3.8238,3.8,3.8,3.8,3.8,3.8,3.8,3.8,3.8,3.7228,3.6579,3.6435,3.5616,3.4967,3.4823,3.4799,3.4799,3.4799,3.4799,3.4799,3.4799,3.4799,3.4799,3.4799,3.4799,3.4799,3.4799,3.4799,3.4799,3.4799,3.4799,3.4799,3.4799,3.4872,3.5017,3.5211,3.5284,3.5572,4.3388,4.4546,4.5085,4.3984,4.1245,3.8195,3.5769,3.2164,2.9064,2.8169,2.6989,2.643,2.7493,2.7685,2.8046,2.9124,2.9915,3.1603,3.5112,3.7374,3.9937,4.329,4.6378,4.9148,5.1475,5.4895,5.6973,5.7006,5.7695,5.7821,5.7232,5.7855,5.7074,5.4379,5.3778,5.351,5.348,5.2143,5.1492,5.146,4.9653,4.8818,4.8793,4.8184,4.7908,4.7883,4.7324,4.7124,4.7074,4.6552,4.6326,4.6301,4.6301,4.5974,4.5422,4.4815,4.4292,4.3714,4.319,4.3014,4.3184,4.4315,4.3885,4.3101,4.4254,4.3165,4.1696,4.2244,4.1985,4.1566,4.1541,4.0566,3.9571,3.9571,3.8765,3.8,3.8,3.8,3.8,3.8,3.8,3.8,3.8,3.7541,3.7012,3.6483,3.5954,3.54,3.4871,3.4799,3.4799,3.4799,3.4799,3.4799,3.4799,3.4799,3.4799,3.4799,3.4799,3.4799,3.4799,3.4799,3.4799,3.4799,3.4799,3.4799,3.4799,3.5066,3.5211,3.5211,3.5476,3.574,3.759,3.8753,3.9224,3.778,3.6455,3.4892,3.2528,3.0319,2.8354,2.7005,2.6082,2.5781,2.6478,2.6598,2.744,2.9986,3.0582,3.175,3.4649,3.799,4.1395,4.4815,5.0564,5.4867,5.6592,5.7356,5.7737,5.7737,5.8459,5.822,5.6588,5.7627,5.7686,5.6391,5.6192,5.5674,5.4797,5.4382,5.3085,5.0943,5.0354,4.9444,4.8159,4.7631,4.735,4.7324,4.6772,4.6547,4.6522,4.6376,4.6075,4.5748,4.5748,4.5171,4.4317,4.4116,4.3714,4.324,4.3065,4.3014,4.3106,4.3795,4.3519,4.3151,4.459,4.3797,4.2422,4.2409,4.201,4.1591,4.1591,4.1169,4.0692,4.0692,4.044,4.0185,4.0185,4.0185,3.9956,3.926,3.9104,3.887,3.8133,3.7567,3.7012,3.6483,3.5928,3.54,3.4871,3.4799,3.4799,3.4799,3.4799,3.4799,3.4799,3.4799,3.4799,3.4799,3.4799,3.4799,3.4799,3.4799,3.4799,3.4799,3.4799,3.4896,3.5066,3.5138,3.5404,3.574,3.6027,3.6168,3.3518,3.4956,3.542,3.4207,3.3209,3.2133,3.0528,2.8842,2.7387,2.6667,2.6028,2.5781,2.6291,2.6574,2.7368,2.9364,3.029,3.1605,3.4139,3.8039,4.2424,4.7271,5.2566,5.6432,5.795,5.8382,5.8552,5.8552,5.878,5.8378,5.7045,5.7571,5.7739,5.7303,5.7303,5.6907,5.6107,5.5391,5.4093,5.211,5.1173,4.9845,4.8263,4.7703,4.7232,4.6772,4.6451,4.6301,0.0,4.6075,4.5799,4.5502,4.5246,4.4593,4.379,4.379,4.372,4.3655,4.3655,4.3905,4.4322,4.481,4.4705,4.4494,4.5218,4.4767,4.3914,4.3748,4.3416,4.3054,4.3054,4.2498,4.1936,4.1936,4.1568,4.1194,4.1194,4.1194,4.0994,4.0338,4.0211,3.9981,3.9313,3.891,3.8538,3.7991,3.7444,3.675,3.5819,3.5838,3.5643,3.4872,3.5138,3.5355,3.5355,3.5017,3.4799,3.4799,3.4799,3.4799,3.4799,3.4799,3.4799,3.4799,3.4896,3.5017,3.5211,3.5404,3.574,3.6146,3.631,3.6405,0.0,3.2511,3.2993,3.2505,3.1094,2.9735,2.9387,2.7642,0.0,2.6936,2.6511,2.6238,2.6873,2.7325,2.7709,2.8094,2.9613,3.1612,3.4123,3.8375,4.3773,5.066,5.313,5.4882,5.6465,5.8203,5.9248,5.9248,5.861,5.8232,5.8232,5.7652,5.7274,5.7245,5.7245,5.7245,5.7245,5.5453,5.4486,5.4344,5.1974,5.0193,4.894,4.8358,4.7534,4.6541,4.6361,4.6336,4.632,4.5757,4.5447,4.5321,4.4769,4.4242,4.374,4.374,4.4145,4.4697,4.4697,4.5369,4.6313,4.6804,4.6871,4.6627,4.6069,4.5917,4.5917,4.5895,4.5685,4.5481,4.5458,4.4387,4.3297,4.3297,4.233,4.1419,4.1419,4.1419,4.1419,4.1319,4.1319,4.1294,4.1219,4.1194,4.101,4.0407,3.986,3.8951,3.745,3.7577,3.708,3.5211,3.5858,3.6427,3.6427,3.5403,3.4848,3.5017,3.4945,3.4945,3.5017,3.4969,3.4945,3.4945,3.5163,3.5283,3.5356,3.5812,3.6193,3.6499,3.6428,3.6405,2.6009,0.0,2.7435,2.7163,2.7182,2.7099,0.0,2.6202,2.6039,2.5787,2.5624,2.6045,2.7806,2.7205,2.7806,3.1845,3.3388,3.5223,3.8586,4.4957,5.0923,5.5367,5.7139,5.8176,5.8581,5.8581,5.8552,5.8552,5.7913,5.7536,5.7536,5.739,5.71,5.6636,5.6607,5.6607,5.6607,5.5663,5.4508,5.3107,5.2519,5.1345,4.9635,4.8582,4.8442,4.8961,4.7087,4.659,4.6979,4.591,4.497,4.4192,4.4041,4.3664,4.319,4.319,4.384,4.4697,4.4697,4.5103,4.5607,4.564,4.585,4.6098,4.5946,4.5917,4.5872,4.564,4.5549,4.5413,4.5075,4.47,4.4373,4.4186,4.3875,4.3638,4.3638,4.3638,4.3423,4.2574,4.2428,4.2159,4.1344,4.1194,4.0855,3.986,3.9599,3.906,3.7811,3.7762,3.7638,3.715,3.7289,3.7428,3.7428,3.581,3.5451,3.6987,3.6355,3.6309,3.7057,3.6568,3.6238,3.6238,3.5954,3.6168,3.6894,3.6474,3.6711,3.7453,3.6734,3.6405,2.4059,2.5177,2.6227,2.6376,2.6721,2.6879,2.6478,2.6051,2.5661,2.5372,2.5492,2.6039,2.7313,2.7878,2.9064,3.1902,3.4622,3.8286,4.3694,4.8674,5.3075,5.6738,5.7888,5.8377,5.8377,5.8058,5.7855,5.7855,5.7507,5.7303,5.7303,5.7042,5.6752,5.6432,5.5852,5.5678,5.5939,5.5329,5.4483,5.3511,5.3226,5.2231,5.0685,4.9477,4.9278,4.976,4.7071,4.6462,4.7176,4.5447,4.4342,4.379,4.3514,4.3266,4.3045,4.36,4.4324,4.5102,4.5627,4.5905,4.6041,4.5945,4.593,4.5917,4.5917,4.5917,4.5872,4.5708,4.5663,4.5595,4.5207,4.5115,4.5023,4.4681,4.4588,4.4565,4.4448,4.4401,4.4233,4.3662,4.3515,4.3348,4.2771,4.243,4.2052,4.1426,4.0835,4.0079,3.9024,3.9047,3.8769,3.7913,3.8183,3.8455,3.8455,3.7057,3.6637,3.7727,3.7289,3.7266,3.7906,3.754,3.7425,3.7655,3.7402,3.7586,3.8225,3.7861,3.7955,3.8432,3.7933,3.7681,2.3914,2.5685,2.7301,2.7421,2.7637,2.7781,2.7613,2.6508,2.5546,2.5546,2.5925,2.6437,2.7125,2.9164,3.0978,3.1672,3.5943,4.161,4.864,5.0924,5.3102,5.6507,5.7134,5.7303,5.7303,5.7303,5.7274,5.7158,5.7158,5.7129,5.7013,5.6549,5.6229,5.6113,5.5068,5.472,5.5126,5.4577,5.4371,5.4316,5.3791,5.2912,5.1806,5.0574,5.0075,4.9966,4.6959,4.6238,4.7118,4.4766,4.374,4.3639,4.319,4.3014,4.3129,4.4157,4.4891,4.5552,4.6647,4.6938,4.6772,4.6685,4.633,4.5917,4.5917,4.5917,4.5917,4.5917,4.5917,4.585,4.5526,4.5435,4.5321,4.4867,4.4751,4.4681,4.4472,4.4401,4.4401,4.4401,4.4401,4.4369,4.4284,4.3835,4.3441,4.3245,4.2289,4.1273,4.0384,4.0519,4.0055,3.8409,3.8944,3.9431,3.9431,3.8702,3.8228,3.8228,3.8092,3.8137,3.8383,3.8405,3.8536,3.8845,3.8845,3.905,3.9409,3.9277,3.9277,3.9409,3.9277,3.921,2.5107,2.7296,2.8522,2.6791,2.7368,2.8142,2.7229,2.6825,2.6657,2.6657,2.6705,2.769,3.0685,3.1568,3.3229,3.7415,4.2166,4.7007,5.1801,5.3372,5.4715,5.6678,5.7134,5.7303,5.7303,5.7303,5.71,5.6578,5.6549,5.6287,5.5736,5.562,5.5329,5.4809,5.4577,5.4284,5.3793,5.3677,5.3648,5.3648,5.3559,5.3161,5.2428,5.1213,5.0902,5.1127,4.7669,4.6601,4.7109,4.4773,4.3539,4.3115,4.3039,4.3014,4.3078,4.3638,4.4519,4.5518,4.649,4.6836,4.6714,4.6214,4.5982,4.5917,4.5917,4.5917,4.5917,4.5917,4.5917,4.5776,4.5299,4.5155,4.5046,4.456,4.4472,4.4472,4.4425,4.4401,4.4401,4.4401,4.4401,4.4256,4.3722,4.3554,4.3132,4.2042,4.1727,4.1353,4.0718,4.0658,4.058,4.03,4.0386,4.0473,4.0473,4.0343,4.0229,4.0229,3.9458,3.9188,3.9684,3.9706,3.9524,3.9166,3.9144,3.9536,4.0389,3.9607,3.9629,4.0389,3.9585,3.921,2.4379,2.6406,2.7974,2.7849,2.9656,3.129,3.0521,2.9917,2.9412,2.9124,2.9292,3.0067,3.1907,3.3471,3.6347,4.2129,4.5014,4.8036,5.2282,5.3499,5.4438,5.5698,5.6093,5.6287,5.6287,5.6287,5.6171,5.5881,5.5881,5.5736,5.5416,5.5097,5.4807,5.449,5.4168,5.3793,5.3474,5.3181,5.3181,5.3474,5.3181,5.2888,5.2543,5.0968,5.0735,5.1407,4.8189,4.7325,4.8009,4.5384,4.4468,4.4643,4.3489,4.3534,4.4308,4.4446,4.5225,4.6163,4.6276,4.633,4.6272,4.5982,4.5917,4.5917,4.5917,4.5917,4.5917,4.5917,4.5917,4.5776,4.5253,4.523,4.5161,4.4537,4.4518,4.4588,4.4448,4.4401,4.4401,4.4401,4.4144,4.3835,4.3554,4.2935,4.2289,4.1699,4.1334,4.1025,4.0744,4.0688,4.0688,4.0688,4.0688,4.0688,4.0688,4.0688,4.0688,4.0688,4.0488,4.0488,4.073,4.1015,4.1008,4.0766,4.0766,4.0979,4.1402,4.0979,4.0979,4.1402,4.1078,4.093,2.3801,2.5588,2.745,2.91,3.129,3.3141,3.3404,3.2561,3.1719,3.1815,3.2152,3.262,3.3291,3.5868,3.9874,4.5957,4.7132,4.8626,5.257,5.3497,5.4062,5.5001,5.528,5.5416,5.5416,5.5416,5.5358,5.5213,5.5184,5.5126,5.4981,5.4517,5.4284,5.4284,5.3646,5.3297,5.3297,5.2659,5.2659,5.3297,5.2659,5.2307,5.2107,5.066,5.0423,5.0994,4.8454,4.7921,4.8593,4.6088,4.5475,4.5921,4.4218,4.4282,4.534,4.5243,4.5803,4.6511,4.604,4.5917,4.5917,4.5917,4.5917,4.5917,4.5917,4.5917,4.5917,4.5917,4.5872,4.5685,4.523,4.5253,4.523,4.456,4.4565,4.4658,4.4448,4.4312,4.42,4.42,4.3694,4.3245,4.3076,4.2261,4.1537,4.1418,4.0997,4.0688,4.0688,4.0688,4.0688,4.0688,4.0688,4.0688,4.0688,4.0688,4.0688,4.0688,4.1057,4.129,4.1396,4.176,4.1989,4.2092,4.2092,4.2092,4.2092,4.2092,4.2113,4.2175,4.231,4.2433,2.465,2.6388,2.8022,2.9629,3.0206,3.0999,3.3405,3.2779,3.2224,3.4126,3.4559,3.4944,3.6177,3.9498,4.3691,4.8636,4.9615,5.0814,5.3932,5.4403,5.4664,5.5302,5.5389,5.5416,5.5416,5.5416,5.5184,5.4606,5.4548,5.4287,5.3675,5.359,5.3588,5.3588,5.2978,5.2655,5.2655,5.1991,5.202,5.2655,5.1991,5.1381,5.0826,5.0722,5.0345,4.9765,4.8484,4.7976,4.7976,4.6712,4.589,4.5454,4.5299,4.523,4.5188,4.52,4.5518,4.5953,4.5917,4.5917,4.5917,4.5917,4.5917,4.5917,4.5917,4.5917,4.5917,4.5917,4.5708,4.5458,4.5184,4.5087,4.5023,4.4513,4.4425,4.4425,4.4401,4.3975,4.3554,4.3554,4.3076,4.248,4.1818,4.1649,4.1418,4.0856,4.0716,4.0688,4.0688,4.0688,4.0688,4.0688,4.0688,4.0688,4.0688,4.0688,4.0688,4.0688,4.0709,4.0972,4.1375,4.1438,4.1647,4.2092,4.2092,4.2092,4.2092,4.2092,4.2195,4.2372,4.2392,4.2514,2.3585,2.5997,2.8502,2.9773,3.1336,3.2948,3.4631,3.5593,3.6639,3.8581,3.8359,3.8105,3.9121,4.1235,4.4175,4.8333,4.953,5.0869,5.3523,5.3907,5.3938,5.4171,5.4226,5.4226,5.4226,5.4226,5.4113,5.388,5.353,5.3207,5.2975,5.2543,5.2314,5.2314,5.2107,5.1991,5.1991,5.1352,5.1174,5.1407,5.1149,5.0942,5.0681,5.0274,4.9954,4.9669,4.9223,4.8821,4.8354,4.7256,4.6842,4.687,4.6449,4.5833,4.524,4.5531,4.5751,4.5917,4.5917,4.5917,4.5917,4.5917,4.5917,4.5917,4.5917,4.5917,4.5962,4.6254,4.6247,4.6023,4.5299,4.5023,4.4862,4.4705,4.4542,4.4336,4.4075,4.3753,4.3385,4.3014,4.2402,4.1896,4.1621,4.1306,4.0969,4.0716,4.0688,4.0688,4.0688,4.0688,4.0688,4.0688,4.0688,4.0688,4.0688,4.0688,4.0688,4.0688,4.0837,4.105,4.1396,4.1543,4.1752,4.2092,4.2092,4.2092,4.2092,4.2092,4.2216,4.2392,4.2535,4.2688,2.349,2.5859,2.8546,2.9877,3.2006,3.4174,3.5761,3.7372,3.9131,4.123,4.1139,4.1012,4.2133,4.2656,4.4177,4.81,4.9025,5.0236,5.3095,5.3474,5.3442,5.3239,5.321,5.3123,5.2923,5.2894,5.2894,5.2894,5.2514,5.2281,5.2281,5.1846,5.1588,5.1588,5.1439,5.1323,5.1323,5.071,5.039,5.039,5.039,5.039,5.0361,4.9896,4.9577,4.9378,4.9378,4.903,4.8349,4.7624,4.7372,4.7404,4.6766,4.6068,4.5476,4.579,4.5917,4.5917,4.5917,4.5917,4.5917,4.5917,4.5917,4.5895,4.5776,4.5962,4.618,4.655,4.677,4.6726,4.6032,4.5498,4.5092,4.5052,4.4558,4.405,4.376,4.3274,4.2767,4.2345,4.1755,4.1334,4.1334,4.0969,4.0688,4.0688,4.0688,4.0688,4.0688,4.0688,4.0688,4.0688,4.0688,4.0603,4.0435,4.0407,4.0322,4.0147,4.0266,4.0561,4.1061,4.129,4.1517,4.1773,4.1773,4.1889,4.2092,4.2092,4.2257,4.2494,4.2421,4.2554,2.4837,2.6275,2.8177,2.9966,3.1898,3.4053,3.6627,3.7637,3.8794,4.1442,4.2546,4.352,4.5156,4.3986,4.4094,4.8322,4.8319,4.9144,5.2956,5.35,5.3268,5.2655,5.2597,5.2336,5.1646,5.1588,5.1588,5.1588,5.1588,5.1588,5.1588,5.1588,5.1559,5.1559,5.1004,5.0681,5.0681,5.0013,4.9693,4.9693,4.9693,4.9693,4.9693,4.9693,4.932,4.8687,4.8687,4.8362,4.7805,4.7776,4.7375,4.6743,4.6127,4.5917,4.5917,4.5917,4.5917,4.5917,4.5917,4.5917,4.5917,4.5917,4.5917,4.5872,4.5595,4.6023,4.6646,4.6777,4.7138,4.7512,4.7482,4.6667,4.5769,4.5543,4.447,4.352,4.3492,4.2486,4.1615,4.1615,4.1109,4.0709,4.0709,4.0709,4.0709,4.0709,4.0709,4.0709,4.0709,4.0709,4.0688,4.0709,4.0688,4.0435,3.9866,3.9781,3.9528,3.8958,3.8902,3.934,4.0326,4.0658,4.0882,4.1105,4.1076,4.1424,4.2063,4.2063,4.229,4.2679,4.199,4.1932,2.4341,2.7242,3.0532,3.1148,3.4412,3.7679,3.8677,3.9296,4.0114,4.1682,4.2868,4.3826,4.4414,4.4436,4.5467,4.8685,4.9399,5.0161,5.1921,5.214,5.2082,5.1933,5.1904,5.1817,5.1617,5.1588,5.1588,5.1588,5.1207,5.0946,5.0946,5.0535,5.0249,5.0249,5.01,5.0013,5.0013,4.932,4.9001,4.9001,4.8566,4.8566,4.9001,4.9001,4.8653,4.8072,4.8072,4.7695,4.7062,4.6621,4.6353,4.6156,4.5953,4.5917,4.5917,4.5917,4.5917,4.5917,4.5917,4.5917,4.5917,4.5917,4.5917,4.5962,4.618,4.6616,4.7111,4.7529,4.7955,4.817,4.768,4.6975,4.6253,4.5872,4.498,4.4028,4.3293,4.2697,4.2188,4.1731,4.1851,4.2017,4.2017,4.2017,4.2017,4.2017,4.2017,4.2017,4.2017,4.1233,4.088,4.1367,4.059,4.0006,3.9837,3.9416,3.9078,3.893,3.9187,3.9446,3.9739,3.9828,4.0049,4.0379,4.0408,4.0495,4.0699,4.0699,4.0938,4.1352,4.1145,4.1289,2.6584,2.9322,3.2244,3.3686,3.6252,3.8742,3.9977,4.0643,4.1417,4.2763,4.341,4.3883,4.4271,4.4441,4.5412,4.8068,4.8852,4.9691,5.1374,5.1588,5.1501,5.1265,5.1236,5.1149,5.0859,5.0859,5.0859,5.0859,5.0506,5.0303,5.0303,4.9925,4.9577,4.9291,4.9291,4.9175,4.8938,4.8537,4.8333,4.8333,4.7956,4.784,4.7961,4.8223,4.8014,4.7375,4.7166,4.6824,4.6417,4.604,4.5917,4.5917,4.5917,4.5917,4.5917,4.5917,4.5917,4.5917,4.5917,4.5917,4.5962,4.6284,4.6417,4.6528,4.7076,4.7297,4.7446,4.7822,4.8019,4.7985,4.7603,4.7199,4.6681,4.5957,4.4945,4.3986,4.3348,4.2886,4.249,4.2154,4.2345,4.2589,4.2589,4.2589,4.2589,4.2589,4.2589,4.2609,4.2638,4.1711,4.1216,4.1628,4.0723,3.9918,3.9447,3.9078,3.8705,3.8291,3.8482,3.8699,3.8857,3.9213,3.9486,3.9741,3.9741,3.9857,4.0089,4.0168,4.0432,4.0811,4.0602,4.0694,3.0056,3.1722,3.3304,3.674,3.7581,3.819,4.0619,4.1615,4.2423,4.4003,4.3872,4.373,4.4519,4.4239,4.4679,4.6998,4.7454,4.8437,5.1074,5.1414,5.1236,5.0681,5.0622,5.0361,4.9751,4.9693,4.9664,4.9606,4.9606,4.9577,4.9519,4.9519,4.9257,4.8629,4.8629,4.8362,4.7805,4.7747,4.7718,4.7718,4.766,4.7317,4.6743,4.7404,4.7346,4.6685,4.6127,4.5917,4.5917,4.5917,4.5917,4.5917,4.5917,4.5917,4.5917,4.5917,4.5917,4.5917,4.5917,4.5917,4.6046,4.6915,4.7189,4.734,4.7951,4.7927,4.7669,4.7676,4.7492,4.7282,4.7181,4.7131,4.6865,4.5779,4.4573,4.3673,4.3614,4.3112,4.269,4.269,4.273,4.277,4.277,4.277,4.2741,4.2682,4.2641,4.2621,4.2672,4.2001,4.1528,4.1588,4.0949,4.0051,3.8996,3.8823,3.839,3.7423,3.7366,3.7548,3.7853,3.8659,3.9083,3.9102,3.9102,3.9392,3.9915,4.014,4.0353,4.0604,4.0213,4.0133,2.8543,3.0708,3.3207,3.6719,3.8983,4.0475,4.1081,4.1446,4.1772,4.2156,4.2322,4.279,4.4061,4.5102,4.6212,4.7626,4.8597,4.9408,5.0026,5.0129,5.0071,4.9925,4.9925,4.9867,4.9722,4.9693,4.9465,4.8948,4.8943,4.8711,4.8241,4.8212,4.8154,4.7985,4.7985,4.795,4.7805,4.7288,4.7004,4.7004,4.6534,4.6214,4.6098,4.6714,4.6679,4.6098,4.5953,4.5917,4.5917,4.5917,4.5917,4.5917,4.5917,4.5917,4.5917,4.5917,4.5917,4.5917,4.5917,4.5917,4.6046,4.6915,4.7189,4.7272,4.7629,4.7883,4.7907,4.7102,4.7083,4.708,4.6191,4.5959,4.5777,4.4991,4.4566,4.4228,4.3708,4.3498,4.3379,4.3379,4.381,4.4159,4.4159,4.4159,4.3976,4.3457,4.2927,4.2623,4.2631,4.1547,4.1016,4.1534,4.0588,3.9774,3.9513,3.9063,3.8516,3.7806,3.792,3.7901,3.7682,3.8016,3.8245,3.8405,3.8405,3.8492,3.8609,3.8798,3.9004,3.9228,3.9295,3.9419,2.8683,3.1805,3.5178,3.8817,4.0275,4.0917,4.1301,4.1492,4.1663,4.183,4.2086,4.2681,4.3962,4.4481,4.5262,4.6919,4.7689,4.8161,4.8427,4.8889,4.9117,4.8822,4.8793,4.8793,4.8793,4.8793,4.8647,4.8304,4.8275,4.813,4.7834,4.7805,4.766,4.7346,4.7317,4.7172,4.6905,4.6534,4.6388,4.6388,4.604,4.5917,4.5917,4.6243,4.6214,4.5917,4.5917,4.5917,4.5917,4.5917,4.5917,4.5917,4.5917,4.5917,4.5917,4.5917,4.5917,4.5956,4.6373,4.6035,4.5683,4.7408,4.7341,4.6758,4.7757,4.7668,4.7131,4.6575,4.6226,4.5846,4.5295,4.5114,4.5022,4.4683,4.4588,4.4508,4.4154,4.4093,4.4093,4.4093,4.4362,4.4591,4.4591,4.4314,4.3882,4.3236,4.2817,4.2602,4.2609,4.1729,4.1192,4.1553,4.068,3.9997,3.9723,3.9396,3.9017,3.8519,3.873,3.8675,3.8202,3.8416,3.8435,3.8202,3.8202,3.8202,3.8202,3.8501,3.8705,3.8815,3.909,3.9301,2.8689,3.3022,3.7415,4.0873,4.1324,4.1058,4.1668,4.1882,4.2022,4.2323,4.2445,4.2827,4.3915,4.3724,4.4027,4.5943,4.6435,4.6705,4.7158,4.7985,4.8362,4.7863,4.7805,4.7805,4.7805,4.7805,4.7747,4.766,4.7631,4.7579,4.7486,4.7486,4.7201,4.6656,4.6627,4.6417,4.5917,4.5917,4.5917,4.5917,4.5917,4.5917,4.5917,4.5917,4.5917,4.5917,4.5917,4.5917,4.5917,4.5917,4.5917,4.5917,4.5917,4.5917,4.5888,4.5772,4.5743,4.5848,4.6596,4.6008,4.5349,4.7802,4.7528,4.646,4.7801,4.7333,4.6247,4.5989,4.5289,4.4591,4.4591,4.4591,4.4591,4.4591,4.4591,4.4591,4.4591,4.4591,4.4591,4.4591,4.4498,4.4375,4.4245,4.3771,4.3187,4.2473,4.2399,4.2368,4.2245,4.1753,4.1401,4.1401,4.0861,4.0301,3.9892,3.9857,3.9679,3.9217,3.9475,3.9338,3.8723,3.8969,3.8822,3.8165,3.8183,3.8202,3.8202,3.8612,3.8815,3.8815,3.921,3.9391,2.5986,3.1761,3.7614,4.0067,4.1771,4.2788,4.2681,4.3023,4.3336,4.3388,4.2915,4.2755,4.3614,4.4494,4.532,4.6008,4.6954,4.763,4.7686,4.7827,4.7892,4.7805,4.7805,4.7805,4.7805,4.7805,4.755,4.6975,4.6946,4.6708,4.6179,4.615,4.6121,4.6011,4.6011,4.5982,4.5917,4.5917,4.5917,4.5917,4.5917,4.5917,4.5917,4.5917,4.5917,4.5917,4.5917,4.5917,4.5917,4.5917,4.5917,4.5917,4.5917,4.5917,4.583,4.5249,4.5046,4.5091,4.5357,4.535,4.5468,4.7243,4.7674,4.7409,4.7087,4.6885,4.6453,4.5184,4.469,4.4591,4.4591,4.4591,4.4591,4.4591,4.4591,4.4591,4.4591,4.4591,4.4591,4.4591,4.4148,4.3507,4.2738,4.2677,4.2455,4.1605,4.1602,4.1494,4.0861,4.0707,4.0645,4.0645,4.0553,4.0487,4.0418,4.037,4.0191,3.9661,3.9648,3.9271,3.8315,3.8333,3.8221,3.7948,3.8108,3.8202,3.8202,3.8612,3.8815,3.8815,3.921,3.9391,2.8577,3.2307,3.5764,4.0498,4.1765,4.2119,4.3044,4.3538,4.3819,4.3819,4.3676,4.3861,4.4863,4.491,4.5107,4.5947,4.653,4.6728,4.6391,4.6857,4.7114,4.6789,4.676,4.676,4.676,4.676,4.6592,4.633,4.6301,4.6185,4.5917,4.5917,4.5917,4.5917,4.5917,4.5917,4.5917,4.5917,4.5917,4.5917,4.5917,4.5917,4.5917,4.5917,4.5917,4.5917,4.5917,4.5917,4.5888,4.5488,4.5337,4.5308,4.4988,4.4843,4.4792,4.4501,4.4682,4.5149,4.5716,4.5667,4.5591,4.7326,4.7146,4.6234,4.6242,4.6074,4.5715,4.4854,4.4591,4.4591,4.4591,4.4591,4.4591,4.4591,4.4591,4.4498,4.4129,4.4036,4.3913,4.3556,4.3248,4.2762,4.1875,4.1909,4.1694,4.0705,4.0738,4.0716,4.0288,4.0314,4.0383,4.0383,4.047,4.0505,4.0505,4.0505,4.0418,4.0143,4.0353,4.0091,3.9247,3.9583,3.9535,3.9042,3.8371,3.8071,3.8202,3.8612,3.8815,3.8815,3.921,3.9391,2.9431,3.151,3.3276,3.9305,4.0772,4.1201,4.3006,4.3742,4.4127,4.4338,4.4541,4.4961,4.5881,4.5243,4.4906,4.5886,4.6049,4.5883,4.543,4.6056,4.6417,4.5946,4.5917,4.5917,4.5917,4.5917,4.5917,4.5917,4.5917,4.5917,4.5917,4.5917,4.5917,4.5917,4.5917,4.5917,4.5917,4.5917,4.5917,4.5917,4.5917,4.5917,4.5888,4.5743,4.5656,4.5656,4.5656,4.5656,4.5598,4.4959,4.4647,4.464,4.4182,4.3979,4.4022,4.4033,4.4432,4.5068,4.599,4.5939,4.5715,4.7227,4.6678,4.5442,4.5724,4.5523,4.5117,4.4704,4.4591,4.4591,4.4591,4.4591,4.456,4.4375,4.4344,4.419,4.3716,4.3451,4.3125,4.2424,4.2283,4.1965,4.1028,4.1043,4.0908,4.0054,4.0121,4.024,4.0028,4.0187,4.0261,4.0226,4.0349,4.0453,4.0453,4.0487,4.0505,4.0505,4.0766,4.0663,4.0069,4.0512,4.0533,3.9947,3.8957,3.8583,3.8859,3.9005,3.9096,3.9151,3.9337,3.9427,2.5098,2.7793,3.0534,3.4864,3.82,4.0866,4.2533,4.3596,4.4413,4.527,4.543,4.5545,4.5869,4.5495,4.5317,4.5842,4.5914,4.5885,4.5856,4.5901,4.5946,4.5917,4.5917,4.5917,4.5917,4.5917,4.5917,4.5917,4.5917,4.5917,4.5917,4.5917,4.5917,4.5917,4.5917,4.5917,4.5917,4.5917,4.5917,4.5917,4.5917,4.5917,4.5888,4.5249,4.4959,4.4959,4.4959,4.4959,4.4901,4.432,4.4059,4.4037,4.4008,4.3979,4.4029,4.4125,4.4236,4.4379,4.5404,4.5737,4.5832,4.6682,4.6632,4.6195,4.5905,4.5523,4.5117,4.4704,4.4591,4.4591,4.4591,4.4591,4.4437,4.3809,4.3655,4.3655,4.3624,4.3113,4.2394,4.1526,4.1367,4.1046,3.9954,3.9953,4.0006,3.975,4.0051,4.024,4.0028,4.0187,4.024,4.0046,4.0174,4.0296,4.0296,4.0436,4.0505,4.0505,4.0539,4.0422,4.0213,4.0218,4.0187,4.0091,4.0021,4.0178,4.0571,4.01,3.9925,4.0113,3.9643,3.9499,2.3721,2.6013,2.8584,3.2245,3.5486,3.8198,3.9905,4.1906,4.3647,4.4377,4.4833,4.5283,4.5808,4.5745,4.5694,4.5879,4.5917,4.5917,4.5917,4.5917,4.5917,4.5917,4.5917,4.5917,4.5917,4.5917,4.5917,4.5917,4.5917,4.5917,4.5917,4.5917,4.5917,4.5917,4.5482,4.5053,4.4676,4.4676,4.4676,4.4676,4.4676,4.4676,4.4647,4.4414,4.4298,4.432,4.3863,4.3921,4.4269,4.3602,4.3362,4.3311,4.2934,4.3086,4.3562,4.3598,4.4269,4.5216,4.5591,4.602,4.6512,4.6823,4.6791,4.66,4.623,4.552,4.4809,4.4444,4.4149,4.3852,4.3433,4.3636,4.379,4.3143,4.2633,4.2312,4.2312,4.214,4.1686,4.0852,4.0646,4.0448,3.9816,3.9857,3.9905,3.9553,3.9732,3.9839,3.9625,3.9785,3.9892,3.9821,3.998,4.0117,4.0117,4.0139,4.0226,4.0366,4.0366,4.0505,4.0766,4.0973,4.1192,4.1377,4.1129,4.0605,3.9788,3.9872,3.9677,3.9295,3.9373,3.9499,2.2112,2.3912,2.6325,2.9799,3.2146,3.4461,3.7748,3.9765,4.1401,4.305,4.3834,4.4465,4.5162,4.5256,4.5395,4.583,4.5917,4.5917,4.5917,4.5917,4.5917,4.5917,4.5917,4.583,4.5598,4.5547,4.5482,4.5278,4.5256,4.5256,4.5256,4.5256,4.5256,4.5256,4.4843,4.4407,4.3979,4.3979,4.3979,4.3979,4.3979,4.3979,4.3979,4.3747,4.366,4.3631,4.2963,4.305,4.3602,4.2963,4.2702,4.2686,4.2538,4.283,4.3379,4.3916,4.4762,4.5733,4.6003,4.646,4.691,4.691,4.6662,4.6295,4.5897,4.4999,4.4157,4.4033,4.3818,4.3562,4.3327,4.3429,4.3478,4.3054,4.2413,4.1912,4.1912,4.1513,4.0953,4.0318,4.0139,3.9998,3.9661,3.9696,3.9727,3.9427,3.9571,3.9625,3.9409,3.9571,3.9679,3.9607,3.9768,3.9892,3.9892,3.9975,4.0099,4.0279,4.0296,4.0539,4.1072,4.1306,4.1506,4.1639,4.1426,4.0656,3.9302,3.9695,3.9713,3.9367,3.9409,3.9535,0.0,0.0,0.0,2.736,2.8225,2.9876,3.6194,3.7143,3.7708,4.121,4.2411,4.305,4.3776,4.3921,4.4356,4.5627,4.583,4.5859,4.5859,4.5859,4.5859,4.5859,4.5859,4.5598,4.4959,4.485,4.464,4.4037,4.3979,4.3979,4.3979,4.3979,4.3979,4.395,4.395,4.395,4.3921,4.3921,4.3921,4.3921,4.3921,4.3921,4.3921,4.3253,4.2963,4.2934,4.2353,4.244,4.2934,4.2324,4.2113,4.2216,4.2981,4.3309,4.3565,4.5116,4.5715,4.5809,4.6585,4.6845,4.6845,4.6845,4.6119,4.5211,4.483,4.3969,4.3171,4.3521,4.3608,4.3714,4.4409,4.4075,4.3573,4.3557,4.2975,4.2473,4.2473,4.131,4.0244,4.0069,3.9874,3.9679,3.9463,3.9409,3.9391,3.9391,3.9571,3.9625,3.9409,3.9571,3.9625,3.9409,3.9571,3.9696,3.9696,3.9857,4.0081,4.0261,4.0279,4.0539,4.1055,4.1088,4.0973,4.0724,4.0891,4.043,3.9338,3.9713,4.0082,4.0443,3.9737,3.9625,2.0465,0.0,0.0,0.0,0.0,0.0,3.0521,3.1824,3.3405,3.7139,3.8434,3.9509,4.1512,4.2295,4.2876,4.366,4.4211,4.4552,4.4552,4.4552,4.4552,4.4552,4.4552,4.4465,4.4269,4.4262,4.4182,4.4008,4.3979,4.3979,4.3979,4.3979,4.3776,4.3282,4.3282,4.305,4.2615,4.2615,4.2615,4.2615,4.2615,4.2615,4.2615,4.244,4.2353,4.2324,4.2179,4.2179,4.2324,4.2179,4.2453,4.2981,4.322,4.4032,4.511,4.5551,4.572,4.581,4.6047,4.5791,4.5387,4.5387,4.5174,4.4912,4.4829,4.3861,4.2933,4.3503,4.3287,4.3051,4.3718,4.3347,4.267,4.2204,4.193,4.1754,4.164,4.0817,4.0335,4.1277,4.0891,4.0374,4.02,3.9737,3.9391,3.9391,3.9445,3.9445,3.9391,3.9445,3.9445,3.9391,3.9319,3.9337,3.9463,3.9409,3.9499,3.9857,3.9998,4.0314,4.0851,4.1004,4.1173,4.1342,4.0585,4.0187,4.0183,3.9977,3.9761,3.9487,3.9732,3.9993,2.212,2.2973,2.4413,2.4795,0.0,0.0,2.8825,2.945,3.048,3.4358,3.5868,3.7099,3.9131,4.0031,4.067,4.1308,4.1744,4.2469,4.3805,4.3979,4.3979,4.3979,4.3979,4.3892,4.3602,4.3573,4.3456,4.3224,4.3195,4.3195,4.3195,4.3195,4.3021,4.2644,4.2615,4.244,4.2092,4.2092,4.2092,4.2092,4.2092,4.2092,4.2092,4.2092,4.2092,4.2092,4.1802,4.1686,4.1657,4.1366,4.1874,4.284,4.3205,4.3898,4.4776,4.5169,4.5353,4.537,4.537,4.5111,4.4804,4.4804,4.4593,4.4285,4.4022,4.3127,4.2372,4.3041,4.3311,4.3531,4.3903,4.3695,4.3275,4.2894,4.274,4.2662,4.2568,4.2045,4.1606,4.1477,4.0755,4.0113,4.0056,3.9666,3.9391,3.9391,3.9391,3.9391,3.9391,3.9391,3.9355,3.9283,3.9174,3.9156,3.9265,3.9174,3.9253,3.9679,3.9803,4.0051,4.0453,4.0591,4.0646,4.0684,3.9955,3.9636,3.9796,3.9565,3.9403,3.9373,3.9714,4.0016,2.4687,2.4861,2.5778,2.7245,2.5939,0.0,2.9101,2.8623,2.8405,3.2006,3.3649,3.4852,3.6199,3.7012,3.768,3.8347,3.8638,3.9886,4.3108,4.3573,4.3573,4.3573,4.3573,4.3311,4.2752,4.2673,4.2461,4.1918,4.1889,4.1889,4.1889,4.1889,4.1889,4.1889,4.1889,4.1889,4.1889,4.1889,4.1889,4.1889,4.1889,4.1889,4.1889,4.1889,4.1889,4.1831,4.125,4.0989,4.0931,4.035,4.0906,4.221,4.2891,4.334,4.3663,4.4379,4.4673,4.4658,4.4658,4.4625,4.4561,4.4561,4.4107,4.3477,4.2888,4.2244,4.1835,4.2426,4.3558,4.4615,4.4615,4.4615,4.4587,4.4483,4.4341,4.4179,4.4164,4.3908,4.3128,4.1277,4.0287,3.9755,3.9755,3.9643,3.9517,3.9517,3.9445,3.9391,3.9391,3.9373,3.9301,3.9108,3.9071,3.9071,3.909,3.909,3.9253,3.9643,3.9696,3.9785,3.9975,4.0028,3.9839,3.9415,3.918,3.898,3.8815,3.8914,3.9235,3.9714,3.9642,3.9806,2.7448,2.7796,2.8405,2.7258,2.6955,0.0,2.61,2.5678,2.5952,2.7736,2.8288,2.9014,3.0785,3.2032,3.3019,3.3686,3.5113,3.7233,4.0408,4.0844,4.0844,4.0844,4.0844,4.0815,4.067,4.067,4.0612,4.0495,4.0495,4.0495,4.0495,4.0495,4.0495,4.0495,4.0495,4.0495,4.0495,4.0495,4.0495,4.0495,4.0495,4.0495,4.0495,4.0495,4.0495,4.0466,4.035,4.0292,4.0292,4.0147,4.1034,4.2381,4.1961,4.2899,4.4498,4.4084,4.3904,4.3897,4.3897,4.3541,4.3023,4.3023,4.291,4.2797,4.267,4.2509,4.2538,4.3154,4.3929,4.4615,4.4615,4.4615,4.4454,4.3871,4.3588,4.3472,4.3371,4.2757,4.2205,4.2253,4.2078,4.1965,4.1965,4.1057,4.027,4.027,3.9773,3.9391,3.9391,3.9265,3.9156,3.909,3.8962,3.8925,3.9071,3.909,3.921,3.9427,3.9607,3.9732,3.9768,4.0069,3.998,3.9415,3.9053,3.8852,3.8815,3.9725,4.0021,3.9684,3.9312,3.926,3.0117,3.0059,3.032,2.9377,2.8681,0.0,0.0,2.601,2.5878,2.781,2.7432,2.7475,2.9697,3.0349,3.0872,3.1858,3.3371,3.4898,3.6141,3.7941,3.916,3.916,3.916,3.9276,3.9625,3.9654,3.977,4.0089,4.0089,4.0089,4.0089,4.0089,4.0089,4.0089,4.0089,4.0089,4.0089,4.0089,4.0089,4.0089,4.0089,4.0089,4.0089,4.0089,4.0089,4.0089,3.977,3.9654,3.9625,3.9305,4.0048,4.144,4.1431,4.2111,4.3108,4.3129,4.3154,4.3152,4.3152,4.291,4.2586,4.2586,4.2586,4.2602,4.2679,4.2942,4.3229,4.3421,4.4016,4.4615,4.4615,4.4615,4.4468,4.4001,4.3783,4.3669,4.3539,4.3082,4.2772,4.3067,4.3113,4.2865,4.2158,4.1459,4.0992,4.0992,4.0305,3.9791,3.9791,3.9307,3.8907,3.8797,3.8797,3.8852,3.8943,3.9035,3.9192,3.9373,3.9409,3.9469,3.9696,3.9803,3.9625,3.9126,3.932,3.9026,3.815,3.9386,3.9946,3.9839,3.926,3.9116,3.2584,3.2148,3.209,3.1481,3.0466,2.9377,0.0,0.0,0.0,2.8347,2.7477,2.7026,2.9101,2.9058,2.8971,2.9885,3.1367,3.2122,3.1307,3.4196,3.6489,3.6867,3.736,3.7825,3.8231,3.8076,3.8337,3.9305,3.8918,3.8918,3.9538,3.9567,3.9625,3.9741,3.9741,3.9741,3.9741,3.9741,3.9741,3.9741,3.9741,3.9741,3.9741,3.9741,3.9741,3.9712,3.9218,3.9015,3.8957,3.8434,3.8884,4.0025,4.0586,4.1137,4.1686,4.2026,4.2365,4.2586,4.2586,4.2586,4.2586,4.2586,4.2539,4.2539,4.2693,4.3184,4.3632,4.3543,4.4016,4.4615,4.4615,4.4615,4.4573,4.4412,4.4227,4.4068,4.3971,4.3747,4.3598,4.3598,4.3598,4.3235,4.2094,4.1656,4.1459,4.1459,4.0567,3.992,3.992,3.9223,3.8686,3.853,3.8649,3.8741,3.8741,3.8925,3.909,3.9265,3.9137,3.918,3.9505,3.9265,3.8907,3.8509,3.9122,3.8841,3.7488,3.8555,3.9194,3.9481,3.8884,3.8767,3.4586,3.4486,3.4288,3.1396,3.1847,3.176,2.7155,0.0,2.7086,2.5624,0.0,2.5114,2.5404,0.0,0.0,2.482,2.6781,2.7941,2.672,2.8433,3.0408,3.2061,3.4329,3.552,3.5009,3.3972,3.4309,3.6548,3.47,3.4687,3.7476,3.7622,3.7854,3.8405,3.8405,3.8405,3.8405,3.8405,3.8405,3.8405,3.8405,3.8405,3.8405,3.8405,3.8405,3.8405,3.8347,3.8318,3.8318,3.8231,3.8315,3.8464,3.8522,4.0156,4.2318,4.1093,4.1476,4.2586,4.2586,4.2586,4.2586,4.2586,4.2397,4.2222,4.2522,4.2881,4.3217,4.3439,4.4016,4.4615,4.4615,4.4615,4.4601,4.4587,4.4312,4.4097,4.4068,4.3835,4.3598,4.3598,4.3598,4.3553,4.3386,4.2173,4.1214,4.1214,3.9929,3.898,3.898,3.8705,3.853,3.8512,3.8501,3.8519,3.8519,3.8723,3.8852,3.887,3.8852,3.887,3.8907,3.8389,3.7853,3.7396,3.7296,3.7357,3.7488,3.741,3.7468,3.7683,3.7355,3.7248,3.4818,3.5154,3.5259,3.2396,3.2309,3.1977,2.8317,2.7316,2.7171,2.7084,0.0,0.0,0.0,0.0,0.0,0.0,2.5317,2.5578,2.4314,2.5446,2.7301,2.9653,3.057,3.1517,3.2725,3.2378,3.2944,3.5038,3.3565,3.3656,3.6072,3.6519,3.7012,3.768,3.768,3.7854,3.8202,3.8202,3.8202,3.8202,3.8202,3.8202,3.8202,3.8202,3.8202,3.8202,3.8202,3.8202,3.8202,3.8202,3.8712,3.9415,3.9012,3.9859,4.136,4.1591,4.2061,4.2586,4.2586,4.2586,4.2586,4.2586,4.2571,4.2568,4.305,4.3338,4.3591,4.4001,4.4369,4.4615,4.4615,4.4615,4.4587,4.4454,4.4255,4.4068,4.4015,4.3776,4.3598,4.3598,4.328,4.3128,4.3449,4.2553,4.1657,4.11,4.0004,3.9265,3.9265,3.8712,3.8315,3.8315,3.8408,3.8512,3.8512,3.8686,3.8815,3.8815,3.8907,3.876,3.8315,3.7582,3.7044,3.6675,3.6173,3.602,3.623,3.6352,3.637,3.6297,3.6666,3.694,3.534,3.5717,3.5833,3.2745,3.209,3.151,2.8811,2.7736,2.7475,2.8056,2.6981,0.0,0.0,0.0,2.4646,2.4563,0.0,2.4244,2.262,2.3171,2.4612,2.6967,2.7503,2.854,3.0762,3.0207,3.0733,3.3245,3.1795,3.2086,3.4985,3.5532,3.6152,3.7012,3.7215,3.7506,3.7941,3.8115,3.8202,3.8202,3.8202,3.8202,3.8202,3.8202,3.8202,3.8202,3.8202,3.8202,3.8202,3.8202,3.8939,4.0069,3.9718,4.0052,4.0826,4.1916,4.2429,4.2586,4.2586,4.2523,4.2476,4.2555,4.2475,4.2459,4.3126,4.3398,4.3558,4.415,4.444,4.4615,4.4615,4.4615,4.4559,4.4369,4.4212,4.4054,4.3927,4.3732,4.3598,4.3598,4.3189,4.2785,4.2759,4.2125,4.1461,4.0947,3.9916,3.9229,3.9229,3.862,3.8202,3.8202,3.8315,3.8408,3.8408,3.8557,3.8649,3.8649,3.8455,3.7986,3.7177,3.6429,3.5883,3.5581,3.5134,3.5045,3.5305,3.5527,3.559,3.5519,3.6149,3.6604,3.6925,3.6733,3.6199,3.1773,3.109,3.0698,2.7562,2.7765,2.8288,2.7097,2.7779,2.8404,2.7811,2.7171,2.611,0.0,2.4483,0.0,0.0,2.1104,2.1669,2.3097,2.5543,2.762,2.8971,2.6398,2.6373,3.0616,2.8038,2.8686,3.4138,3.4441,3.5021,3.6286,3.6965,3.7331,3.7331,3.7912,3.8202,3.8202,3.8202,3.8202,3.8202,3.8202,3.8202,3.8202,3.8202,3.8202,3.8202,3.8202,3.8657,3.9409,4.0087,4.0809,4.1476,4.1525,4.1997,4.2586,4.2586,4.2381,4.2174,4.2476,4.1948,4.134,4.2333,4.2584,4.2692,4.3347,4.4045,4.4615,4.4615,4.4615,4.4559,4.4369,4.4212,4.4054,4.3927,4.3732,4.3598,4.3598,4.3494,4.2883,4.1337,4.0458,4.0152,4.0639,3.932,3.824,3.824,3.8221,3.8202,3.8202,3.8202,3.8202,3.8202,3.8221,3.8221,3.8221,3.7128,3.6108,3.5244,3.4687,3.4148,3.3688,3.4057,3.4573,3.5305,3.5041,3.5129,3.5489,3.5653,3.583,3.7796,3.8347,3.8173,3.4138,3.3267,3.2483,2.8869,2.8389,2.8346,2.7068,2.7794,2.8375,2.7287,2.62,0.0,0.0,0.0,2.187,0.0,2.0537,2.094,2.1863,2.3943,2.5307,2.5283,2.4669,2.5558,2.8643,2.7487,2.8529,3.2903,3.3558,3.4387,3.5665,3.5927,3.6246,3.6617,3.6838,3.6954,3.6954,3.6954,3.6954,3.6954,3.6954,3.6954,3.6954,3.6954,3.6954,3.6954,3.6954,3.7393,3.809,3.8808,3.9538,4.0341,4.171,4.2397,4.2586,4.2586,4.2523,4.2413,4.2302,4.2206,4.2206,4.2757,4.3032,4.3188,4.3385,4.3608,4.3707,4.3213,4.3078,4.3037,4.2873,4.2735,4.2615,4.2475,4.2285,4.2156,4.2156,4.1671,4.1065,4.0457,3.9252,3.8396,3.8451,3.8339,3.8094,3.7648,3.7941,3.8202,3.8202,3.8202,3.8202,3.8202,3.8202,3.7972,3.7436,3.6768,3.5883,3.4754,3.3791,3.3284,3.3209,3.2946,3.3437,3.4685,3.4617,3.4898,3.5503,3.5004,3.4863,3.9015,3.9479,3.9247,3.5648,3.4765,3.3732,2.99,2.9363,2.9276,2.7765,2.8114,2.8637,2.8507,2.6839,2.5301,0.0,0.0,2.121,0.0,2.0138,2.0479,2.0666,2.2306,2.3428,2.3444,2.3133,2.4133,2.7006,2.6639,2.7901,3.1613,3.2674,3.3632,3.4695,3.516,3.5595,3.5967,3.6199,3.6315,3.6315,3.6315,3.6315,3.6315,3.6315,3.6315,3.6315,3.6315,3.6315,3.6315,3.6315,3.6746,3.7464,3.8152,3.8708,3.9345,4.0911,4.1659,4.19,4.2027,4.214,4.2254,4.2286,4.2077,4.1962,4.2825,4.291,4.275,4.2954,4.3017,4.2895,4.2422,4.226,4.2213,4.2065,4.1915,4.181,4.1624,4.1479,4.1394,4.1394,4.0907,4.0353,4.0035,3.8843,3.7792,3.7383,3.7473,3.7446,3.7008,3.7273,3.7535,3.7535,3.7535,3.7535,3.7535,3.7535,3.7158,3.6265,3.5583,3.4751,3.3717,3.2546,3.2121,3.2494,3.2226,3.2739,3.4008,3.4264,3.4714,3.5277,3.461,3.4228]}]]